[[{"header":{"parameterUnit":"m.s-1","parameterCategory":1,"la1":31.0,"la2":29.5877,"lo1":-88.7671,"lo2":-86.6584,"dy":0.0162,"dx":0.0185,"nx":115,"ny":88,"refTime":"2024-06-13T06:00:00:Z","depth":0,"parameterNumber":2,"parameterNumberName":"U-component_of_WINDS"},"data":[0.0,0.0,0.0,0.0,0.0,0.0,0.0,0.0,0.0,0.0,0.0,0.0,0.0,0.0,0.0,0.0,0.0,0.0,0.0,0.0,0.0,0.0,0.0,0.0,0.0,0.0,0.0,0.0,0.0,0.0,0.0,0.0,0.0,0.0,0.0,0.0,0.0,0.0,0.0,0.0,0.0,0.0,0.0,0.0,0.0,0.0,0.0,0.0,0.0,0.0,0.0,0.0,0.0,0.0,0.0,0.0,0.0,0.0,0.0,0.0,0.0,0.0,0.0,0.0,0.0,0.0,0.0,0.0,0.0,0.0,0.0,0.0,0.0,0.0,0.0,0.0,0.0,0.0,0.0,0.0,0.0,0.0,0.0,0.0,0.0,0.0,0.0,0.0,0.0,0.0,0.0,0.0,0.0,0.0,0.0,0.0,0.0,0.0,0.0,0.0,0.0,0.0,0.0,0.0,0.0,0.0,0.0,0.0,0.0,0.0,0.0,0.0,0.0,0.0,0.0,0.0,0.0,0.0,0.0,0.0,0.0,0.0,0.0,0.0,0.0,0.0,0.0,0.0,0.0,0.0,0.0,0.0,0.0,0.0,0.0,0.0,0.0,0.0,0.0,0.0,0.0,0.0,0.0,0.0,0.0,0.0,0.0,0.0,0.0,0.0,0.0,0.0,0.0,0.0,0.0,0.0,0.0,0.0,0.0,0.0,0.0,0.0,0.0,0.0,0.0,0.0,0.0,0.0,0.0,0.0,0.0,0.0,0.0,0.0,0.0,0.0,0.0,0.0,0.0,0.0,0.0,0.0,0.0,0.0,0.0,0.0,0.0,0.0,0.0,0.0,0.0,0.0,0.0,0.0,0.0,0.0,0.0,0.0,0.0,0.0,0.0,0.0,0.0,0.0,0.0,0.0,0.0,0.0,0.0,0.0,0.0,0.0,0.0,0.0,0.0,0.0,0.0,0.0,0.0,0.0,0.0,0.0,0.0,0.0,0.0,0.0,0.0,0.0,0.0,0.0,0.0,0.0,0.0,0.0,0.0,0.0,0.0,0.0,0.0,0.0,0.0,0.0,0.0,0.0,0.0,0.0,0.0,0.0,0.0,0.0,0.0,0.0,0.0,0.0,0.0,0.0,0.0,0.0,0.0,0.0,0.0,0.0,0.0,0.0,0.0,0.0,0.0,0.0,0.0,0.0,0.0,0.0,0.0,0.0,0.0,0.0,0.0,0.0,0.0,0.0,0.0,0.0,0.0,0.0,0.0,0.0,0.0,0.0,0.0,0.0,0.0,0.0,0.0,0.0,0.0,0.0,0.0,0.0,0.0,0.0,0.0,0.0,0.0,0.0,0.0,0.0,0.0,0.0,0.0,0.0,0.0,0.0,0.0,0.0,0.0,0.0,0.0,0.0,0.0,0.0,0.0,0.0,0.0,0.0,0.0,0.0,0.0,0.0,0.0,0.0,0.0,0.0,0.0,0.0,0.0,0.0,0.0,0.0,0.0,0.0,0.0,0.0,0.0,0.0,0.0,0.0,0.0,0.0,0.0,0.0,0.0,0.0,0.0,0.0,0.0,0.0,0.0,0.0,0.0,0.0,0.0,0.0,0.0,0.0,0.0,0.0,0.0,0.0,0.0,0.0,0.0,0.0,0.0,0.0,0.0,0.0,0.0,0.0,0.0,0.0,0.0,0.0,0.0,0.0,0.0,0.0,0.0,0.0,0.0,0.0,0.0,0.0,0.0,0.0,0.0,0.0,0.0,0.0,0.0,0.0,0.0,0.0,0.0,0.0,0.0,0.0,0.0,0.0,0.0,0.0,0.0,0.0,0.0,0.0,0.0,0.0,0.0,0.0,0.0,0.0,0.0,0.0,0.0,0.0,0.0,0.0,0.0,0.0,0.0,0.0,0.0,0.0,0.0,0.0,0.0,0.0,0.0,0.0,0.0,0.0,0.0,0.0,0.0,0.0,0.0,0.0,0.0,0.0,0.0,0.0,0.0,0.0,0.0,0.0,0.0,0.0,0.0,0.0,0.0,0.0,0.0,0.0,0.0,0.0,0.0,0.0,0.0,0.0,0.0,0.0,0.0,0.0,0.0,0.0,0.0,0.0,0.0,0.0,0.0,0.0,0.0,0.0,0.0,0.0,0.0,0.0,0.0,0.0,0.0,0.0,0.0,0.0,0.0,0.0,0.0,0.0,0.0,0.0,0.0,0.0,0.0,0.0,0.0,0.0,0.0,0.0,0.0,0.0,0.0,0.0,0.0,0.0,0.0,0.0,0.0,0.0,0.0,0.0,0.0,0.0,0.0,0.0,0.0,0.0,0.0,0.0,0.0,0.0,0.0,0.0,0.0,0.0,0.0,0.0,0.0,0.0,0.0,0.0,0.0,0.0,0.0,0.0,0.0,0.0,0.0,0.0,0.0,0.0,0.0,0.0,0.0,0.0,0.0,0.0,0.0,0.0,0.0,0.0,0.0,0.0,0.0,0.0,0.0,0.0,0.0,0.0,0.0,0.0,0.0,0.0,0.0,0.0,0.0,0.0,0.0,0.0,0.0,0.0,0.0,0.0,0.0,0.0,0.0,0.0,0.0,0.0,0.0,0.0,0.0,0.0,0.0,0.0,0.0,0.0,0.0,0.0,0.0,0.0,0.0,0.0,0.0,0.0,0.0,0.0,0.0,0.0,0.0,0.0,0.0,0.0,0.0,0.0,0.0,0.0,0.0,0.0,0.0,0.0,0.0,0.0,0.0,0.0,0.0,0.0,0.0,0.0,0.0,0.0,0.0,0.0,0.0,0.0,0.0,0.0,0.0,0.0,0.0,0.0,0.0,0.0,0.0,0.0,0.0,0.0,0.0,0.0,0.0,0.0,0.0,0.0,0.0,0.0,0.0,0.0,0.0,0.0,0.0,0.0,0.0,0.0,0.0,0.0,0.0,0.0,0.0,0.0,0.0,0.0,0.0,0.0,0.0,0.0,0.0,0.0,0.0,0.0,0.0,0.0,0.0,0.0,0.0,0.0,0.0,0.0,0.0,0.0,0.0,0.0,0.0,0.0,0.0,0.0,0.0,0.0,0.0,0.0,0.0,0.0,0.0,0.0,0.0,0.0,0.0,0.0,0.0,0.0,0.0,0.0,0.0,0.0,0.0,0.0,0.0,0.0,0.0,0.0,0.0,0.0,0.0,0.0,0.0,0.0,0.0,0.0,0.0,0.0,0.0,0.0,0.0,0.0,0.0,0.0,0.0,0.0,0.0,0.0,0.0,0.0,0.0,0.0,0.0,0.0,0.0,0.0,0.0,0.0,0.0,0.0,0.0,0.0,0.0,0.0,0.0,0.0,0.0,0.0,0.0,0.0,0.0,0.0,0.0,0.0,0.0,0.0,0.0,0.0,0.0,0.0,0.0,0.0,0.0,0.0,0.0,0.0,0.0,0.0,0.0,0.0,0.0,0.0,0.0,0.0,0.0,0.0,0.0,0.0,0.0,0.0,0.0,0.0,0.0,0.0,0.0,0.0,0.0,0.0,0.0,0.0,0.0,0.0,0.0,0.0,0.0,0.0,0.0,0.0,0.0,0.0,0.0,0.0,0.0,0.0,0.0,0.0,0.0,0.0,0.0,0.0,0.0,0.0,0.0,0.0,0.0,0.0,0.0,0.0,0.0,0.0,0.0,0.0,0.0,0.0,0.0,0.0,0.0,0.0,0.0,0.0,0.0,0.0,0.0,0.0,0.0,0.0,0.0,0.0,0.0,0.0,0.0,0.0,0.0,0.0,0.0,0.0,0.0,0.0,0.0,0.0,0.0,0.0,0.0,0.0,0.0,0.0,0.0,0.0,0.0,0.0,0.0,0.0,0.0,0.0,0.0,0.0,0.0,0.0,0.0,0.0,0.0,0.0,0.0,0.0,0.0,0.0,0.0,0.0,0.0,0.0,0.0,0.0,0.0,0.0,0.0,0.0,0.0,0.0,0.0,0.0,0.0,0.0,0.0,0.0,0.0,0.0,0.0,0.0,0.0,0.0,0.0,0.0,0.0,0.0,0.0,0.0,0.0,0.0,0.0,0.0,0.0,0.0,0.0,0.0,0.0,0.0,0.0,0.0,0.0,0.0,0.0,0.0,0.0,0.0,0.0,0.0,0.0,0.0,0.0,0.0,0.0,0.0,0.0,0.0,0.0,0.0,0.0,0.0,0.0,0.0,0.0,0.0,0.0,0.0,0.0,0.0,0.0,0.0,0.0,0.0,0.0,0.0,0.0,0.0,0.0,0.0,0.0,0.0,-4.6443,0.0,0.0,0.0,0.0,0.0,0.0,0.0,0.0,0.0,0.0,0.0,0.0,0.0,0.0,0.0,0.0,0.0,0.0,0.0,0.0,0.0,0.0,0.0,0.0,0.0,0.0,0.0,0.0,0.0,0.0,0.0,0.0,0.0,0.0,0.0,0.0,0.0,0.0,0.0,0.0,0.0,0.0,0.0,0.0,0.0,0.0,0.0,0.0,0.0,0.0,0.0,0.0,0.0,0.0,0.0,0.0,0.0,0.0,0.0,0.0,0.0,0.0,0.0,0.0,0.0,0.0,0.0,0.0,0.0,0.0,0.0,0.0,0.0,0.0,0.0,0.0,0.0,0.0,0.0,0.0,0.0,0.0,0.0,0.0,0.0,0.0,0.0,0.0,0.0,0.0,0.0,0.0,0.0,0.0,0.0,0.0,0.0,0.0,0.0,0.0,0.0,0.0,0.0,0.0,0.0,0.0,0.0,0.0,0.0,0.0,-4.7907,-4.8268,-4.7846,-4.7385,-4.6869,0.0,0.0,0.0,0.0,0.0,0.0,0.0,0.0,0.0,0.0,0.0,0.0,0.0,0.0,0.0,0.0,0.0,0.0,0.0,0.0,0.0,0.0,0.0,0.0,0.0,0.0,0.0,0.0,0.0,0.0,0.0,0.0,0.0,0.0,0.0,0.0,0.0,0.0,0.0,0.0,0.0,0.0,0.0,0.0,0.0,0.0,0.0,0.0,0.0,0.0,0.0,0.0,0.0,0.0,0.0,0.0,0.0,0.0,0.0,0.0,0.0,0.0,0.0,0.0,0.0,0.0,0.0,0.0,0.0,0.0,0.0,0.0,0.0,0.0,0.0,0.0,0.0,0.0,0.0,0.0,0.0,0.0,0.0,0.0,0.0,0.0,0.0,0.0,0.0,0.0,0.0,0.0,0.0,0.0,0.0,0.0,0.0,0.0,0.0,0.0,0.0,0.0,0.0,0.0,0.0,0.0,0.0,0.0,0.0,0.0,0.0,0.0,-4.8752,-4.818,-4.699,0.0,0.0,0.0,0.0,0.0,0.0,0.0,0.0,0.0,0.0,0.0,0.0,0.0,0.0,0.0,0.0,0.0,0.0,0.0,0.0,0.0,0.0,0.0,0.0,0.0,0.0,0.0,0.0,0.0,0.0,0.0,0.0,0.0,0.0,0.0,0.0,0.0,0.0,0.0,0.0,0.0,0.0,0.0,0.0,0.0,0.0,0.0,0.0,0.0,0.0,0.0,0.0,0.0,0.0,0.0,0.0,0.0,0.0,0.0,0.0,0.0,0.0,0.0,0.0,0.0,0.0,0.0,0.0,0.0,0.0,0.0,0.0,0.0,0.0,0.0,0.0,0.0,0.0,0.0,0.0,0.0,0.0,0.0,0.0,0.0,0.0,0.0,0.0,0.0,0.0,0.0,0.0,0.0,0.0,0.0,0.0,0.0,0.0,0.0,0.0,0.0,0.0,0.0,0.0,0.0,0.0,0.0,0.0,0.0,0.0,-4.9307,-5.0358,-5.1434,0.0,-4.7524,0.0,0.0,0.0,0.0,0.0,0.0,0.0,0.0,0.0,0.0,0.0,0.0,0.0,0.0,0.0,0.0,0.0,0.0,0.0,0.0,0.0,0.0,0.0,0.0,0.0,0.0,0.0,0.0,0.0,0.0,0.0,0.0,0.0,0.0,0.0,0.0,0.0,0.0,0.0,0.0,0.0,0.0,0.0,0.0,0.0,0.0,0.0,0.0,0.0,0.0,0.0,0.0,0.0,0.0,0.0,0.0,0.0,0.0,0.0,0.0,0.0,0.0,0.0,0.0,0.0,0.0,0.0,0.0,0.0,0.0,0.0,0.0,0.0,0.0,0.0,0.0,0.0,0.0,0.0,0.0,0.0,0.0,0.0,0.0,0.0,0.0,0.0,0.0,0.0,0.0,0.0,0.0,0.0,0.0,0.0,0.0,0.0,0.0,0.0,0.0,0.0,0.0,0.0,0.0,0.0,0.0,0.0,0.0,0.0,0.0,-5.0547,-5.1769,-5.1291,-4.9822,0.0,0.0,0.0,0.0,0.0,0.0,0.0,0.0,0.0,0.0,0.0,0.0,0.0,0.0,0.0,0.0,0.0,0.0,0.0,0.0,0.0,0.0,0.0,0.0,0.0,0.0,0.0,0.0,0.0,0.0,0.0,0.0,0.0,0.0,0.0,0.0,0.0,0.0,0.0,0.0,0.0,0.0,0.0,0.0,0.0,0.0,0.0,0.0,0.0,0.0,0.0,0.0,0.0,0.0,0.0,0.0,0.0,0.0,0.0,0.0,0.0,0.0,0.0,0.0,0.0,0.0,0.0,0.0,0.0,0.0,0.0,0.0,0.0,0.0,0.0,0.0,0.0,0.0,0.0,0.0,0.0,0.0,0.0,0.0,0.0,0.0,0.0,0.0,0.0,0.0,0.0,0.0,0.0,0.0,0.0,0.0,0.0,0.0,0.0,0.0,0.0,0.0,0.0,0.0,0.0,0.0,0.0,0.0,0.0,0.0,-5.0571,0.0,-5.3142,-5.166,-4.9641,-4.7253,0.0,0.0,0.0,0.0,0.0,0.0,0.0,0.0,0.0,0.0,0.0,0.0,0.0,0.0,0.0,0.0,0.0,0.0,0.0,0.0,0.0,0.0,0.0,0.0,0.0,0.0,0.0,0.0,0.0,0.0,0.0,0.0,0.0,0.0,0.0,0.0,0.0,0.0,0.0,0.0,0.0,0.0,0.0,0.0,0.0,0.0,0.0,0.0,0.0,0.0,0.0,0.0,0.0,0.0,0.0,0.0,0.0,0.0,0.0,0.0,0.0,0.0,0.0,0.0,0.0,0.0,0.0,0.0,0.0,0.0,0.0,0.0,0.0,0.0,0.0,0.0,0.0,0.0,0.0,0.0,0.0,0.0,0.0,0.0,0.0,0.0,0.0,0.0,0.0,0.0,0.0,0.0,0.0,0.0,0.0,0.0,0.0,0.0,0.0,0.0,0.0,0.0,0.0,0.0,0.0,0.0,0.0,0.0,0.0,-5.1773,-5.264,-5.4951,-5.3491,-5.1052,0.0,0.0,0.0,0.0,0.0,0.0,0.0,0.0,0.0,0.0,0.0,0.0,0.0,0.0,0.0,0.0,0.0,0.0,0.0,0.0,0.0,0.0,0.0,0.0,0.0,0.0,0.0,0.0,0.0,0.0,0.0,0.0,0.0,0.0,0.0,0.0,0.0,0.0,0.0,0.0,0.0,0.0,0.0,0.0,0.0,0.0,0.0,0.0,0.0,0.0,0.0,0.0,0.0,0.0,0.0,0.0,0.0,0.0,0.0,0.0,0.0,0.0,0.0,0.0,0.0,0.0,0.0,0.0,0.0,0.0,0.0,0.0,0.0,0.0,0.0,0.0,0.0,0.0,0.0,0.0,0.0,0.0,0.0,0.0,0.0,0.0,0.0,0.0,0.0,0.0,0.0,0.0,0.0,0.0,0.0,0.0,0.0,0.0,0.0,0.0,0.0,0.0,0.0,0.0,0.0,0.0,0.0,0.0,0.0,-5.1024,-5.2436,-5.4224,-5.6206,-5.2995,-5.0207,0.0,0.0,0.0,0.0,0.0,0.0,0.0,0.0,0.0,0.0,0.0,0.0,0.0,0.0,0.0,0.0,0.0,0.0,0.0,0.0,0.0,0.0,0.0,0.0,0.0,0.0,0.0,0.0,0.0,0.0,0.0,0.0,0.0,0.0,0.0,0.0,0.0,0.0,0.0,0.0,0.0,0.0,0.0,0.0,0.0,0.0,0.0,0.0,0.0,0.0,0.0,0.0,0.0,0.0,0.0,0.0,0.0,0.0,0.0,0.0,0.0,0.0,0.0,0.0,0.0,0.0,0.0,0.0,0.0,0.0,0.0,0.0,0.0,0.0,0.0,0.0,0.0,0.0,0.0,0.0,0.0,0.0,0.0,0.0,0.0,0.0,0.0,0.0,0.0,0.0,0.0,0.0,0.0,0.0,0.0,0.0,0.0,0.0,0.0,0.0,0.0,0.0,0.0,0.0,0.0,0.0,0.0,0.0,0.0,-5.1118,0.0,-5.554,0.0,-5.3016,-5.0209,0.0,0.0,0.0,0.0,0.0,0.0,0.0,0.0,0.0,0.0,0.0,0.0,0.0,0.0,0.0,0.0,0.0,0.0,0.0,0.0,0.0,0.0,0.0,0.0,0.0,0.0,0.0,0.0,0.0,0.0,0.0,0.0,0.0,0.0,0.0,0.0,0.0,0.0,0.0,0.0,0.0,0.0,0.0,0.0,0.0,0.0,0.0,0.0,0.0,0.0,0.0,0.0,0.0,0.0,0.0,0.0,0.0,0.0,0.0,0.0,0.0,0.0,0.0,0.0,0.0,0.0,0.0,0.0,0.0,0.0,0.0,0.0,0.0,0.0,0.0,0.0,0.0,0.0,0.0,0.0,0.0,0.0,0.0,0.0,0.0,0.0,0.0,0.0,0.0,0.0,0.0,0.0,0.0,0.0,0.0,0.0,0.0,0.0,0.0,0.0,0.0,0.0,0.0,0.0,0.0,0.0,0.0,0.0,-4.944,-5.2799,-5.5791,-5.6332,-5.436,-5.3716,-5.1291,0.0,0.0,0.0,0.0,0.0,0.0,0.0,0.0,0.0,0.0,0.0,0.0,0.0,0.0,0.0,0.0,0.0,0.0,0.0,0.0,0.0,0.0,0.0,0.0,0.0,0.0,0.0,0.0,0.0,0.0,0.0,0.0,0.0,0.0,0.0,0.0,0.0,0.0,0.0,0.0,0.0,0.0,0.0,0.0,0.0,0.0,0.0,0.0,0.0,0.0,0.0,0.0,0.0,0.0,0.0,0.0,0.0,0.0,0.0,0.0,0.0,0.0,0.0,0.0,0.0,0.0,0.0,0.0,0.0,0.0,0.0,0.0,0.0,0.0,0.0,0.0,0.0,0.0,0.0,0.0,0.0,0.0,0.0,0.0,0.0,0.0,0.0,0.0,0.0,0.0,0.0,0.0,0.0,0.0,0.0,0.0,0.0,0.0,0.0,0.0,0.0,0.0,0.0,0.0,0.0,0.0,0.0,0.0,0.0,-5.2536,-5.355,-5.4798,-5.6134,-5.2858,-5.0304,0.0,0.0,0.0,0.0,0.0,0.0,0.0,0.0,0.0,0.0,0.0,0.0,0.0,0.0,0.0,0.0,0.0,0.0,0.0,0.0,0.0,0.0,0.0,0.0,0.0,0.0,0.0,0.0,0.0,0.0,0.0,0.0,0.0,0.0,0.0,0.0,0.0,0.0,0.0,0.0,0.0,0.0,0.0,0.0,0.0,0.0,0.0,0.0,0.0,0.0,0.0,0.0,0.0,0.0,0.0,0.0,0.0,0.0,0.0,0.0,0.0,0.0,0.0,0.0,0.0,0.0,0.0,0.0,0.0,0.0,0.0,0.0,0.0,0.0,0.0,0.0,0.0,0.0,0.0,0.0,0.0,0.0,0.0,0.0,0.0,0.0,0.0,0.0,0.0,0.0,0.0,0.0,0.0,0.0,0.0,0.0,0.0,0.0,0.0,0.0,0.0,0.0,0.0,0.0,0.0,0.0,0.0,0.0,0.0,-5.327,-5.3863,-5.4876,-5.637,-5.2887,-5.0434,-4.9225,0.0,0.0,0.0,0.0,0.0,0.0,0.0,0.0,0.0,0.0,0.0,0.0,0.0,0.0,0.0,0.0,0.0,0.0,0.0,0.0,0.0,0.0,0.0,0.0,0.0,0.0,0.0,0.0,0.0,0.0,0.0,0.0,0.0,0.0,0.0,0.0,0.0,0.0,0.0,0.0,0.0,0.0,0.0,0.0,0.0,0.0,0.0,0.0,0.0,0.0,0.0,0.0,0.0,0.0,0.0,0.0,0.0,0.0,0.0,0.0,0.0,0.0,0.0,0.0,0.0,0.0,0.0,0.0,0.0,0.0,0.0,0.0,0.0,0.0,0.0,0.0,0.0,0.0,0.0,0.0,0.0,0.0,0.0,0.0,0.0,0.0,0.0,0.0,0.0,0.0,0.0,0.0,0.0,0.0,0.0,0.0,0.0,0.0,0.0,0.0,0.0,0.0,0.0,0.0,0.0,0.0,0.0,0.0,-5.4732,-5.6201,-5.6353,-5.5168,-5.3716,-5.1506,0.0,0.0,0.0,0.0,0.0,0.0,0.0,0.0,0.0,0.0,0.0,0.0,0.0,0.0,0.0,0.0,0.0,0.0,0.0,0.0,0.0,0.0,0.0,0.0,0.0,0.0,0.0,0.0,0.0,0.0,0.0,0.0,0.0,0.0,0.0,0.0,0.0,0.0,0.0,0.0,0.0,0.0,0.0,0.0,0.0,0.0,0.0,0.0,0.0,0.0,0.0,0.0,0.0,0.0,0.0,0.0,0.0,0.0,0.0,0.0,0.0,0.0,0.0,0.0,0.0,0.0,0.0,0.0,0.0,0.0,0.0,0.0,0.0,0.0,0.0,0.0,0.0,0.0,0.0,0.0,0.0,0.0,0.0,0.0,0.0,0.0,0.0,0.0,0.0,0.0,0.0,0.0,0.0,0.0,0.0,0.0,0.0,0.0,0.0,0.0,0.0,0.0,0.0,0.0,0.0,0.0,0.0,0.0,0.0,-5.4363,-5.5882,-5.6845,-5.708,-5.4223,-5.2057,0.0,0.0,0.0,0.0,0.0,0.0,0.0,0.0,0.0,0.0,0.0,0.0,0.0,0.0,0.0,0.0,0.0,0.0,0.0,0.0,0.0,0.0,0.0,0.0,0.0,0.0,0.0,0.0,0.0,0.0,0.0,0.0,0.0,0.0,0.0,0.0,0.0,0.0,0.0,0.0,0.0,0.0,0.0,0.0,0.0,0.0,0.0,0.0,0.0,0.0,0.0,0.0,0.0,0.0,0.0,0.0,0.0,0.0,0.0,0.0,0.0,0.0,0.0,0.0,0.0,0.0,0.0,0.0,0.0,0.0,0.0,0.0,0.0,0.0,0.0,0.0,0.0,0.0,0.0,0.0,0.0,0.0,0.0,0.0,0.0,0.0,0.0,0.0,0.0,0.0,0.0,0.0,0.0,0.0,0.0,0.0,0.0,0.0,0.0,0.0,0.0,0.0,0.0,0.0,0.0,0.0,0.0,0.0,-5.3385,-5.461,-5.6296,-5.728,-5.75,-5.5123,-5.3027,0.0,0.0,0.0,0.0,0.0,0.0,0.0,0.0,0.0,0.0,0.0,0.0,0.0,0.0,0.0,0.0,0.0,0.0,0.0,0.0,0.0,0.0,0.0,0.0,0.0,0.0,0.0,0.0,0.0,0.0,0.0,0.0,0.0,0.0,0.0,0.0,0.0,0.0,0.0,0.0,0.0,0.0,0.0,0.0,0.0,0.0,0.0,0.0,0.0,0.0,0.0,0.0,0.0,0.0,0.0,0.0,0.0,0.0,0.0,0.0,0.0,0.0,0.0,0.0,0.0,0.0,0.0,0.0,0.0,0.0,0.0,0.0,0.0,0.0,0.0,0.0,0.0,0.0,0.0,0.0,0.0,0.0,0.0,0.0,0.0,0.0,0.0,0.0,0.0,0.0,0.0,0.0,0.0,0.0,0.0,0.0,0.0,0.0,0.0,0.0,0.0,0.0,0.0,0.0,0.0,0.0,0.0,0.0,-5.3776,-5.5304,-5.7001,-5.7538,-5.6822,-5.5923,-5.4051,0.0,0.0,0.0,0.0,0.0,0.0,0.0,0.0,0.0,0.0,0.0,0.0,0.0,0.0,0.0,0.0,0.0,0.0,0.0,0.0,0.0,0.0,0.0,0.0,0.0,0.0,0.0,0.0,0.0,0.0,0.0,0.0,0.0,0.0,0.0,0.0,0.0,0.0,0.0,0.0,0.0,0.0,0.0,0.0,0.0,0.0,0.0,0.0,0.0,0.0,0.0,0.0,0.0,0.0,0.0,0.0,0.0,0.0,0.0,0.0,0.0,0.0,0.0,0.0,0.0,0.0,0.0,0.0,0.0,0.0,0.0,0.0,0.0,0.0,0.0,0.0,0.0,0.0,0.0,0.0,0.0,0.0,0.0,0.0,0.0,0.0,0.0,0.0,0.0,0.0,0.0,0.0,0.0,0.0,0.0,0.0,0.0,0.0,0.0,0.0,0.0,0.0,0.0,0.0,0.0,0.0,0.0,0.0,-5.4542,-5.6093,-5.6763,-5.6987,-5.6804,-5.5409,-5.3739,0.0,0.0,0.0,0.0,0.0,0.0,0.0,0.0,0.0,0.0,0.0,0.0,0.0,0.0,0.0,0.0,0.0,0.0,0.0,0.0,0.0,0.0,0.0,0.0,0.0,0.0,0.0,0.0,0.0,0.0,0.0,0.0,0.0,0.0,0.0,0.0,0.0,0.0,0.0,0.0,0.0,0.0,0.0,0.0,0.0,0.0,0.0,0.0,-5.3804,0.0,0.0,0.0,0.0,0.0,0.0,0.0,0.0,0.0,0.0,0.0,0.0,0.0,0.0,0.0,0.0,0.0,0.0,0.0,0.0,0.0,0.0,0.0,0.0,0.0,0.0,0.0,0.0,0.0,0.0,0.0,0.0,0.0,0.0,0.0,0.0,0.0,0.0,0.0,0.0,0.0,0.0,0.0,0.0,0.0,0.0,0.0,0.0,0.0,0.0,0.0,0.0,0.0,0.0,0.0,0.0,0.0,0.0,0.0,-5.4574,-5.5819,-5.6466,-5.662,-5.6216,-5.5042,-5.3647,0.0,0.0,0.0,0.0,0.0,0.0,0.0,0.0,0.0,0.0,0.0,0.0,0.0,0.0,0.0,0.0,0.0,0.0,0.0,0.0,0.0,0.0,0.0,0.0,0.0,0.0,0.0,0.0,0.0,0.0,0.0,0.0,0.0,0.0,0.0,0.0,0.0,0.0,0.0,0.0,0.0,0.0,0.0,0.0,0.0,0.0,0.0,0.0,0.0,0.0,0.0,0.0,0.0,0.0,0.0,0.0,0.0,0.0,0.0,0.0,0.0,0.0,0.0,0.0,0.0,0.0,0.0,0.0,0.0,0.0,0.0,0.0,0.0,0.0,0.0,0.0,0.0,0.0,0.0,0.0,0.0,0.0,0.0,0.0,0.0,0.0,0.0,0.0,0.0,0.0,0.0,0.0,0.0,0.0,0.0,0.0,0.0,0.0,0.0,0.0,0.0,0.0,0.0,0.0,0.0,0.0,0.0,-5.3781,-5.4264,-5.5194,-5.5985,-5.6084,-5.5431,-5.4638,-5.3463,-5.1848,0.0,0.0,0.0,0.0,0.0,0.0,0.0,0.0,0.0,0.0,0.0,0.0,0.0,0.0,0.0,0.0,0.0,0.0,0.0,0.0,0.0,0.0,0.0,0.0,0.0,0.0,0.0,0.0,0.0,0.0,0.0,0.0,0.0,0.0,0.0,0.0,0.0,0.0,-4.9144,-5.0452,0.0,0.0,0.0,0.0,0.0,0.0,0.0,0.0,-5.3315,0.0,0.0,0.0,0.0,0.0,0.0,0.0,0.0,0.0,0.0,0.0,0.0,0.0,0.0,0.0,0.0,0.0,0.0,0.0,0.0,0.0,0.0,0.0,0.0,0.0,0.0,0.0,0.0,0.0,0.0,0.0,0.0,0.0,0.0,0.0,0.0,0.0,0.0,0.0,0.0,0.0,0.0,0.0,0.0,0.0,0.0,0.0,0.0,0.0,0.0,0.0,0.0,0.0,0.0,0.0,0.0,-5.3639,-5.318,-5.3645,-5.5139,-5.4838,-5.4602,-5.4583,-5.383,-5.2656,-5.1041,0.0,0.0,0.0,0.0,0.0,0.0,0.0,0.0,0.0,0.0,0.0,0.0,0.0,0.0,0.0,0.0,0.0,0.0,0.0,0.0,0.0,0.0,0.0,0.0,0.0,0.0,0.0,0.0,0.0,0.0,0.0,0.0,0.0,0.0,0.0,0.0,0.0,0.0,0.0,-5.1122,-5.1554,0.0,0.0,0.0,0.0,0.0,0.0,0.0,0.0,-5.2762,0.0,0.0,0.0,0.0,0.0,0.0,0.0,0.0,0.0,0.0,0.0,0.0,0.0,0.0,0.0,0.0,0.0,0.0,0.0,0.0,0.0,0.0,0.0,0.0,0.0,0.0,0.0,0.0,0.0,0.0,0.0,0.0,0.0,0.0,0.0,0.0,0.0,0.0,0.0,0.0,0.0,0.0,0.0,0.0,0.0,0.0,0.0,0.0,0.0,0.0,0.0,0.0,0.0,0.0,0.0,-5.2806,-5.2817,-5.3272,-5.4428,-5.4232,-5.3942,-5.3671,-5.2498,-5.131,0.0,0.0,0.0,0.0,0.0,0.0,0.0,0.0,0.0,0.0,0.0,0.0,0.0,0.0,0.0,0.0,0.0,0.0,0.0,0.0,0.0,0.0,0.0,0.0,0.0,0.0,0.0,0.0,0.0,0.0,0.0,0.0,0.0,0.0,0.0,0.0,0.0,0.0,0.0,0.0,-5.2027,-5.2466,-5.2262,0.0,0.0,0.0,0.0,0.0,0.0,-5.2997,-5.2717,0.0,0.0,0.0,0.0,0.0,0.0,0.0,0.0,0.0,0.0,0.0,0.0,0.0,0.0,0.0,0.0,0.0,0.0,0.0,0.0,0.0,0.0,0.0,0.0,0.0,0.0,0.0,0.0,0.0,0.0,0.0,0.0,0.0,0.0,0.0,0.0,0.0,0.0,0.0,0.0,0.0,0.0,0.0,0.0,0.0,0.0,0.0,0.0,0.0,0.0,0.0,0.0,0.0,0.0,0.0,-5.2082,-5.2214,-5.2645,-5.3499,-5.3645,-5.3466,-5.2937,-5.1569,-5.0385,0.0,0.0,0.0,0.0,0.0,0.0,0.0,0.0,0.0,0.0,0.0,0.0,0.0,0.0,0.0,0.0,0.0,0.0,0.0,0.0,0.0,0.0,0.0,0.0,0.0,0.0,0.0,0.0,0.0,0.0,0.0,0.0,0.0,0.0,0.0,0.0,0.0,0.0,0.0,0.0,0.0,-5.2899,-5.2045,-5.3606,0.0,0.0,0.0,0.0,-5.3328,-5.2927,0.0,0.0,0.0,0.0,0.0,0.0,0.0,0.0,0.0,0.0,0.0,0.0,0.0,0.0,0.0,0.0,0.0,0.0,0.0,0.0,0.0,0.0,0.0,0.0,0.0,0.0,0.0,0.0,0.0,0.0,0.0,0.0,0.0,0.0,0.0,0.0,0.0,0.0,0.0,0.0,0.0,0.0,0.0,0.0,0.0,0.0,0.0,0.0,0.0,0.0,0.0,0.0,0.0,0.0,0.0,0.0,-5.1249,-5.0764,-5.1175,-5.2645,-5.2758,-5.2808,-5.2787,-5.1952,-5.0827,0.0,0.0,0.0,0.0,0.0,0.0,0.0,0.0,0.0,0.0,0.0,0.0,0.0,0.0,0.0,0.0,0.0,0.0,0.0,0.0,0.0,0.0,0.0,0.0,0.0,0.0,0.0,0.0,0.0,0.0,0.0,0.0,0.0,0.0,0.0,0.0,0.0,0.0,0.0,0.0,0.0,-5.1645,-5.1844,-5.3124,-5.4068,0.0,0.0,-5.4131,-5.4721,-5.3598,0.0,0.0,0.0,0.0,0.0,0.0,0.0,0.0,0.0,0.0,0.0,0.0,0.0,0.0,0.0,0.0,0.0,0.0,0.0,0.0,0.0,0.0,0.0,0.0,0.0,0.0,0.0,0.0,0.0,0.0,0.0,0.0,0.0,0.0,0.0,0.0,0.0,0.0,0.0,0.0,0.0,0.0,0.0,0.0,0.0,0.0,0.0,0.0,0.0,0.0,0.0,0.0,0.0,0.0,0.0,-4.7192,-4.9836,-5.0035,-5.0895,-5.2481,-5.2554,-5.2382,-5.2057,-5.0802,-4.9206,0.0,0.0,0.0,0.0,0.0,0.0,0.0,0.0,0.0,0.0,0.0,0.0,0.0,0.0,0.0,0.0,0.0,0.0,0.0,0.0,0.0,0.0,0.0,0.0,0.0,0.0,0.0,0.0,0.0,0.0,0.0,0.0,0.0,0.0,0.0,0.0,0.0,0.0,0.0,0.0,0.0,0.0,-5.1613,-5.3283,0.0,0.0,0.0,-5.4555,-5.4501,0.0,0.0,0.0,0.0,0.0,0.0,0.0,0.0,0.0,0.0,0.0,0.0,0.0,0.0,0.0,0.0,0.0,0.0,0.0,0.0,0.0,0.0,0.0,0.0,0.0,0.0,0.0,0.0,0.0,0.0,0.0,0.0,0.0,0.0,0.0,0.0,0.0,0.0,0.0,0.0,0.0,0.0,0.0,0.0,0.0,0.0,0.0,0.0,0.0,0.0,0.0,0.0,0.0,0.0,0.0,0.0,0.0,-4.8381,-4.9211,-5.034,-5.1828,-5.19,-5.1656,-5.1147,-4.9727,0.0,0.0,0.0,0.0,0.0,0.0,0.0,0.0,0.0,0.0,0.0,0.0,0.0,0.0,0.0,0.0,0.0,0.0,0.0,0.0,0.0,0.0,0.0,0.0,0.0,0.0,0.0,-3.7365,0.0,0.0,0.0,0.0,0.0,0.0,0.0,0.0,0.0,0.0,0.0,0.0,0.0,0.0,-5.1683,-5.1108,-5.3079,-5.4148,0.0,0.0,-5.4738,-5.4206,-5.3926,-5.3916,0.0,0.0,0.0,0.0,0.0,0.0,0.0,0.0,0.0,0.0,0.0,0.0,0.0,0.0,0.0,0.0,0.0,0.0,0.0,0.0,0.0,0.0,0.0,0.0,0.0,0.0,0.0,0.0,0.0,0.0,0.0,0.0,0.0,0.0,0.0,0.0,0.0,0.0,0.0,0.0,0.0,0.0,0.0,0.0,0.0,0.0,0.0,0.0,0.0,0.0,0.0,0.0,0.0,0.0,0.0,-4.7075,-4.7834,-4.89,-5.0176,-5.0275,-5.0238,-5.0184,-4.9365,-4.7814,0.0,0.0,0.0,0.0,0.0,0.0,0.0,0.0,0.0,0.0,0.0,0.0,0.0,0.0,0.0,0.0,0.0,0.0,0.0,0.0,0.0,0.0,0.0,0.0,0.0,0.0,0.0,0.0,0.0,0.0,0.0,0.0,0.0,0.0,0.0,0.0,0.0,0.0,0.0,0.0,0.0,-5.0257,-5.0202,-5.1959,-5.3265,0.0,0.0,-5.4423,-5.4385,-5.4046,-5.4106,-5.4979,0.0,0.0,0.0,0.0,0.0,0.0,0.0,0.0,0.0,0.0,0.0,0.0,0.0,0.0,0.0,0.0,0.0,0.0,0.0,0.0,0.0,0.0,0.0,0.0,0.0,0.0,0.0,0.0,0.0,0.0,0.0,0.0,0.0,0.0,0.0,0.0,0.0,0.0,0.0,0.0,0.0,0.0,0.0,0.0,0.0,0.0,0.0,0.0,0.0,0.0,0.0,0.0,0.0,-4.419,-4.5747,-4.6978,-4.8108,-4.9083,-4.9101,-4.887,-4.839,-4.8063,-4.6611,0.0,0.0,0.0,0.0,0.0,0.0,0.0,0.0,0.0,0.0,0.0,0.0,0.0,0.0,0.0,0.0,0.0,0.0,0.0,0.0,0.0,0.0,0.0,0.0,0.0,0.0,0.0,0.0,-3.9093,-4.0291,-4.2483,0.0,0.0,0.0,0.0,0.0,0.0,0.0,0.0,0.0,0.0,-5.0112,-5.013,-5.1883,0.0,0.0,-5.3607,-5.4119,-5.4359,-5.3801,-5.3577,-5.4225,-5.3612,0.0,0.0,0.0,0.0,0.0,0.0,0.0,0.0,0.0,0.0,0.0,0.0,0.0,0.0,0.0,0.0,0.0,0.0,0.0,0.0,0.0,0.0,0.0,0.0,0.0,0.0,0.0,0.0,0.0,0.0,0.0,0.0,0.0,0.0,0.0,0.0,0.0,0.0,0.0,0.0,0.0,0.0,0.0,0.0,0.0,0.0,0.0,0.0,0.0,0.0,0.0,0.0,-4.308,-4.4432,-4.5928,-4.706,-4.7756,-4.7799,-4.751,-4.6983,-4.6948,-4.5572,0.0,0.0,0.0,0.0,0.0,0.0,0.0,0.0,0.0,0.0,0.0,0.0,0.0,0.0,0.0,0.0,0.0,0.0,0.0,0.0,0.0,0.0,0.0,0.0,0.0,0.0,0.0,0.0,-3.9909,-4.1623,-4.365,0.0,0.0,0.0,0.0,0.0,0.0,0.0,0.0,0.0,0.0,-5.0049,-5.0112,-5.177,-5.2972,-5.2922,-5.3408,-5.3795,-5.3836,-5.3436,-5.3153,-5.3261,0.0,0.0,0.0,0.0,0.0,0.0,0.0,0.0,0.0,0.0,0.0,0.0,0.0,0.0,0.0,0.0,0.0,0.0,0.0,0.0,0.0,0.0,0.0,0.0,0.0,0.0,0.0,0.0,0.0,0.0,-3.8261,0.0,0.0,0.0,0.0,0.0,0.0,0.0,0.0,0.0,0.0,0.0,0.0,0.0,0.0,0.0,0.0,0.0,0.0,0.0,0.0,0.0,0.0,-4.2278,-4.3145,-4.4621,-4.5615,-4.6137,-4.6144,-4.6161,-4.6102,-4.6109,-4.5021,-4.2642,0.0,0.0,0.0,0.0,0.0,0.0,0.0,0.0,0.0,0.0,0.0,0.0,0.0,0.0,0.0,0.0,0.0,0.0,0.0,0.0,0.0,0.0,0.0,0.0,0.0,0.0,-4.0851,-4.1258,-4.2269,0.0,0.0,0.0,0.0,0.0,0.0,0.0,0.0,0.0,0.0,-4.9392,-4.9942,-5.0071,-5.1452,-5.2454,-5.249,-5.3164,-5.3442,-5.279,-5.2909,-5.2881,0.0,0.0,0.0,0.0,0.0,0.0,0.0,0.0,0.0,0.0,0.0,0.0,0.0,0.0,0.0,0.0,0.0,0.0,0.0,0.0,0.0,0.0,0.0,0.0,0.0,0.0,0.0,-4.0531,-3.9603,0.0,0.0,0.0,0.0,0.0,0.0,0.0,0.0,0.0,0.0,0.0,-4.1094,-4.1574,0.0,0.0,0.0,0.0,0.0,0.0,0.0,0.0,0.0,0.0,0.0,0.0,-4.1784,-4.2619,-4.4058,-4.4934,-4.5106,-4.5106,-4.5106,-4.5106,-4.5106,-4.4156,-4.2144,0.0,0.0,0.0,0.0,0.0,0.0,0.0,0.0,0.0,0.0,0.0,0.0,0.0,0.0,0.0,0.0,0.0,0.0,0.0,0.0,0.0,0.0,0.0,0.0,0.0,-4.0841,0.0,0.0,0.0,0.0,0.0,0.0,0.0,0.0,0.0,0.0,0.0,-4.7453,-4.7723,-4.855,-4.9099,-4.9183,-5.0154,-5.1086,0.0,0.0,0.0,0.0,0.0,0.0,0.0,0.0,0.0,0.0,0.0,0.0,0.0,0.0,-4.9034,-4.8328,-4.7,-4.6046,-4.6214,0.0,0.0,0.0,0.0,0.0,0.0,0.0,0.0,0.0,0.0,0.0,0.0,0.0,0.0,-4.0505,0.0,-3.8621,0.0,0.0,0.0,0.0,0.0,0.0,0.0,0.0,-4.2539,-4.2605,-4.2175,-4.2638,-4.2622,0.0,-4.217,-4.1354,0.0,0.0,0.0,0.0,0.0,0.0,0.0,0.0,-4.1789,-4.2574,-4.3788,-4.4457,-4.4485,-4.4514,-4.4525,-4.4598,-4.4316,-4.3335,-4.1587,-4.0802,-3.9368,0.0,0.0,0.0,0.0,0.0,0.0,0.0,0.0,0.0,0.0,0.0,0.0,0.0,0.0,0.0,0.0,0.0,0.0,0.0,0.0,0.0,0.0,0.0,-4.0301,0.0,0.0,0.0,0.0,0.0,0.0,0.0,0.0,0.0,-4.7178,-4.7272,-4.7343,-4.7613,-4.8416,-4.9005,-4.905,0.0,0.0,0.0,0.0,0.0,0.0,0.0,-5.2026,-5.1434,-5.0843,-5.0286,-4.9843,-4.9723,-4.9503,-4.9074,0.0,0.0,-4.8161,-4.7297,-4.6672,-4.6672,-4.7535,-4.7882,-4.6585,-4.7264,-4.7703,0.0,0.0,0.0,0.0,0.0,0.0,0.0,0.0,-4.0482,-3.9692,0.0,-3.8275,0.0,0.0,0.0,0.0,0.0,-4.1799,0.0,0.0,-4.3251,-4.3598,-4.3582,-4.3582,-4.3582,-4.3615,-4.3565,-4.3184,-4.2452,-4.1222,0.0,0.0,0.0,0.0,0.0,0.0,-4.2289,-4.3004,-4.3724,-4.4155,-4.4281,-4.4293,-4.4384,-4.457,-4.3815,-4.2662,-4.1122,-4.0321,-3.8833,-3.6506,-3.582,0.0,0.0,0.0,0.0,0.0,0.0,0.0,0.0,0.0,0.0,0.0,0.0,0.0,0.0,0.0,0.0,0.0,0.0,0.0,0.0,-3.8963,0.0,0.0,0.0,0.0,0.0,0.0,0.0,0.0,0.0,0.0,-4.7119,-4.721,-4.7501,-4.8235,0.0,0.0,0.0,0.0,-5.0976,-5.0981,-5.1471,-5.177,-5.1729,-5.1828,-5.1334,-4.9716,0.0,0.0,-4.9418,-4.97,-4.9589,-4.8501,-4.8566,-4.8855,-4.8804,-4.845,-4.8193,-4.8194,-4.8193,-4.8267,-4.8212,-4.7858,-4.7702,-4.2356,0.0,0.0,0.0,0.0,-4.1492,-4.1366,-4.1192,-4.1192,-4.0655,-3.9755,-3.9204,0.0,0.0,0.0,0.0,0.0,0.0,-4.2067,-4.2586,-4.3273,-4.3615,-4.3615,-4.3615,-4.3615,-4.3615,-4.3615,-4.3482,-4.3251,-4.2883,-4.1903,-4.0388,0.0,0.0,0.0,0.0,-4.2775,-4.3037,-4.3712,-4.4126,-4.4155,-4.4155,-4.4184,-4.4241,-4.3519,-4.2651,-4.1657,-4.0919,-3.9746,-3.7995,-3.7274,0.0,0.0,0.0,0.0,0.0,0.0,0.0,0.0,0.0,0.0,0.0,0.0,0.0,0.0,0.0,0.0,0.0,0.0,0.0,-3.9037,-3.9209,-3.975,0.0,0.0,0.0,0.0,0.0,0.0,0.0,0.0,0.0,-4.7128,-4.766,-4.8191,0.0,0.0,-4.867,-4.8693,-4.852,-4.8569,-4.9145,0.0,0.0,0.0,-5.1038,-5.1164,-4.9836,-4.9266,-4.8734,-4.8034,-4.802,-4.8034,-4.7777,-4.782,-4.7937,-4.8022,-4.7964,-4.7868,-4.7868,-4.7886,-4.7868,-4.7847,-4.7762,-4.7699,-4.2417,-4.2365,-4.1457,-4.0916,-4.0668,-4.0668,-4.0668,-4.0668,-4.0668,-4.0402,-4.0001,-3.9534,-3.911,-3.8715,-3.8952,0.0,0.0,0.0,-4.1741,-4.219,-4.2569,-4.2772,-4.2756,-4.2756,-4.2927,-4.3204,-4.3204,-4.3325,-4.3615,-4.3615,-4.2846,-4.1421,0.0,0.0,-4.1494,-4.2327,-4.2972,-4.3256,-4.366,-4.3939,-4.4027,-4.4068,-4.4097,-4.408,-4.3361,-4.2629,-4.1838,-4.1086,-4.0141,-3.892,-3.822,-3.7527,0.0,0.0,0.0,0.0,0.0,0.0,0.0,0.0,0.0,0.0,0.0,-3.7052,-3.5876,0.0,0.0,0.0,-3.7698,-3.8808,-3.9265,-3.9812,0.0,0.0,0.0,0.0,0.0,0.0,0.0,-4.5276,-4.5108,-4.549,-4.6795,-4.7484,-4.8211,-4.9162,-4.8954,-4.8595,-4.8291,0.0,-4.7882,-4.8385,-4.8897,-4.9333,-4.9639,-5.0033,-4.9941,-4.8929,-4.838,-4.7913,-4.7405,-4.7298,-4.7341,-4.7389,-4.7407,-4.7446,-4.7533,-4.7533,-4.7575,-4.7678,-4.7699,-4.7699,-4.7699,-4.7699,-4.7699,-4.2378,-4.2252,-4.1017,-4.0106,-3.9499,-3.9403,-3.9388,-3.9388,-3.9424,-3.9388,-3.9388,-3.9388,-3.9405,-3.9404,-4.0008,0.0,-4.0318,-4.1077,-4.1426,-4.1426,-4.1444,-4.1492,-4.1492,-4.1492,-4.1852,-4.2522,-4.2522,-4.2851,-4.3386,-4.3402,-4.3116,-4.253,-4.2514,-4.2526,-4.2506,-4.2539,-4.2903,-4.3565,-4.3598,-4.3687,-4.3868,-4.3998,-4.4068,-4.4051,-4.3299,-4.249,-4.1683,-4.09,-4.0113,-3.9342,-3.8707,-3.806,-3.7378,0.0,0.0,0.0,0.0,0.0,0.0,0.0,0.0,0.0,0.0,0.0,0.0,0.0,0.0,0.0,-3.8891,0.0,-3.9464,-4.058,0.0,0.0,0.0,-4.3365,-4.3415,-4.4041,-4.4625,-4.5135,0.0,0.0,-4.6247,0.0,-4.7638,-4.891,-4.9138,-4.8978,-4.8306,-4.8166,-4.8235,-4.8217,-4.8398,-4.8717,-4.918,-4.8843,-4.8232,-4.7545,-4.7258,-4.7294,-4.7276,-4.7276,-4.7276,-4.7298,-4.7298,-4.7298,-4.7298,-4.732,-4.7385,-4.7615,-4.7657,-4.7657,-4.7636,-4.7657,-4.7657,-4.2332,-4.1858,-4.1509,-4.0916,-4.0127,-3.9634,-3.9388,-3.9388,-3.9388,-3.9388,-3.9388,-3.9388,-3.932,-3.9176,-3.9182,-3.9288,-3.9445,-4.0159,-4.0566,-4.0786,-4.126,-4.1492,-4.1492,-4.1492,-4.1591,-4.1754,-4.1754,-4.1868,-4.1981,-4.1981,-4.2189,-4.2559,-4.259,-4.2542,-4.2539,-4.3052,-4.3416,-4.3598,-4.3615,-4.3611,-4.3674,-4.3717,-4.3717,-4.3717,-4.2439,-4.1676,-4.1465,-4.0281,-3.9508,-3.9282,-3.8619,-3.8164,-3.7998,-3.6099,0.0,0.0,0.0,0.0,0.0,0.0,0.0,0.0,0.0,-3.9073,-3.7268,0.0,-3.9431,0.0,-3.9199,-3.9746,-4.0796,-4.0746,0.0,0.0,-4.2518,-4.292,-4.3485,-4.3702,-4.386,-4.3989,-4.3889,-4.4315,-4.5665,-4.593,-4.6302,-4.7056,-4.7908,-4.8413,-4.8199,-4.7668,-4.7311,-4.7405,-4.7875,-4.8107,-4.7755,-4.75,-4.7303,-4.7106,-4.707,-4.707,-4.707,-4.707,-4.7093,-4.7201,-4.7223,-4.7227,-4.7298,-4.7298,-4.732,-4.7385,-4.7385,-4.7385,-4.7385,-4.7385,-4.7446,-4.2467,-4.2128,-4.1808,-4.1257,-4.0523,-3.9832,-3.9423,-3.9141,-3.9141,-3.9141,-3.9141,-3.9141,-3.9053,-3.8943,-3.8855,-3.8855,-3.898,-3.94,-3.9636,-3.9763,-4.0135,-4.0328,-4.0413,-4.0413,-4.0653,-4.1075,-4.106,-4.1227,-4.1492,-4.1492,-4.1689,-4.2094,-4.211,-4.2092,-4.2111,-4.3098,-4.3615,-4.3615,-4.3615,-4.3615,-4.3598,-4.3267,-4.3118,-4.3069,-4.1993,-4.1397,-4.1392,-4.0348,-3.9796,-3.9763,-3.91,-3.8692,-3.8659,-3.6887,-3.588,0.0,0.0,0.0,0.0,0.0,0.0,0.0,0.0,0.0,0.0,0.0,-4.0233,-4.0233,-4.0531,-4.1044,-4.1794,-4.1856,-4.2154,-4.2903,-4.2986,-4.3151,-4.3565,-4.3615,-4.3615,-4.3615,-4.3615,-4.3879,-4.4612,-4.4951,-4.5218,-4.5579,-4.636,-4.7015,-4.7257,-4.7109,-4.6998,-4.7015,-4.7395,-4.7538,-4.7074,-4.6998,-4.6998,-4.6998,-4.6998,-4.6998,-4.6998,-4.6998,-4.702,-4.7088,-4.7129,-4.7151,-4.7143,-4.7165,-4.7165,-4.7165,-4.7165,-4.7209,-4.7298,-4.7298,-4.7323,-4.2622,-4.2563,-4.2019,-4.1357,-4.0674,-4.0077,-3.9437,-3.8782,-3.8782,-3.8782,-3.8782,-3.876,-3.8745,-3.876,-3.8745,-3.8745,-3.8745,-3.8745,-3.8797,-3.8782,-3.8782,-3.8907,-3.9053,-3.9068,-3.9472,-4.027,-4.0305,-4.06,-4.1178,-4.1178,-4.1245,-4.136,-4.136,-4.1393,-4.1558,-4.271,-4.3342,-4.3342,-4.3432,-4.3462,-4.3462,-4.2835,-4.2505,-4.2472,-4.1721,-4.1235,-4.112,-4.0588,-4.0226,-4.0127,-3.9616,-3.927,-3.9171,-3.794,-3.7219,0.0,-3.6571,0.0,0.0,0.0,0.0,0.0,0.0,0.0,0.0,-4.0965,-4.1412,-4.1415,-4.2076,-4.2534,-4.2638,-4.3218,-4.3615,-4.3615,-4.3615,-4.3615,-4.3615,-4.3615,-4.3615,-4.3615,-4.3615,-4.3615,-4.3691,-4.4064,-4.4406,-4.4497,-4.4934,-4.5494,-4.5912,-4.6495,-4.6865,-4.6906,-4.6975,-4.7069,-4.6998,-4.6998,-4.6998,-4.6998,-4.6998,-4.6998,-4.6998,-4.6998,-4.6998,-4.702,-4.702,-4.702,-4.6998,-4.702,-4.702,-4.702,-4.7002,-4.707,-4.7209,-4.7254,-4.7276,-4.2201,-4.2201,-4.2085,-4.1328,-4.0222,-4.0105,-3.9569,-3.8782,-3.8782,-3.8782,-3.8782,-3.8612,-3.8553,-3.8553,-3.8389,-3.8389,-3.8553,-3.8553,-3.8649,-3.8782,-3.8782,-3.8833,-3.887,-3.8855,-3.8965,-3.9111,-3.9147,-3.9292,-3.9565,-3.9529,-3.9955,-4.0668,-4.0684,-4.0959,-4.1492,0.0,0.0,0.0,-4.2475,-4.2789,-4.2772,-4.2642,-4.2561,-4.2545,-4.1291,0.0,-3.9812,-3.9606,-3.9304,-3.884,-3.9129,0.0,0.0,0.0,0.0,0.0,0.0,0.0,0.0,0.0,0.0,0.0,-3.9094,-3.9371,-3.9517,-4.0706,-4.1469,-4.1508,-4.2154,-4.2808,-4.3324,-4.3515,-4.3615,-4.3615,-4.3615,-4.3615,-4.3615,-4.3615,-4.3615,-4.3615,-4.3615,-4.3615,-4.3628,-4.3717,-4.3789,-4.3848,-4.4276,-4.4652,-4.4818,-4.5717,-4.6332,-4.6398,-4.6725,-4.698,-4.6998,-4.6998,-4.6998,-4.6998,-4.6998,-4.6998,-4.6998,-4.6998,-4.6998,-4.6998,-4.6998,-4.6998,-4.6998,-4.6998,-4.6998,-4.6998,-4.698,-4.702,-4.7048,-4.703,-4.7093,-4.2092,0.0,-4.2092,-4.1512,0.0,-4.0234,-3.9683,-3.8954,-3.8633,-3.8486,-3.8501,-3.8389,-3.8366,-3.8352,-3.824,-3.8277,-3.8366,-3.8352,-3.8404,-3.8486,-3.8486,-3.8575,-3.8649,-3.8649,-3.8686,-3.8782,-3.8782,-3.887,-3.8943,-3.8929,-3.9184,-3.9672,-3.9657,-3.9819,-4.0154,-4.0274,-4.0721,-4.1492,-4.1868,-4.2045,-4.2045,-4.1709,-4.1357,-4.1006,0.0,0.0,0.0,0.0,0.0,0.0,0.0,0.0,0.0,0.0,0.0,-3.7888,-3.751,-3.7473,-3.781,-3.8117,-3.8476,-3.8872,-3.9074,-3.9395,-3.9818,-4.0844,-4.1514,-4.1502,-4.1853,-4.2349,-4.3005,-4.3096,-4.3251,-4.3539,-4.3615,-4.3615,-4.3615,-4.3615,-4.3615,-4.3615,-4.3615,-4.3615,-4.3615,-4.3615,-4.3615,-4.3628,-4.3848,-4.4047,-4.4162,-4.5045,-4.5827,-4.6161,-4.6678,-4.6998,-4.6998,-4.6998,-4.6998,-4.6998,-4.6998,-4.6998,-4.6998,-4.6998,-4.6998,-4.6998,-4.6998,-4.6998,-4.6998,-4.6998,-4.6998,-4.6944,-4.6676,-4.6427,-4.6409,-4.6391,-4.6288,-4.2092,-4.2092,-4.2092,-4.1715,-4.1047,-4.0379,-3.9697,-3.8986,0.0,0.0,0.0,-3.8202,-3.8202,-3.8202,-3.8202,-3.8202,-3.8202,-3.8202,-3.8202,-3.8202,-3.8202,-3.8277,-3.8441,-3.8427,-3.8501,-3.8686,-3.8686,-3.8708,-3.876,-3.8745,-3.8745,-3.8782,-3.8782,-3.8782,-3.8819,-3.8958,-3.9707,-4.0977,-4.1227,-4.1294,-4.1245,-4.0695,-4.0099,-3.9456,-3.9297,-3.8858,-3.8199,-3.8733,-3.8998,-3.8905,-3.8951,-3.8935,-3.8873,-3.8467,-3.8203,-3.8144,-3.779,-3.7764,-3.8162,-3.8402,-3.874,-3.9271,-3.9141,-3.936,-4.01,-4.0683,-4.1093,-4.1211,-4.1211,-4.1525,-4.2237,-4.2427,-4.271,-4.3248,-4.3432,-4.3509,-4.3509,-4.3539,-4.3539,-4.3539,-4.3539,-4.3539,-4.3492,-4.3492,-4.3522,-4.3568,-4.3552,-4.3522,-4.3654,-4.4468,-4.5372,-4.592,-4.6429,-4.6842,-4.6865,-4.6957,-4.698,-4.6998,-4.6998,-4.6998,-4.6998,-4.6998,-4.6998,-4.6998,-4.6998,-4.6998,-4.6998,-4.6837,-4.6783,-4.6766,-4.6141,-4.5534,-4.5427,-4.5392,-4.5231,-4.2092,-4.2092,-4.2092,-4.1715,-4.1047,-4.0379,-3.9436,-3.8347,-3.8231,-3.8202,-3.8202,-3.8202,-3.8202,-3.8202,-3.8202,-3.8202,-3.8202,-3.8202,-3.8202,0.0,-3.8202,-3.8202,-3.824,-3.824,-3.824,-3.8277,-3.8277,-3.8352,-3.8516,-3.8553,-3.8627,-3.8782,-3.8782,-3.8782,-3.8782,-3.8833,-3.8965,-3.9205,-4.0165,-4.0547,-4.0374,-4.0439,-4.0171,-3.9504,-3.8869,-3.7967,-3.6821,-3.7364,-3.7439,-3.6941,-3.7409,-3.7454,-3.6957,-3.7293,-3.7301,-3.6899,-3.7713,-3.7978,-3.7367,-3.8332,-3.8964,-3.8892,-3.887,-3.8957,-3.9245,-3.9218,-3.9427,-4.003,-4.0135,-4.0416,-4.1066,-4.1691,-4.2078,-4.2269,-4.2787,-4.3174,-4.3127,-4.3295,-4.3325,-4.3204,-4.3342,-4.3342,-4.3235,-4.3204,-4.3265,-4.3372,-4.3295,-4.3174,-4.3355,-4.4001,-4.4773,-4.5372,-4.5928,-4.6284,-4.6308,-4.6725,-4.6842,-4.6998,-4.6934,-4.6934,-4.6957,-4.6957,-4.6939,-4.6962,-4.6886,-4.6886,-4.685,-4.6409,-4.607,-4.5945,-4.5338,-4.4621,-4.4121,-4.3964,-4.3996,-4.2092,-4.2092,-4.2092,-4.1932,-4.1555,-4.0539,-3.9363,-3.8231,-3.8202,-3.8202,-3.8202,-3.8202,-3.8202,-3.8202,-3.8202,-3.8202,-3.8202,-3.8202,-3.8202,-3.8202,-3.8202,-3.8202,-3.8202,-3.8202,-3.8202,-3.8202,-3.8202,-3.824,-3.8329,-3.8366,-3.8389,-3.8449,-3.8501,-3.8464,-3.8501,-3.8575,-3.8575,-3.8486,-3.9205,-3.9529,-3.9457,-3.9529,-3.9264,-3.8587,-3.8236,-3.7643,-3.6724,-3.7287,-3.7347,-3.6738,-3.7352,-3.7198,-3.6268,-3.6461,-3.6476,-3.6238,-3.6728,-3.7164,-3.7488,-3.836,-3.8907,-3.8833,-3.8671,-3.8686,-3.876,-3.8797,-3.8929,-3.9262,-3.9313,-3.9591,-4.0263,-4.0675,-4.0997,-4.1365,-4.1723,-4.2062,-4.2443,-4.2584,-4.2756,-4.3035,-4.319,-4.3204,-4.3096,-4.3096,-4.3096,-4.3204,-4.3143,-4.3096,-4.3096,-4.3443,-4.3956,-4.4518,-4.5074,-4.5416,-4.5451,-4.563,-4.59,-4.6133,-4.6321,-4.6507,-4.6708,-4.6754,-4.66,-4.6262,-4.6081,-4.5863,-4.5648,-4.5267,-4.5063,-4.5066,-4.4531,-4.3889,-4.3551,-4.3176,-4.3001,-4.2092,-4.2092,-4.2092,-4.2005,-4.1758,-4.0612,-3.9465,-3.8449,-3.8275,-3.8202,-3.8202,-3.8202,-3.8202,-3.8202,-3.8202,-3.8202,-3.8202,-3.8202,-3.8202,-3.8202,-3.8202,-3.8202,-3.8202,-3.8202,-3.8202,-3.8202,-3.8202,-3.8202,-3.8202,-3.8202,-3.8202,-3.8202,-3.8202,-3.8202,-3.8202,-3.8352,-3.8366,-3.824,-3.8486,-3.8671,-3.8723,-3.8797,-3.8487,-3.7883,-3.7824,-3.7493,-3.6904,-3.7302,-3.7346,-3.6919,-3.7249,-3.6989,-3.5981,-3.5745,-3.5745,-3.5878,-3.604,-3.6654,-3.7855,-3.8392,-3.8686,-3.8686,-3.8516,-3.8441,-3.8441,-3.8575,-3.8686,-3.8671,-3.8671,-3.8914,-3.9406,-3.9697,-3.9964,-4.0458,-4.0712,-4.1049,-4.1528,-4.1788,-4.2109,-4.2679,-4.2912,-4.3052,-4.299,-4.299,-4.299,-4.2959,-4.3021,-4.3068,-4.3021,-4.2974,-4.3218,-4.3647,-4.4204,-4.4633,-4.4644,-4.479,-4.5022,-4.5321,-4.5502,-4.5757,-4.6024,-4.6052,-4.5785,-4.5192,-4.4887,-4.4624,-4.4207,-4.4021,-4.4001,-4.4063,-4.3535,-4.3042,-4.2953,-4.2562,-4.2216,-4.2092,-4.2092,-4.2092,-4.1729,-4.1163,-4.0408,-3.9726,-3.9059,-3.8463,-3.8202,-3.8202,-3.8202,-3.8202,-3.8202,-3.8202,-3.8202,-3.8202,-3.8202,-3.8202,-3.8202,-3.8202,-3.8202,-3.8202,-3.8202,-3.8202,-3.8202,-3.8202,-3.8202,-3.8202,-3.8202,-3.8202,-3.8202,-3.8202,-3.8202,-3.8202,-3.824,-3.824,-3.8202,-3.824,-3.8366,-3.8516,-3.8708,-3.8472,-3.7853,-3.7803,-3.7479,-3.6899,-3.6875,-3.6855,-3.6787,-3.6374,-3.6055,-3.5863,-3.5329,-3.527,-3.5893,-3.6497,-3.7275,-3.8252,-3.8323,-3.8277,-3.824,-3.824,-3.824,-3.824,-3.8277,-3.8277,-3.8277,-3.8277,-3.8352,-3.8375,-3.8972,-3.9341,-3.9469,-3.9984,-4.0485,-4.0607,-4.1295,-4.1771,-4.1656,-4.2301,-4.2821,-4.2618,-4.2649,-4.2665,-4.2696,-4.2821,-4.2868,-4.2759,-4.2711,-4.2728,-4.2912,-4.3453,-4.3963,-4.4078,-4.4495,-4.4593,-4.4729,-4.4854,-4.4875,-4.4827,-4.4475,-4.401,-4.3861,-4.361,-4.3343,-4.3228,-4.3156,-4.2891,-4.2763,-4.2351,-4.1807,-4.1793,-4.1701,-4.1657,-4.2092,-4.2092,-4.2092,-4.1715,-4.1091,-4.08,-4.0118,-3.9204,-3.8913,-3.858,-3.8231,-3.8202,-3.8202,-3.8202,-3.8202,-3.8202,-3.8202,-3.8202,-3.8202,-3.8202,-3.8202,-3.8202,-3.8202,-3.8202,-3.8202,-3.8202,-3.8202,-3.8202,-3.8202,-3.8202,-3.8202,-3.8202,-3.8202,-3.8202,-3.8202,-3.8202,-3.8202,-3.8202,-3.8202,-3.824,-3.8315,-3.8389,-3.8295,-3.8076,-3.8047,-3.7916,-3.7667,-3.7638,-3.7478,-3.7127,-3.685,-3.6389,-3.5629,-3.5667,-3.5842,-3.6164,-3.7098,-3.785,-3.8285,-3.824,-3.8202,-3.8202,-3.8202,-3.8202,-3.8202,-3.8202,-3.8202,-3.8202,-3.8202,-3.8202,-3.824,-3.8472,-3.8657,-3.8694,-3.8921,-3.9284,-3.9733,-4.0069,-4.0416,-4.0792,-4.1178,-4.1591,-4.1948,-4.2317,-4.2571,-4.2602,-4.2665,-4.2681,-4.2602,-4.2602,-4.2602,-4.2665,-4.2974,-4.3141,-4.3216,-4.3303,-4.346,-4.3404,-4.3452,-4.3552,-4.3345,-4.3153,-4.2805,-4.2354,-4.2057,-4.1725,-4.1313,-4.1275,-4.1154,-4.1222,-4.1201,-4.0791,-4.0666,-4.0744,-4.0838,-4.2092,-4.2092,-4.2092,-4.1816,-4.1366,-4.1178,-4.0466,-3.9494,-3.9276,-3.8826,-3.8231,-3.8202,-3.8202,-3.8202,-3.8202,-3.8202,-3.8202,-3.8202,-3.8202,-3.8202,-3.8202,-3.8202,-3.8202,-3.8202,-3.8202,-3.8202,-3.8202,-3.8202,-3.8202,-3.8202,-3.8202,-3.8202,-3.8202,-3.8202,-3.8202,-3.8202,-3.8202,-3.8202,-3.8202,-3.8202,-3.8202,-3.8202,-3.8202,-3.8202,-3.8202,-3.8202,-3.8202,-3.8202,-3.8014,-3.7578,-3.7404,-3.6896,-3.6031,-3.617,-3.6388,-3.6635,-3.7593,-3.8202,-3.8202,-3.8202,-3.8202,-3.8202,-3.8202,-3.8202,-3.8202,-3.8202,-3.8202,-3.8202,-3.8202,-3.8202,-3.8202,-3.8202,-3.8202,-3.8202,-3.8202,-3.8449,-3.8936,-3.9139,-3.9555,-4.0015,-4.0397,-4.0588,-4.1129,-4.1803,-4.2254,-4.2254,-4.246,-4.2602,-4.2602,-4.2602,-4.2602,-4.2602,-4.2602,-4.2634,-4.2602,-4.2711,-4.2496,-4.222,-4.2343,-4.2327,-4.1877,-4.1703,-4.1496,-4.0906,-4.0544,-4.0327,-4.0176,-3.9926,-3.9961,-4.0044,-4.0102,-4.0069,-4.0053,-4.0044,-4.0044,-4.2092,-4.2092,-4.2092,-4.2063,-4.2005,-4.1395,-4.0713,-3.9958,-3.9465,-3.8841,-3.826,-3.8202,-3.8202,-3.8202,-3.8202,-3.8202,-3.8202,-3.8202,-3.8202,-3.8202,-3.8202,-3.8202,-3.8202,-3.8202,-3.8202,-3.8202,-3.8202,-3.8202,-3.8202,-3.8202,-3.8202,-3.8202,-3.8202,-3.8202,-3.8202,-3.8202,-3.8202,-3.8202,-3.8202,-3.8202,-3.8202,-3.8202,-3.8202,-3.8202,-3.8202,-3.8202,-3.8202,-3.8202,-3.8173,-3.8159,-3.7636,-3.7288,-3.7143,-3.6649,-3.662,-3.7244,-3.7839,-3.8202,-3.8202,-3.8202,-3.8202,-3.8202,-3.8202,-3.8202,-3.8202,-3.8202,-3.8202,-3.8202,-3.8202,-3.8202,-3.8202,-3.8202,-3.8202,-3.8202,-3.8202,-3.824,-3.8277,-3.8863,-3.9247,-3.9463,-3.9909,-4.0278,-4.0451,-4.1111,-4.1525,-4.1738,-4.2158,-4.2571,-4.2602,-4.2602,-4.2602,-4.2602,-4.2602,-4.2602,-4.2602,-4.2602,-4.2326,-4.1831,-4.1529,-4.1387,-4.0713,-4.0144,-3.9829,-3.9601,-3.9429,-3.9281,-3.9197,-3.9276,-3.947,-3.9568,-3.9568,-3.9532,-3.9428,-3.9558,-3.9532,-4.2092,-4.2092,-4.2092,-4.2092,-4.2063,-4.1831,-4.112,-4.0104,-3.9871,-3.9175,-3.8318,-3.8202,-3.8202,-3.8202,-3.8202,-3.8202,-3.8202,-3.8202,-3.8202,-3.8202,-3.8202,-3.8202,-3.8202,-3.8202,-3.8202,-3.8202,-3.8202,-3.8202,-3.8202,-3.8202,-3.8202,-3.8202,-3.8202,-3.8202,-3.8202,-3.8202,-3.8202,-3.8202,-3.8202,-3.8202,-3.8202,-3.8202,-3.8202,-3.8202,-3.8202,-3.8202,-3.8202,-3.8202,-3.8202,-3.8202,-3.7984,-3.7709,-3.7331,-3.7085,-3.723,-3.781,-3.8086,-3.8202,-3.8202,-3.8202,-3.8202,-3.8202,-3.8202,-3.8202,-3.8202,-3.8202,-3.8202,-3.8202,-3.8202,-3.8202,-3.8202,-3.8202,-3.8202,-3.8202,-3.8202,-3.8202,-3.824,-3.8449,-3.8583,-3.8694,-3.9247,-3.9682,-3.9824,-4.0347,-4.0977,-4.1426,-4.1738,-4.2061,-4.2492,-4.2602,-4.2571,-4.2602,-4.2602,-4.2602,-4.2602,-4.2602,-4.2295,-4.1371,-4.0799,-4.0245,-3.9586,-3.9262,-3.8947,-3.8991,-3.8742,-3.8704,-3.8766,-3.8777,-3.898,-3.8952,-3.8952,-3.9007,-3.8832,-3.9007,-3.8952,-4.2092,-4.2092,-4.2092,-4.2092,-4.2092,-4.2092,-4.1323,-4.0162,-4.0089,-3.9378,-3.8362,-3.8202,-3.8202,-3.8202,-3.8202,-3.8202,-3.8202,-3.8202,-3.8202,-3.8202,-3.8202,-3.8202,-3.8202,-3.8202,-3.8202,-3.8202,-3.8202,-3.8202,-3.8202,-3.8202,-3.8202,-3.8202,-3.8202,-3.8202,-3.8202,-3.8202,-3.8202,-3.8202,-3.8202,-3.8202,-3.8202,-3.8202,-3.8202,-3.8202,-3.8202,-3.8202,-3.8202,-3.8202,-3.8202,-3.8202,-3.8202,-3.8014,-3.7636,-3.7607,-3.7767,-3.8144,-3.8202,-3.8202,-3.8202,-3.8202,-3.8202,-3.8202,-3.8202,-3.8202,-3.8202,-3.8202,-3.8202,-3.8202,-3.8202,-3.8202,-3.8202,-3.8202,-3.8202,-3.8202,-3.8202,-3.8202,-3.8202,-3.8202,-3.824,-3.83,-3.862,-3.8884,-3.903,-3.9626,-4.0189,-4.074,-4.0961,-4.1393,-4.1754,-4.211,-4.2254,-4.2285,-4.246,-4.2571,-4.2505,-4.2376,-4.1905,-4.0998,-4.0559,-3.9719,-3.8942,-3.857,-3.8391,-3.8391,-3.8391,-3.8391,-3.8391,-3.8391,-3.8391,-3.8391,-3.8504,-3.8628,-3.8532,-3.8448,-3.8532,-4.2092,-4.2092,-4.2092,-4.2092,-4.2092,-4.2092,-4.1337,-4.0234,-4.0104,-3.9392,-3.8289,-3.8202,-3.8202,-3.8202,-3.8202,-3.8202,-3.8202,-3.8202,-3.8202,-3.8202,-3.8202,-3.8202,-3.8202,-3.8202,-3.8202,-3.8202,-3.8202,-3.8202,-3.8202,-3.8202,-3.8202,-3.8202,-3.8202,-3.8202,-3.8202,-3.8202,-3.8202,-3.8202,-3.8202,-3.8202,-3.8202,-3.8202,-3.8202,-3.8202,-3.8202,-3.8202,-3.8202,-3.8202,-3.8202,-3.8202,-3.8202,-3.8202,-3.813,-3.813,-3.8188,-3.8188,-3.8202,-3.8202,-3.8202,-3.8202,-3.8202,-3.8202,-3.8202,-3.8202,-3.8202,-3.8202,-3.8202,-3.8202,-3.8202,-3.8202,-3.8202,-3.8202,-3.8202,-3.8202,-3.8202,-3.8202,-3.8202,-3.8202,-3.8202,-3.8202,-3.83,-3.824,-3.8375,-3.8863,-3.9391,-3.9626,-4.0034,-4.0485,-4.0724,-4.1178,-4.1459,-4.1705,-4.1997,-4.2285,-4.2233,-4.2051,-4.1338,-4.0658,-4.0399,-3.9865,-3.8942,-3.8391,-3.8391,-3.8391,-3.8391,-3.8391,-3.8391,-3.8391,-3.8391,-3.8391,-3.8391,-3.8391,-3.8391,-3.8391,-3.8391,-4.2092,-4.2092,-4.2092,-4.2092,-4.2092,-4.2092,-4.1337,-4.0147,-4.0104,-3.9378,-3.8362,-3.8202,-3.8202,-3.8202,-3.8202,-3.8202,-3.8202,-3.8202,-3.8202,-3.8202,-3.8202,-3.8202,-3.8202,-3.8202,-3.8202,-3.8202,-3.8202,-3.8202,-3.8202,-3.8202,-3.8202,-3.8202,-3.8202,-3.8202,-3.8202,-3.8202,-3.8202,-3.8202,-3.8202,-3.8202,-3.8202,-3.8202,-3.8202,-3.8202,-3.8202,-3.8202,-3.8202,-3.8202,-3.8202,-3.8202,-3.8202,-3.8202,-3.8202,-3.8202,-3.8202,-3.8202,-3.8202,-3.8202,-3.8202,-3.8202,-3.8202,-3.8202,-3.8202,-3.8202,-3.8202,-3.8202,-3.8202,-3.8202,-3.8202,-3.8202,-3.8202,-3.8202,-3.8202,-3.8202,-3.8202,-3.8202,-3.8202,-3.8202,-3.8202,-3.8202,-3.8202,-3.8202,-3.824,-3.8509,-3.8752,-3.9175,-3.9484,-3.9753,-4.0278,-4.0485,-4.101,-4.1426,-4.1739,-4.1837,-4.1707,-4.146,-4.0877,-4.0337,-4.0043,-3.9719,-3.8861,-3.8391,-3.8391,-3.8391,-3.8391,-3.8391,-3.8391,-3.8391,-3.8391,-3.8391,-3.8391,-3.8391,-3.8391,-3.8391,-3.8391,-4.2092,-4.2092,-4.2092,-4.2092,-4.2092,-4.2092,-4.1337,-4.0205,-4.0104,-3.9378,-3.8376,-3.8202,-3.8202,-3.8202,-3.8202,-3.8202,-3.8202,-3.8202,-3.8202,-3.8202,-3.8202,-3.8202,-3.8202,-3.8202,-3.8202,-3.8202,-3.8202,-3.8202,-3.8202,-3.8202,-3.8202,-3.8202,-3.8202,-3.8202,-3.8202,-3.8202,-3.8202,-3.8202,-3.8202,-3.8202,-3.8202,-3.8202,-3.8202,-3.8202,-3.8202,-3.8202,-3.8202,-3.8202,-3.8202,-3.8202,-3.8202,-3.8202,-3.8202,-3.8202,-3.8202,-3.8202,-3.8202,-3.8202,-3.8202,-3.8202,-3.8202,-3.8202,-3.8202,-3.8202,-3.8202,-3.8202,-3.8202,-3.8202,-3.8202,-3.8202,-3.8202,-3.8202,-3.8202,-3.8202,-3.8202,-3.8202,-3.8202,-3.8202,-3.8202,-3.8202,-3.8202,-3.8202,-3.8202,-3.824,-3.8375,-3.8789,-3.8899,-3.8972,-3.952,-3.9804,-4.0278,-4.069,-4.0894,-4.1014,-4.1134,-4.0824,-4.0418,-3.9989,-3.9606,-3.9233,-3.8618,-3.8456,-3.8391,-3.8391,-3.8391,-3.8391,-3.8391,-3.8391,-3.8391,-3.8391,-3.8391,-3.8391,-3.8391,-3.8391,-3.8391,-4.2092,-4.2092,-4.2092,-4.2092,-4.2092,-4.2092,-4.1395,-4.0307,-4.0104,-3.9421,-3.8478,-3.8246,-3.8202,-3.8202,-3.8202,-3.8202,-3.8202,-3.8202,-3.8202,-3.8202,-3.8202,-3.8202,-3.8202,-3.8202,-3.8202,-3.8202,-3.8202,-3.8202,-3.8202,-3.8202,-3.8202,-3.8202,-3.8202,-3.8202,-3.8202,-3.8202,-3.8202,-3.8202,-3.8202,-3.8202,-3.8202,-3.8202,-3.8202,-3.8202,-3.8202,-3.8202,-3.8202,-3.8202,-3.8202,-3.8202,-3.8202,-3.8202,-3.8202,-3.8202,-3.8202,-3.8202,-3.8202,-3.8202,-3.8202,-3.8202,-3.8202,-3.8202,-3.8202,-3.8202,-3.8202,-3.8202,-3.8179,-3.8165,-3.8165,-3.8202,-3.8165,-3.8202,-3.8202,-3.8202,-3.8202,-3.8202,-3.8202,-3.8202,-3.8202,-3.8202,-3.8202,-3.8202,-3.8202,-3.8202,-3.824,-3.8277,-3.8315,-3.8412,-3.8523,-3.8936,-3.9182,-3.9536,-3.991,-3.9988,-4.0053,-3.9598,-3.9216,-3.9326,-3.8991,-3.8689,-3.8541,-3.8472,-3.8391,-3.8391,-3.8391,-3.8391,-3.8391,-3.8391,-3.8391,-3.8391,-3.8391,-3.8391,-3.8391,-3.8391,-3.8391,-4.2092,-4.2092,-4.2092,-4.2092,-4.2092,-4.2092,-4.1628,-4.0815,-4.0292,-3.9654,-3.8942,-3.8405,-3.8202,-3.8202,-3.8202,-3.8202,-3.8202,-3.8202,-3.8202,-3.8202,-3.8202,-3.8202,-3.8202,-3.8202,-3.8202,-3.8202,-3.8202,-3.8202,-3.8202,-3.8202,-3.8202,-3.8202,-3.8202,-3.8202,-3.8202,-3.8202,-3.8202,-3.8202,-3.8202,-3.8202,-3.8202,-3.8202,-3.8202,-3.8202,-3.8202,-3.8202,-3.8202,-3.8202,-3.8202,-3.8202,-3.8202,-3.8202,-3.8202,-3.8202,-3.8202,-3.8202,-3.8202,-3.8202,-3.8202,-3.8202,-3.8202,-3.8202,-3.8202,-3.8202,-3.8202,-3.8202,-3.8142,-3.8066,-3.8104,-3.8127,-3.8028,-3.8104,-3.8165,-3.8202,-3.8165,-3.8165,-3.8202,-3.8202,-3.8202,-3.8202,-3.8202,-3.8202,-3.8202,-3.8202,-3.8202,-3.8202,-3.8202,-3.8202,-3.8277,-3.8337,-3.8686,-3.8639,-3.8847,-3.891,-3.8787,-3.8334,-3.8153,-3.8414,-3.8305,-3.8097,-3.8184,-3.8424,-3.8391,-3.8391,-3.8391,-3.8391,-3.8391,-3.8391,-3.8391,-3.8391,-3.8391,-3.8391,-3.8391,-3.8391,-3.8391,-4.2092,-4.2092,-4.2092,-4.2092,-4.2092,-4.2092,-4.1729,-4.1062,-4.0394,-3.9755,-3.916,-3.8507,-3.8202,-3.8202,-3.8202,-3.8202,-3.8202,-3.8202,-3.8202,-3.8202,-3.8202,-3.8202,-3.8202,-3.8202,-3.8202,-3.8202,-3.8202,-3.8202,-3.8202,-3.8202,-3.8202,-3.8202,-3.8202,-3.8202,-3.8202,-3.8202,-3.8202,-3.8202,-3.8202,-3.8202,-3.8202,-3.8202,-3.8202,-3.8202,-3.8202,-3.8165,-3.8104,-3.8066,-3.8104,-3.8179,-3.8202,-3.8202,-3.8202,-3.8202,-3.8202,-3.8202,-3.8202,-3.8202,-3.8202,-3.8202,-3.8202,-3.8165,-3.8142,-3.8066,-3.8066,-3.8028,-3.7877,-3.7815,-3.7967,-3.7991,-3.7967,-3.7991,-3.8066,-3.8066,-3.7991,-3.8014,-3.8165,-3.8142,-3.8104,-3.8066,-3.8066,-3.8066,-3.8104,-3.8127,-3.8202,-3.8202,-3.8202,-3.8202,-3.824,-3.8188,-3.8146,-3.8186,-3.8237,-3.8392,-3.842,-3.8083,-3.7606,-3.7762,-3.7527,-3.7344,-3.7799,-3.8177,-3.8363,-3.8335,-3.8363,-3.8391,-3.8391,-3.8391,-3.8391,-3.8391,-3.8391,-3.8391,-3.8391,-3.8335,-3.8335,-4.2092,-4.2092,-4.2092,-4.2092,-4.2092,-4.2078,-4.1787,-4.1163,-4.0554,-3.9987,-3.9421,-3.8667,-3.842,-3.8304,-3.8275,-3.8202,-3.8202,-3.8202,-3.8202,-3.8202,-3.8202,-3.8202,-3.8202,-3.8202,-3.8202,-3.8202,-3.8202,-3.8202,-3.8202,-3.8202,-3.8202,-3.8202,-3.8202,-3.8202,-3.8202,-3.8202,-3.8202,-3.8202,-3.8202,-3.8202,-3.8202,-3.8202,-3.8202,-3.8202,-3.8127,-3.8028,-3.7915,-3.7891,-3.7929,-3.8127,-3.8142,-3.8089,-3.8127,-3.8127,-3.8127,-3.8052,-3.7976,-3.7924,-3.8052,-3.7962,-3.8014,-3.8028,-3.7953,-3.7891,-3.7853,-3.7725,-3.7558,-3.7289,-3.761,-3.7534,-3.7366,-3.7558,-3.7634,-3.761,-3.7572,-3.7801,-3.7991,-3.7991,-3.7853,-3.7891,-3.7853,-3.7853,-3.7929,-3.8028,-3.8165,-3.7976,-3.8014,-3.8066,-3.8028,-3.7976,-3.7936,-3.7862,-3.7945,-3.8033,-3.8022,-3.7957,-3.747,-3.7192,-3.6783,-3.6676,-3.728,-3.7709,-3.8103,-3.8278,-3.8262,-3.8307,-3.8391,-3.8391,-3.8363,-3.8391,-3.8391,-3.8391,-3.8363,-3.8234,-3.8205,-4.2092,-4.2092,-4.2092,-4.2092,-4.2092,-4.2092,-4.2005,-4.1802,-4.1149,-4.0728,-4.0423,-3.9494,-3.9,-3.8928,-3.8478,-3.8202,-3.8217,-3.8202,-3.8202,-3.8202,-3.8202,-3.8202,-3.8202,-3.8202,-3.8202,-3.8202,-3.8202,-3.8202,-3.8202,-3.8202,-3.8202,-3.8202,-3.8202,-3.8202,-3.8202,-3.8202,-3.8202,-3.8202,-3.8202,-3.8202,-3.8202,-3.8165,-3.8165,-3.8142,-3.8028,-3.7839,-3.7725,-3.7663,-3.7701,-3.7725,-3.7687,-3.7634,-3.7763,-3.7877,-3.7877,-3.7596,-3.7222,-3.7183,-3.7481,-3.7144,-3.7028,-3.7519,-3.7481,-3.7663,-3.7663,-3.7495,-3.7081,-3.6638,-3.652,-3.6387,-3.6016,-3.6334,-3.6624,-3.6794,-3.7173,-3.7534,-3.7701,-3.7701,-3.7663,-3.7663,-3.7663,-3.7663,-3.7677,-3.7853,-3.7877,-3.7801,-3.7801,-3.7839,-3.7839,-3.7801,-3.7748,-3.7688,-3.7676,-3.7744,-3.7637,-3.744,-3.691,-3.645,-3.6022,-3.5899,-3.6492,-3.6889,-3.7161,-3.7637,-3.8103,-3.8177,-3.8234,-3.8335,-3.8319,-3.8363,-3.8363,-3.8335,-3.8262,-3.8148,-3.8017,-4.2092,-4.2092,-4.2092,-4.2092,-4.2092,-4.2092,-4.2092,-4.1961,-4.1381,-4.1091,-4.0887,-4.0017,-3.9479,-3.9189,-3.8826,-3.8536,-3.8246,-3.8202,-3.8202,-3.8202,-3.8202,-3.8202,-3.8202,-3.8202,-3.8202,-3.8202,-3.8202,-3.8202,-3.8202,-3.8202,-3.8202,-3.8202,-3.8202,-3.8202,-3.8202,-3.8202,-3.8202,-3.8202,-3.8202,-3.8202,-3.8202,-3.8104,-3.7991,-3.7953,-3.7801,-3.7663,-3.7495,-3.7457,-3.7419,-3.7264,-3.6964,-3.7003,-3.7495,-3.7701,-3.7495,-3.7003,-3.6716,-3.6334,-3.6294,-3.6016,-3.5896,-3.6348,-3.6281,-3.6201,-3.6162,-3.6122,-3.5843,-3.544,-3.5359,-3.5305,-3.5061,-3.5183,-3.5628,-3.6136,-3.6466,-3.6847,-3.7226,-3.738,-3.7457,-3.7457,-3.7457,-3.7457,-3.7495,-3.7663,-3.7701,-3.7649,-3.7649,-3.7725,-3.7763,-3.7725,-3.7653,-3.76,-3.7546,-3.7469,-3.7273,-3.6872,-3.6158,-3.5677,-3.5215,-3.5215,-3.5499,-3.5819,-3.6072,-3.6722,-3.7458,-3.7886,-3.7972,-3.8103,-3.8189,-3.8307,-3.8307,-3.8205,-3.8075,-3.7857,-3.7711,-4.2092,-4.2092,-4.2092,-4.2092,-4.2092,-4.2092,-4.2092,-4.2005,-4.1497,-4.1337,-4.112,-4.0539,-3.9944,-3.9436,-3.9204,-3.8812,-3.8362,-3.8202,-3.8202,-3.8202,-3.8202,-3.8202,-3.8202,-3.8202,-3.8202,-3.8202,-3.8202,-3.8202,-3.8202,-3.8202,-3.8202,-3.8202,-3.8202,-3.8202,-3.8202,-3.8202,-3.8202,-3.8202,-3.8202,-3.8202,-3.8165,-3.7991,-3.7763,-3.7289,-3.725,-3.6964,-3.6755,-3.6755,-3.6847,-3.6573,-3.587,-3.6136,-3.6794,-3.7289,-3.7056,-3.6255,-3.6056,-3.5669,-3.5142,-3.4856,-3.4733,-3.4828,-3.4761,-3.4665,-3.4665,-3.4678,-3.4472,-3.4223,-3.4098,-3.4098,-3.443,-3.443,-3.4733,-3.5224,-3.5413,-3.587,-3.6401,-3.6847,-3.6978,-3.7264,-3.7264,-3.7264,-3.7303,-3.7419,-3.7495,-3.7534,-3.7534,-3.7534,-3.7572,-3.761,-3.7515,-3.7501,-3.7463,-3.742,-3.7239,-3.6533,-3.5804,-3.5296,-3.4724,-3.4533,-3.4639,-3.4861,-3.5305,-3.6104,-3.6783,-3.7115,-3.7445,-3.7546,-3.7709,-3.8046,-3.8148,-3.8017,-3.7799,-3.7549,-3.7447,-4.2092,-4.2092,-4.2092,-4.2092,-4.2092,-4.2092,-4.2092,-4.2092,-4.1947,-4.1918,-4.1802,-4.1207,-4.051,-3.9944,-3.9378,-3.8841,-3.8333,-3.8202,-3.8202,-3.8202,-3.8202,-3.8202,-3.8202,-3.8202,-3.8202,-3.8202,-3.8127,-3.8089,-3.8127,-3.8202,-3.8165,-3.8202,-3.8165,-3.8165,-3.8127,-3.8202,-3.8,-3.7886,-3.7962,-3.8037,-3.7976,-3.7787,-3.7275,-3.652,-3.6427,-3.5923,-3.5346,-3.5575,-3.5615,-3.4843,-3.4609,-3.4678,-3.5129,-3.5803,-3.5896,-3.5602,-3.5142,-3.4678,-3.4223,-3.3691,-3.3817,-3.4181,-3.4223,-3.421,-3.421,-3.4168,-3.3733,-3.3237,-3.2704,-3.2326,-3.2283,-3.295,-3.3322,-3.3649,-3.4181,-3.465,-3.4979,-3.5521,-3.6189,-3.6598,-3.6808,-3.7056,-3.7187,-3.7226,-3.7264,-3.7303,-3.7303,-3.7264,-3.7264,-3.7264,-3.7236,-3.7289,-3.7366,-3.7337,-3.7271,-3.6344,-3.5534,-3.5127,-3.4561,-3.3868,-3.3931,-3.4079,-3.4562,-3.5242,-3.5725,-3.604,-3.6368,-3.6798,-3.698,-3.7115,-3.7399,-3.7725,-3.7431,-3.7118,-3.7119,-4.2092,-4.2092,-4.2092,-4.2092,-4.2092,-4.2092,-4.2092,-4.2092,-4.2092,-4.2092,-4.1889,-4.1381,-4.0713,-4.0075,-3.9465,-3.8841,-3.8347,-3.8202,-3.8202,-3.8202,-3.8202,-3.8202,-3.8165,-3.8202,-3.8202,-3.8075,-3.7796,-3.7567,-3.7567,-3.8,-3.7886,-3.7658,-3.7825,-3.7901,-3.7567,-3.7376,-3.7208,-3.7078,-3.7193,-3.7362,-3.7323,-3.7081,-3.6441,-3.607,-3.5736,-3.5318,-3.4719,-3.5196,-3.5237,-3.443,-3.3888,-3.3943,-3.4181,-3.4306,-3.4402,-3.4277,-3.4014,-3.3509,-3.3066,-3.2531,-3.2575,-3.2834,-3.2993,-3.295,-3.2938,-3.2864,-3.2821,-3.2413,-3.212,-3.1705,-3.1793,-3.212,-3.2488,-3.298,-3.3395,-3.3762,-3.4223,-3.4692,-3.5183,-3.5776,-3.6387,-3.673,-3.7017,-3.7056,-3.7095,-3.7095,-3.7095,-3.7056,-3.6978,-3.7056,-3.7095,-3.7109,-3.7187,-3.7187,-3.7088,-3.6368,-3.5543,-3.5043,-3.4506,-3.3782,-3.3431,-3.366,-3.3825,-3.4158,-3.4562,-3.5091,-3.5546,-3.6009,-3.6119,-3.6229,-3.6569,-3.6845,-3.6799,-3.6739,-3.6662,-4.2092,-4.2092,-4.2092,-4.2092,-4.2092,-4.2092,-4.2092,-4.2092,-4.2092,-4.2092,-4.199,-4.1395,-4.0728,-4.0031,-3.9334,-3.8681,-3.8202,-3.8202,-3.8089,-3.7848,-3.7848,-3.7886,-3.7924,-3.7962,-3.7962,-3.8089,-3.74,-3.6897,-3.7053,-3.7285,-3.7208,-3.7183,-3.7495,-3.7443,-3.6975,-3.6897,-3.6241,-3.5909,-3.5989,-3.6281,-3.6122,-3.5722,-3.5359,-3.5156,-3.5169,-3.4664,-3.3775,-3.4444,-3.4402,-3.3691,-3.3194,-3.3023,-3.3522,-3.3122,-3.2791,-3.2791,-3.2895,-3.2488,-3.1989,-3.1793,-3.1881,-3.2001,-3.1793,-3.1749,-3.1793,-3.2001,-3.1837,-3.1705,-3.1705,-3.1705,-3.1705,-3.1749,-3.2033,-3.2457,-3.2692,-3.2938,-3.3437,-3.3817,-3.3985,-3.4733,-3.5762,-3.6229,-3.6401,-3.7017,-3.7017,-3.7017,-3.7056,-3.7056,-3.6978,-3.7056,-3.7095,-3.7017,-3.7017,-3.7017,-3.6887,-3.6521,-3.5784,-3.5184,-3.459,-3.3908,-3.3543,-3.3382,-3.3493,-3.3652,-3.3928,-3.4423,-3.4857,-3.5172,-3.5272,-3.5452,-3.5785,-3.5959,-3.5913,-3.5959,-3.5943,-4.2092,-4.2092,-4.2092,-4.2092,-4.2092,-4.2092,-4.2092,-4.2092,-4.2092,-4.2092,-4.1961,-4.1352,-4.0655,-3.9871,-3.8826,-3.8333,-3.8217,-3.8052,-3.772,-3.7285,-3.7092,-3.7092,-3.7078,-3.7039,-3.7567,-3.7772,-3.7208,-3.6975,-3.6649,-3.6241,-3.6281,-3.6531,-3.6819,-3.6858,-3.6492,-3.6531,-3.632,-3.5507,-3.5386,-3.5251,-3.487,-3.4181,-3.3733,-3.3534,-3.345,-3.3164,-3.2618,-3.3152,-3.3152,-3.2326,-3.2045,-3.1913,-3.2001,-3.1957,-3.1837,-3.2077,-3.2413,-3.2618,-3.1869,-3.1705,-3.1705,-3.1705,-3.1705,-3.1705,-3.1705,-3.1705,-3.1705,-3.1705,-3.1705,-3.1705,-3.1705,-3.1705,-3.1793,-3.1869,-3.2077,-3.2033,-3.2283,-3.2938,-3.3109,-3.3437,-3.4402,-3.5061,-3.548,-3.6308,-3.6978,-3.6978,-3.6978,-3.694,-3.7017,-3.7056,-3.7095,-3.7017,-3.6978,-3.6978,-3.6936,-3.6581,-3.6089,-3.5428,-3.4823,-3.4183,-3.3754,-3.3459,-3.3276,-3.3472,-3.3681,-3.375,-3.4011,-3.4254,-3.4442,-3.471,-3.5008,-3.5073,-3.5073,-3.5106,-3.5317,-4.2092,-4.2092,-4.2092,-4.2092,-4.2092,-4.2092,-4.2092,-4.2092,-4.2092,-4.1874,-4.1453,-4.0829,-3.9987,-3.9035,-3.8362,-3.8217,-3.8127,-3.7734,-3.7323,-3.6766,-3.6478,-3.6439,-3.6858,-3.6897,-3.7208,-3.7169,-3.6596,-3.5776,-3.5655,-3.5682,-3.5749,-3.5869,-3.632,-3.632,-3.5843,-3.5923,-3.4992,-3.4178,-3.3969,-3.429,-3.4181,-3.3636,-3.3066,-3.2993,-3.2993,-3.2488,-3.212,-3.25,-3.2531,-3.1869,-3.1705,-3.1705,-3.1705,-3.1705,-3.1705,-3.1749,-3.1989,-3.2033,-3.1749,-3.1705,-3.1705,-3.1705,-3.1705,-3.1705,-3.1705,-3.1705,-3.1705,-3.1705,-3.1705,-3.1705,-3.1705,-3.1705,-3.1705,-3.1705,-3.1705,-3.1705,-3.1749,-3.1913,-3.2326,-3.2661,-3.2993,-3.3704,-3.4361,-3.4856,-3.5642,-3.6189,-3.6322,-3.6441,-3.6691,-3.7017,-3.7017,-3.7017,-3.6978,-3.6978,-3.6964,-3.6806,-3.6455,-3.5878,-3.5302,-3.466,-3.4006,-3.3683,-3.3571,-3.3389,-3.3445,-3.3445,-3.3361,-3.3507,-3.3859,-3.4031,-3.4187,-3.4322,-3.4491,-3.481,-3.4975,-4.2092,-4.2092,-4.2092,-4.2092,-4.2092,-4.2092,-4.2092,-4.2092,-4.2092,-4.1729,-4.0923,-4.0036,-3.8894,-3.8088,-3.7877,-3.7886,-3.8165,-3.7299,-3.6805,-3.636,-3.5923,-3.5843,-3.6241,-3.6517,-3.6688,-3.6858,-3.6148,-3.5359,-3.4855,-3.469,-3.4774,-3.4938,-3.5534,-3.544,-3.4992,-3.4828,-3.4304,-3.2884,-3.2871,-3.3177,-3.3322,-3.2993,-3.2704,-3.2661,-3.2618,-3.2358,-3.1957,-3.2196,-3.2164,-3.1869,-3.1705,-3.1705,-3.1705,-3.1705,-3.1705,-3.1705,-3.1825,-3.1793,-3.1705,-3.1705,-3.1705,-3.1705,-3.1705,-3.1705,-3.1705,-3.1705,-3.1705,-3.1705,-3.1705,-3.1705,-3.1705,-3.1705,-3.1705,-3.1705,-3.1705,-3.1705,-3.1705,-3.1825,-3.1913,-3.2077,-3.237,-3.25,-3.3036,-3.3365,-3.4069,-3.5074,-3.5534,-3.5816,-3.6189,-3.6612,-3.6822,-3.6783,-3.694,-3.694,-3.6964,-3.6852,-3.6557,-3.6286,-3.5723,-3.5217,-3.459,-3.4211,-3.4042,-3.3817,-3.3529,-3.3424,-3.3438,-3.3368,-3.3312,-3.3577,-3.377,-3.3839,-3.4031,-3.4356,-3.4491,-4.2092,-4.2092,-4.2092,-4.2092,-4.2092,-4.2092,-4.2092,-4.2078,-4.2063,-4.1572,-4.057,-3.9045,-3.7738,-3.7155,-3.7053,-3.7362,-3.8037,-3.7246,-3.6399,-3.5602,-3.5019,-3.5047,-3.544,-3.5803,-3.6042,-3.6439,-3.5789,-3.5047,-3.4384,-3.3768,-3.3755,-3.3839,-3.462,-3.4301,-3.4092,-3.4079,-3.3658,-3.2463,-3.2189,-3.2013,-3.212,-3.2001,-3.1913,-3.1869,-3.1837,-3.1749,-3.1705,-3.1869,-3.1913,-3.1705,-3.1705,-3.1705,-3.1705,-3.1705,-3.1705,-3.1705,-3.1705,-3.1705,-3.1705,-3.1705,-3.1705,-3.1705,-3.1705,-3.1705,-3.1705,-3.1705,-3.1705,-3.1705,-3.1705,-3.1705,-3.1705,-3.1705,-3.1705,-3.1705,-3.1705,-3.1705,-3.1705,-3.1705,-3.1749,-3.1705,-3.1837,-3.2045,-3.2133,-3.2544,-3.3194,-3.4194,-3.4815,-3.5102,-3.5413,-3.583,-3.6282,-3.6533,-3.6769,-3.6886,-3.6978,-3.6838,-3.6712,-3.6459,-3.6047,-3.5653,-3.5231,-3.4908,-3.4492,-3.4295,-3.4056,-3.3789,-3.3508,-3.3389,-3.3319,-3.329,-3.3382,-3.3542,-3.3577,-3.377,-3.3736,-4.2092,-4.2092,-4.2092,-4.2092,-4.2092,-4.2092,-4.2092,-4.202,-4.1657,-4.0521,-3.9105,-3.7853,-3.6833,-3.6282,-3.6122,-3.6281,-3.6478,-3.5749,-3.5251,-3.469,-3.4176,-3.4176,-3.4607,-3.4937,-3.5032,-3.5305,-3.4978,-3.44,-3.3611,-3.324,-3.3111,-3.3356,-3.3937,-3.4021,-3.3852,-3.3258,-3.268,-3.2363,-3.1893,-3.1705,-3.1705,-3.1705,-3.1705,-3.1705,-3.1705,-3.1705,-3.1705,-3.1705,-3.1705,-3.1705,-3.1705,-3.1705,-3.1705,-3.1705,-3.1705,-3.1705,-3.1705,-3.1705,-3.1705,-3.1705,-3.1705,-3.1705,-3.1705,-3.1705,-3.1705,-3.1705,-3.1705,-3.1705,-3.1705,-3.1705,-3.1705,-3.1705,-3.1705,-3.1705,-3.1705,-3.1705,-3.1705,-3.1705,-3.1705,-3.1705,-3.1705,-3.1793,-3.1793,-3.1793,-3.2531,-3.3267,-3.3901,-3.4389,-3.4692,-3.4951,-3.5413,-3.587,-3.611,-3.6441,-3.652,-3.6688,-3.6841,-3.6575,-3.628,-3.6089,-3.5752,-3.5273,-3.4936,-3.4716,-3.452,-3.4211,-3.3866,-3.3515,-3.3347,-3.3304,-3.329,-3.3347,-3.3312,-3.3276,-3.3276,-4.2092,-4.2092,-4.2092,-4.2092,-4.2092,-4.2092,-4.2092,-4.202,-4.1628,-4.0022,-3.7806,-3.7101,-3.6379,-3.579,-3.5628,-3.5909,-3.5909,-3.5372,-3.4786,-3.423,-3.3738,-3.3696,-3.4105,-3.4439,-3.4564,-3.4397,-3.4314,-3.3992,-3.324,-3.3124,-3.3038,-3.3197,-3.3526,-3.3598,-3.3185,-3.255,-3.2006,-3.195,-3.1805,-3.1717,-3.1705,-3.1705,-3.1705,-3.1705,-3.1705,-3.1705,-3.1705,-3.1705,-3.1705,-3.1705,-3.1705,-3.1705,-3.1705,-3.1705,-3.1705,-3.1705,-3.1705,-3.1705,-3.1705,-3.1705,-3.1705,-3.1705,-3.1705,-3.1705,-3.1705,-3.1705,-3.1705,-3.1705,-3.1705,-3.1705,-3.1705,-3.1705,-3.1705,-3.1705,-3.1705,-3.1705,-3.1705,-3.1705,-3.1705,-3.1705,-3.1705,-3.1705,-3.1705,-3.1705,-3.2001,-3.2488,-3.2704,-3.328,-3.3804,-3.4069,-3.4415,-3.4856,-3.5224,-3.5602,-3.599,-3.6122,-3.6267,-3.6436,-3.6225,-3.649,-3.6244,-3.5794,-3.5513,-3.5428,-3.5124,-3.4688,-3.4245,-3.3866,-3.3557,-3.3319,-3.3304,-3.3276,-3.3276,-3.3276,-3.3276,-4.2092,-4.2092,-4.2092,-4.2092,-4.2092,-4.2092,-4.2092,-4.2078,-4.1932,-4.0247,-3.7661,-3.688,-3.6117,-3.5534,-3.5183,-3.5467,-3.5843,-3.544,-3.4883,-3.4105,-3.3496,-3.3696,-3.3992,-3.4243,-3.4105,-3.4356,-3.4189,-3.3738,-3.3124,-3.3124,-3.3081,-3.3038,-3.3154,-3.3025,-3.2487,-3.2169,-3.1994,-3.2006,-3.1805,-3.1717,-3.1705,-3.1705,-3.1705,-3.1705,-3.1705,-3.1705,-3.1705,-3.1705,-3.1705,-3.1705,-3.1705,-3.1705,-3.1705,-3.1705,-3.1705,-3.1705,-3.1705,-3.1705,-3.1705,-3.1705,-3.1705,-3.1705,-3.1705,-3.1705,-3.1705,-3.1705,-3.1705,-3.1705,-3.1705,-3.1705,-3.1705,-3.1705,-3.1705,-3.1705,-3.1705,-3.1705,-3.1705,-3.1705,-3.1705,-3.1705,-3.1705,-3.1705,-3.1705,-3.1705,-3.1705,-3.1837,-3.1749,-3.2164,-3.2852,-3.3152,-3.345,-3.3943,-3.4389,-3.4719,-3.5102,-3.5494,-3.5696,-3.5896,-3.6134,-3.6286,-3.6598,-3.6466,-3.6266,-3.6107,-3.578,-3.5307,-3.4736,-3.4203,-3.381,-3.3431,-3.3319,-3.3276,-3.3276,-3.3276,-3.3276,-4.2092,-4.2092,-4.2092,-4.2092,-4.2092,-4.2092,-4.2092,-4.2005,-4.1447,-3.9765,-3.7373,-3.6646,-3.5482,-3.4473,-3.4121,-3.4358,-3.4358,-3.4246,-3.3654,-3.3569,-3.3197,-3.3283,-3.3539,-3.3666,-3.3569,-3.3539,-3.3496,-3.3526,-3.3124,-3.3124,-3.3124,-3.3081,-3.2896,-3.268,-3.2444,-3.2125,-3.195,-3.1805,-3.1705,-3.1705,-3.1705,-3.1705,-3.1705,-3.1705,-3.1705,-3.1705,-3.1705,-3.1705,-3.1705,-3.1705,-3.1705,-3.1705,-3.1705,-3.1705,-3.1705,-3.1705,-3.1705,-3.1705,-3.1705,-3.1705,-3.1705,-3.1705,-3.1705,-3.1705,-3.1705,-3.1705,-3.1705,-3.1705,-3.1705,-3.1705,-3.1705,-3.1705,-3.1705,-3.1705,-3.1705,-3.1705,-3.1705,-3.1705,-3.1705,-3.1705,-3.1705,-3.1705,-3.1705,-3.1705,-3.1705,-3.1705,-3.1705,-3.1705,-3.2239,-3.2283,-3.2457,-3.3036,-3.3522,-3.3846,-3.4181,-3.4526,-3.4733,-3.4856,-3.5359,-3.5869,-3.6215,-3.6441,-3.6671,-3.6336,-3.6157,-3.5963,-3.5363,-3.4759,-3.3978,-3.3557,-3.3649,-3.3466,-3.3276,-3.3276,-3.3276,-4.2092,-4.2092,-4.2092,-4.2092,-4.2092,-4.2092,-4.2092,-4.202,-4.1558,-3.9902,-3.7868,-3.7373,-3.6196,-3.4609,-3.3953,-3.3683,-3.3598,-3.3569,-3.324,-3.321,-3.3124,-3.3167,-3.3167,-3.3124,-3.321,-3.3124,-3.3124,-3.3124,-3.3124,-3.3124,-3.3124,-3.3038,-3.2766,-3.2562,-3.2344,-3.2169,-3.1906,-3.1761,-3.1705,-3.1705,-3.1705,-3.1705,-3.1705,-3.1705,-3.1705,-3.1705,-3.1705,-3.1705,-3.1705,-3.1705,-3.1705,-3.1705,-3.1705,-3.1705,-3.1705,-3.1705,-3.1705,-3.1705,-3.1705,-3.1705,-3.1705,-3.1705,-3.1705,-3.1705,-3.1705,-3.1705,-3.1705,-3.1705,-3.1705,-3.1705,-3.1705,-3.1705,-3.1705,-3.1705,-3.1705,-3.1705,-3.1705,-3.1705,-3.1705,-3.1705,-3.1705,-3.1705,-3.1705,-3.1705,-3.1705,-3.1705,-3.1705,-3.1705,-3.1705,-3.1793,-3.1837,-3.2326,-3.2661,-3.2864,-3.3194,-3.3564,-3.3733,-3.3846,-3.4444,-3.5156,-3.5278,-3.5427,-3.5976,-3.648,-3.6097,-3.5842,-3.5821,-3.5307,-3.4604,-3.4253,-3.4225,-3.393,-3.3438,-3.3375,-3.3494,-4.2092,-4.2092,-4.2092,-4.2092,-4.2092,-4.2092,-4.2092,-4.2092,-4.2078,-4.0804,-3.8846,-3.8598,-3.714,-3.5629,-3.5332,-3.4759,-3.4176,-3.4118,-3.3696,-3.3283,-3.3124,-3.3124,-3.3124,-3.3124,-3.3124,-3.3124,-3.3124,-3.3124,-3.3124,-3.3124,-3.3124,-3.3038,-3.268,-3.2519,-3.2344,-3.2125,-3.1893,-3.1749,-3.1705,-3.1705,-3.1705,-3.1705,-3.1705,-3.1705,-3.1705,-3.1705,-3.1705,-3.1705,-3.1705,-3.1705,-3.1705,-3.1705,-3.1705,-3.1705,-3.1705,-3.1705,-3.1705,-3.1705,-3.1705,-3.1705,-3.1705,-3.1705,-3.1705,-3.1705,-3.1705,-3.1705,-3.1705,-3.1705,-3.1705,-3.1705,-3.1705,-3.1705,-3.1705,-3.1705,-3.1705,-3.1705,-3.1705,-3.1705,-3.1705,-3.1705,-3.1705,-3.1705,-3.1705,-3.1705,-3.1705,-3.1705,-3.1705,-3.1705,-3.1705,-3.1705,-3.1749,-3.1793,-3.2001,-3.1881,-3.2208,-3.2747,-3.2821,-3.295,-3.3649,-3.4277,-3.4306,-3.4513,-3.5102,-3.5521,-3.5709,-3.5663,-3.5491,-3.5418,-3.5287,-3.5034,-3.4731,-3.4542,-3.407,-3.3859,-3.3831,-4.2092,-4.2092,-4.2092,-4.2092,-4.2092,-4.2092,-4.2092,-4.2092,-4.2078,-4.0888,-3.886,-3.8242,-3.7003,-3.4797,-3.4092,-3.3797,-3.3598,-3.3441,-3.3326,-3.3167,-3.3124,-3.3124,-3.3124,-3.3124,-3.3124,-3.3124,-3.3124,-3.3124,-3.3124,-3.3124,-3.3124,-3.3038,-3.2723,-3.2562,-3.2344,-3.2125,-3.1893,-3.1749,-3.1705,-3.1705,-3.1705,-3.1705,-3.1705,-3.1705,-3.1705,-3.1705,-3.1705,-3.1705,-3.1705,-3.1705,-3.1705,-3.1705,-3.1705,-3.1705,-3.1705,-3.1705,-3.1705,-3.1705,-3.1705,-3.1705,-3.1705,-3.1705,-3.1705,-3.1705,-3.1705,-3.1705,-3.1705,-3.1705,-3.1705,-3.1705,-3.1705,-3.1705,-3.1705,-3.1705,-3.1705,-3.1705,-3.1705,-3.1705,-3.1705,-3.1705,-3.1705,-3.1705,-3.1705,-3.1705,-3.1705,-3.1705,-3.1705,-3.1705,-3.1705,-3.1705,-3.1705,-3.1705,-3.1705,-3.1705,-3.1705,-3.212,-3.2089,-3.2164,-3.2864,-3.3395,-3.3479,-3.3733,-3.4264,-3.4678,-3.5033,-3.513,-3.5051,-3.5074,-3.5197,-3.5246,-3.5017,-3.4899,-3.4767,-3.452,-3.4379,-4.2092,-4.2092,-4.2092,-4.2092,-4.2092,-4.2092,-4.2092,-4.2092,-4.2092,-4.1052,-3.9418,-3.8913,-3.7222,-3.5139,-3.4428,-3.3869,-3.3167,-3.321,-3.3167,-3.3167,-3.3167,-3.3124,-3.3124,-3.3124,-3.3124,-3.3124,-3.3124,-3.3124,-3.3124,-3.3124,-3.3124,-3.3081,-3.2766,-3.2562,-3.2344,-3.2069,-3.1837,-3.1749,-3.1705,-3.1705,-3.1705,-3.1705,-3.1705,-3.1705,-3.1705,-3.1705,-3.1705,-3.1705,-3.1705,-3.1705,-3.1705,-3.1705,-3.1705,-3.1705,-3.1705,-3.1705,-3.1705,-3.1705,-3.1705,-3.1705,-3.1705,-3.1705,-3.1705,-3.1705,-3.1705,-3.1705,-3.1705,-3.1705,-3.1705,-3.1705,-3.1705,-3.1705,-3.1705,-3.1705,-3.1705,-3.1705,-3.1705,-3.1705,-3.1705,-3.1705,-3.1705,-3.1705,-3.1705,-3.1705,-3.1705,-3.1705,-3.1705,-3.1705,-3.1705,-3.1705,-3.1705,-3.1705,-3.1705,-3.1705,-3.1705,-3.1705,-3.1793,-3.1881,-3.2077,-3.2488,-3.2618,-3.2821,-3.3194,-3.3817,-3.4526,-3.4523,-3.4553,-3.4834,-3.5018,-3.5027,-3.5117,-3.5214,-3.5135,-3.5055,-3.4994,-4.2092,-4.2092,-4.2092,-4.2092,-4.2092,-4.2092,-4.2092,-4.2092,-4.2092,-4.1337,-4.0184,-3.9898,-3.8056,-3.5683,-3.5061,-3.4204,-3.3569,-3.3295,-3.3283,-3.3167,-3.3411,-3.3368,-3.3124,-3.3124,-3.3124,-3.3124,-3.3124,-3.3124,-3.3124,-3.3124,-3.3124,-3.3081,-3.2649,-3.2431,-3.2356,-3.1937,-3.1749,-3.1705,-3.1705,-3.1705,-3.1705,-3.1705,-3.1705,-3.1705,-3.1705,-3.1705,-3.1705,-3.1705,-3.1705,-3.1705,-3.1705,-3.1705,-3.1705,-3.1705,-3.1705,-3.1705,-3.1705,-3.1705,-3.1705,-3.1705,-3.1705,-3.1705,-3.1705,-3.1705,-3.1705,-3.1705,-3.1705,-3.1705,-3.1705,-3.1705,-3.1705,-3.1705,-3.1705,-3.1705,-3.1705,-3.1705,-3.1705,-3.1705,-3.1705,-3.1705,-3.1705,-3.1705,-3.1705,-3.1705,-3.1705,-3.1705,-3.1705,-3.1705,-3.1705,-3.1705,-3.1705,-3.1705,-3.1705,-3.1705,-3.1705,-3.1705,-3.1705,-3.1749,-3.1837,-3.1869,-3.212,-3.212,-3.2045,-3.2834,-3.3619,-3.3972,-3.4134,-3.4438,-3.4644,-3.4659,-3.4875,-3.5332,-3.5407,-3.5171,-3.5585,-4.2092,-4.2092,-4.2092,-4.2092,-4.2092,-4.2092,-4.2092,-4.2092,-4.2092,-4.1323,-4.0058,-3.8924,-3.7468,-3.579,-3.5087,-3.4217,-3.3441,-3.3496,-3.3581,-3.3496,-3.3611,-3.3441,-3.3197,-3.3124,-3.3124,-3.3124,-3.3124,-3.3124,-3.3124,-3.3124,-3.3081,-3.3038,-3.2649,-3.24,-3.24,-3.1937,-3.1705,-3.1705,-3.1705,-3.1705,-3.1705,-3.1705,-3.1705,-3.1705,-3.1705,-3.1705,-3.1705,-3.1705,-3.1705,-3.1705,-3.1705,-3.1705,-3.1705,-3.1705,-3.1705,-3.1705,-3.1705,-3.1705,-3.1705,-3.1705,-3.1705,-3.1705,-3.1705,-3.1705,-3.1705,-3.1705,-3.1705,-3.1705,-3.1705,-3.1705,-3.1705,-3.1705,-3.1705,-3.1705,-3.1705,-3.1705,-3.1705,-3.1705,-3.1705,-3.1705,-3.1705,-3.1705,-3.1705,-3.1705,-3.1705,-3.1705,-3.1705,-3.1705,-3.1705,-3.1705,-3.1705,-3.1705,-3.1705,-3.1705,-3.1705,-3.1705,-3.1705,-3.1705,-3.1749,-3.1749,-3.1705,-3.1793,-3.1881,-3.212,-3.2618,-3.3023,-3.3522,-3.4001,-3.4155,-3.4014,-3.4264,-3.4568,-3.4733,-3.4539,-3.5473,-4.2092,-4.2092,-4.2092,-4.2092,-4.2092,-4.2092,-4.2092,-4.2034,-4.1787,-4.1076,-4.0122,-3.9143,-3.7686,-3.5884,-3.5087,-3.4147,-3.3356,-3.3526,-3.3411,-3.3411,-3.3526,-3.3411,-3.324,-3.3124,-3.3124,-3.3124,-3.3124,-3.3124,-3.3124,-3.3124,-3.3081,-3.3038,-3.2649,-3.24,-3.2356,-3.1981,-3.1705,-3.1705,-3.1705,-3.1705,-3.1705,-3.1705,-3.1705,-3.1705,-3.1705,-3.1705,-3.1705,-3.1705,-3.1705,-3.1705,-3.1705,-3.1705,-3.1705,-3.1705,-3.1705,-3.1705,-3.1705,-3.1705,-3.1705,-3.1705,-3.1705,-3.1705,-3.1705,-3.1705,-3.1705,-3.1705,-3.1705,-3.1705,-3.1705,-3.1705,-3.1705,-3.1705,-3.1705,-3.1705,-3.1705,-3.1705,-3.1705,-3.1705,-3.1705,-3.1705,-3.1705,-3.1705,-3.1705,-3.1705,-3.1705,-3.1705,-3.1705,-3.1705,-3.1705,-3.1705,-3.1705,-3.1661,-3.1661,-3.1661,-3.1705,-3.1705,-3.1705,-3.1705,-3.1705,-3.1705,-3.1705,-3.1705,-3.1793,-3.1957,-3.2077,-3.2251,-3.2704,-3.3194,-3.3066,-3.2821,-3.3194,-3.3733,-3.3804,-3.3917,-3.4653,-4.2092,-4.2092,-4.2092,-4.2092,-4.2092,-4.2092,-4.2092,-4.199,-4.1395,-4.0742,-4.0118,-3.9934,-3.8159,-3.6424,-3.5534,-3.4387,-3.3683,-3.3696,-3.3411,-3.3197,-3.3368,-3.3326,-3.324,-3.3124,-3.3124,-3.3124,-3.3124,-3.3124,-3.3124,-3.3124,-3.3081,-3.2995,-3.2736,-3.24,-3.2257,-3.1981,-3.1705,-3.1705,-3.1705,-3.1705,-3.1705,-3.1705,-3.1705,-3.1705,-3.1705,-3.1705,-3.1705,-3.1705,-3.1705,-3.1705,-3.1705,-3.1705,-3.1705,-3.1705,-3.1705,-3.1705,-3.1705,-3.1705,-3.1705,-3.1705,-3.1705,-3.1705,-3.1705,-3.1705,-3.1705,-3.1705,-3.1705,-3.1705,-3.1705,-3.1705,-3.1705,-3.1705,-3.1705,-3.1705,-3.1705,-3.1705,-3.1705,-3.1705,-3.1705,-3.1705,-3.1705,-3.1705,-3.1705,-3.1705,-3.1705,-3.1705,-3.1705,-3.1705,-3.1705,-3.1661,-3.1661,-3.1572,-3.1528,-3.1572,-3.1661,-3.1705,-3.1661,-3.1705,-3.1705,-3.1705,-3.1705,-3.1705,-3.1705,-3.1705,-3.1837,-3.1913,-3.1913,-3.2208,-3.1957,-3.1945,-3.2283,-3.2821,-3.2907,-3.3109,-3.3649,-4.2092,-4.2092,-4.2092,-4.2092,-4.2092,-4.2092,-4.2092,-4.1976,-4.1381,-4.0728,-4.0075,-3.9392,-3.7951,-3.5628,-3.5615,-3.4746,-3.3598,-3.3666,-3.3496,-3.3227,-3.3569,-3.3484,-3.3384,-3.34,-3.3187,-3.3212,-3.3262,-3.3149,-3.3224,-3.3187,-3.3124,-3.3081,-3.2649,-3.24,-3.2313,-3.2038,-3.1705,-3.1705,-3.1705,-3.1705,-3.1705,-3.1705,-3.1705,-3.1705,-3.1705,-3.1705,-3.1705,-3.1705,-3.1705,-3.1705,-3.1705,-3.1705,-3.1705,-3.1705,-3.1705,-3.1705,-3.1705,-3.1705,-3.1705,-3.1705,-3.1705,-3.1705,-3.1705,-3.1705,-3.1705,-3.1705,-3.1705,-3.1705,-3.1705,-3.1705,-3.1705,-3.1705,-3.1705,-3.1705,-3.1705,-3.1705,-3.1705,-3.1705,-3.1705,-3.1705,-3.1705,-3.1705,-3.1705,-3.1705,-3.1705,-3.1705,-3.1705,-3.1705,-3.1705,-3.1661,-3.1617,-3.1528,-3.1427,-3.1528,-3.1673,-3.1661,-3.1661,-3.1661,-3.1705,-3.1705,-3.1705,-3.1705,-3.1705,-3.1705,-3.1705,-3.1793,-3.1705,-3.1705,-3.1749,-3.1793,-3.1749,-3.1957,-3.2033,-3.2283,-3.2821]},{"header":{"parameterUnit":"m.s-1","parameterCategory":1,"la1":31.0,"la2":29.5877,"lo1":-88.7671,"lo2":-86.6584,"dy":0.0162,"dx":0.0185,"nx":115,"ny":88,"refTime":"2024-06-13T06:00:00:Z","depth":0,"parameterNumber":3,"parameterNumberName":"V-component_of_WINDS"},"data":[0.0,0.0,0.0,0.0,0.0,0.0,0.0,0.0,0.0,0.0,0.0,0.0,0.0,0.0,0.0,0.0,0.0,0.0,0.0,0.0,0.0,0.0,0.0,0.0,0.0,0.0,0.0,0.0,0.0,0.0,0.0,0.0,0.0,0.0,0.0,0.0,0.0,0.0,0.0,0.0,0.0,0.0,0.0,0.0,0.0,0.0,0.0,0.0,0.0,0.0,0.0,0.0,0.0,0.0,0.0,0.0,0.0,0.0,0.0,0.0,0.0,0.0,0.0,0.0,0.0,0.0,0.0,0.0,0.0,0.0,0.0,0.0,0.0,0.0,0.0,0.0,0.0,0.0,0.0,0.0,0.0,0.0,0.0,0.0,0.0,0.0,0.0,0.0,0.0,0.0,0.0,0.0,0.0,0.0,0.0,0.0,0.0,0.0,0.0,0.0,0.0,0.0,0.0,0.0,0.0,0.0,0.0,0.0,0.0,0.0,0.0,0.0,0.0,0.0,0.0,0.0,0.0,0.0,0.0,0.0,0.0,0.0,0.0,0.0,0.0,0.0,0.0,0.0,0.0,0.0,0.0,0.0,0.0,0.0,0.0,0.0,0.0,0.0,0.0,0.0,0.0,0.0,0.0,0.0,0.0,0.0,0.0,0.0,0.0,0.0,0.0,0.0,0.0,0.0,0.0,0.0,0.0,0.0,0.0,0.0,0.0,0.0,0.0,0.0,0.0,0.0,0.0,0.0,0.0,0.0,0.0,0.0,0.0,0.0,0.0,0.0,0.0,0.0,0.0,0.0,0.0,0.0,0.0,0.0,0.0,0.0,0.0,0.0,0.0,0.0,0.0,0.0,0.0,0.0,0.0,0.0,0.0,0.0,0.0,0.0,0.0,0.0,0.0,0.0,0.0,0.0,0.0,0.0,0.0,0.0,0.0,0.0,0.0,0.0,0.0,0.0,0.0,0.0,0.0,0.0,0.0,0.0,0.0,0.0,0.0,0.0,0.0,0.0,0.0,0.0,0.0,0.0,0.0,0.0,0.0,0.0,0.0,0.0,0.0,0.0,0.0,0.0,0.0,0.0,0.0,0.0,0.0,0.0,0.0,0.0,0.0,0.0,0.0,0.0,0.0,0.0,0.0,0.0,0.0,0.0,0.0,0.0,0.0,0.0,0.0,0.0,0.0,0.0,0.0,0.0,0.0,0.0,0.0,0.0,0.0,0.0,0.0,0.0,0.0,0.0,0.0,0.0,0.0,0.0,0.0,0.0,0.0,0.0,0.0,0.0,0.0,0.0,0.0,0.0,0.0,0.0,0.0,0.0,0.0,0.0,0.0,0.0,0.0,0.0,0.0,0.0,0.0,0.0,0.0,0.0,0.0,0.0,0.0,0.0,0.0,0.0,0.0,0.0,0.0,0.0,0.0,0.0,0.0,0.0,0.0,0.0,0.0,0.0,0.0,0.0,0.0,0.0,0.0,0.0,0.0,0.0,0.0,0.0,0.0,0.0,0.0,0.0,0.0,0.0,0.0,0.0,0.0,0.0,0.0,0.0,0.0,0.0,0.0,0.0,0.0,0.0,0.0,0.0,0.0,0.0,0.0,0.0,0.0,0.0,0.0,0.0,0.0,0.0,0.0,0.0,0.0,0.0,0.0,0.0,0.0,0.0,0.0,0.0,0.0,0.0,0.0,0.0,0.0,0.0,0.0,0.0,0.0,0.0,0.0,0.0,0.0,0.0,0.0,0.0,0.0,0.0,0.0,0.0,0.0,0.0,0.0,0.0,0.0,0.0,0.0,0.0,0.0,0.0,0.0,0.0,0.0,0.0,0.0,0.0,0.0,0.0,0.0,0.0,0.0,0.0,0.0,0.0,0.0,0.0,0.0,0.0,0.0,0.0,0.0,0.0,0.0,0.0,0.0,0.0,0.0,0.0,0.0,0.0,0.0,0.0,0.0,0.0,0.0,0.0,0.0,0.0,0.0,0.0,0.0,0.0,0.0,0.0,0.0,0.0,0.0,0.0,0.0,0.0,0.0,0.0,0.0,0.0,0.0,0.0,0.0,0.0,0.0,0.0,0.0,0.0,0.0,0.0,0.0,0.0,0.0,0.0,0.0,0.0,0.0,0.0,0.0,0.0,0.0,0.0,0.0,0.0,0.0,0.0,0.0,0.0,0.0,0.0,0.0,0.0,0.0,0.0,0.0,0.0,0.0,0.0,0.0,0.0,0.0,0.0,0.0,0.0,0.0,0.0,0.0,0.0,0.0,0.0,0.0,0.0,0.0,0.0,0.0,0.0,0.0,0.0,0.0,0.0,0.0,0.0,0.0,0.0,0.0,0.0,0.0,0.0,0.0,0.0,0.0,0.0,0.0,0.0,0.0,0.0,0.0,0.0,0.0,0.0,0.0,0.0,0.0,0.0,0.0,0.0,0.0,0.0,0.0,0.0,0.0,0.0,0.0,0.0,0.0,0.0,0.0,0.0,0.0,0.0,0.0,0.0,0.0,0.0,0.0,0.0,0.0,0.0,0.0,0.0,0.0,0.0,0.0,0.0,0.0,0.0,0.0,0.0,0.0,0.0,0.0,0.0,0.0,0.0,0.0,0.0,0.0,0.0,0.0,0.0,0.0,0.0,0.0,0.0,0.0,0.0,0.0,0.0,0.0,0.0,0.0,0.0,0.0,0.0,0.0,0.0,0.0,0.0,0.0,0.0,0.0,0.0,0.0,0.0,0.0,0.0,0.0,0.0,0.0,0.0,0.0,0.0,0.0,0.0,0.0,0.0,0.0,0.0,0.0,0.0,0.0,0.0,0.0,0.0,0.0,0.0,0.0,0.0,0.0,0.0,0.0,0.0,0.0,0.0,0.0,0.0,0.0,0.0,0.0,0.0,0.0,0.0,0.0,0.0,0.0,0.0,0.0,0.0,0.0,0.0,0.0,0.0,0.0,0.0,0.0,0.0,0.0,0.0,0.0,0.0,0.0,0.0,0.0,0.0,0.0,0.0,0.0,0.0,0.0,0.0,0.0,0.0,0.0,0.0,0.0,0.0,0.0,0.0,0.0,0.0,0.0,0.0,0.0,0.0,0.0,0.0,0.0,0.0,0.0,0.0,0.0,0.0,0.0,0.0,0.0,0.0,0.0,0.0,0.0,0.0,0.0,0.0,0.0,0.0,0.0,0.0,0.0,0.0,0.0,0.0,0.0,0.0,0.0,0.0,0.0,0.0,0.0,0.0,0.0,0.0,0.0,0.0,0.0,0.0,0.0,0.0,0.0,0.0,0.0,0.0,0.0,0.0,0.0,0.0,0.0,0.0,0.0,0.0,0.0,0.0,0.0,0.0,0.0,0.0,0.0,0.0,0.0,0.0,0.0,0.0,0.0,0.0,0.0,0.0,0.0,0.0,0.0,0.0,0.0,0.0,0.0,0.0,0.0,0.0,0.0,0.0,0.0,0.0,0.0,0.0,0.0,0.0,0.0,0.0,0.0,0.0,0.0,0.0,0.0,0.0,0.0,0.0,0.0,0.0,0.0,0.0,0.0,0.0,0.0,0.0,0.0,0.0,0.0,0.0,0.0,0.0,0.0,0.0,0.0,0.0,0.0,0.0,0.0,0.0,0.0,0.0,0.0,0.0,0.0,0.0,0.0,0.0,0.0,0.0,0.0,0.0,0.0,0.0,0.0,0.0,0.0,0.0,0.0,0.0,0.0,0.0,0.0,0.0,0.0,0.0,0.0,0.0,0.0,0.0,0.0,0.0,0.0,0.0,0.0,0.0,0.0,0.0,0.0,0.0,0.0,0.0,0.0,0.0,0.0,0.0,0.0,0.0,0.0,0.0,0.0,0.0,0.0,0.0,0.0,0.0,0.0,0.0,0.0,0.0,0.0,0.0,0.0,0.0,0.0,0.0,0.0,0.0,0.0,0.0,0.0,0.0,0.0,0.0,0.0,0.0,0.0,0.0,0.0,0.0,0.0,0.0,0.0,0.0,0.0,0.0,0.0,0.0,0.0,0.0,0.0,0.0,0.0,0.0,0.0,0.0,0.0,0.0,0.0,0.0,0.0,0.0,0.0,0.0,0.0,0.0,0.0,0.0,0.0,0.0,0.0,0.0,0.0,0.0,0.0,0.0,0.0,0.0,0.0,0.0,0.0,0.0,0.0,0.0,0.0,0.0,0.0,0.0,0.0,0.0,0.0,0.0,0.0,0.0,0.0,0.0,0.0,0.0,0.0,0.0,0.0,0.0,0.0,0.0,0.0,0.0,0.0,0.0,0.0,0.0,1.3757,0.0,0.0,0.0,0.0,0.0,0.0,0.0,0.0,0.0,0.0,0.0,0.0,0.0,0.0,0.0,0.0,0.0,0.0,0.0,0.0,0.0,0.0,0.0,0.0,0.0,0.0,0.0,0.0,0.0,0.0,0.0,0.0,0.0,0.0,0.0,0.0,0.0,0.0,0.0,0.0,0.0,0.0,0.0,0.0,0.0,0.0,0.0,0.0,0.0,0.0,0.0,0.0,0.0,0.0,0.0,0.0,0.0,0.0,0.0,0.0,0.0,0.0,0.0,0.0,0.0,0.0,0.0,0.0,0.0,0.0,0.0,0.0,0.0,0.0,0.0,0.0,0.0,0.0,0.0,0.0,0.0,0.0,0.0,0.0,0.0,0.0,0.0,0.0,0.0,0.0,0.0,0.0,0.0,0.0,0.0,0.0,0.0,0.0,0.0,0.0,0.0,0.0,0.0,0.0,0.0,0.0,0.0,0.0,0.0,0.0,1.875,1.7628,1.6241,1.4884,1.355,0.0,0.0,0.0,0.0,0.0,0.0,0.0,0.0,0.0,0.0,0.0,0.0,0.0,0.0,0.0,0.0,0.0,0.0,0.0,0.0,0.0,0.0,0.0,0.0,0.0,0.0,0.0,0.0,0.0,0.0,0.0,0.0,0.0,0.0,0.0,0.0,0.0,0.0,0.0,0.0,0.0,0.0,0.0,0.0,0.0,0.0,0.0,0.0,0.0,0.0,0.0,0.0,0.0,0.0,0.0,0.0,0.0,0.0,0.0,0.0,0.0,0.0,0.0,0.0,0.0,0.0,0.0,0.0,0.0,0.0,0.0,0.0,0.0,0.0,0.0,0.0,0.0,0.0,0.0,0.0,0.0,0.0,0.0,0.0,0.0,0.0,0.0,0.0,0.0,0.0,0.0,0.0,0.0,0.0,0.0,0.0,0.0,0.0,0.0,0.0,0.0,0.0,0.0,0.0,0.0,0.0,0.0,0.0,0.0,0.0,0.0,0.0,1.6549,1.496,1.3197,0.0,0.0,0.0,0.0,0.0,0.0,0.0,0.0,0.0,0.0,0.0,0.0,0.0,0.0,0.0,0.0,0.0,0.0,0.0,0.0,0.0,0.0,0.0,0.0,0.0,0.0,0.0,0.0,0.0,0.0,0.0,0.0,0.0,0.0,0.0,0.0,0.0,0.0,0.0,0.0,0.0,0.0,0.0,0.0,0.0,0.0,0.0,0.0,0.0,0.0,0.0,0.0,0.0,0.0,0.0,0.0,0.0,0.0,0.0,0.0,0.0,0.0,0.0,0.0,0.0,0.0,0.0,0.0,0.0,0.0,0.0,0.0,0.0,0.0,0.0,0.0,0.0,0.0,0.0,0.0,0.0,0.0,0.0,0.0,0.0,0.0,0.0,0.0,0.0,0.0,0.0,0.0,0.0,0.0,0.0,0.0,0.0,0.0,0.0,0.0,0.0,0.0,0.0,0.0,0.0,0.0,0.0,0.0,0.0,0.0,1.9298,1.8453,1.7397,0.0,1.2346,0.0,0.0,0.0,0.0,0.0,0.0,0.0,0.0,0.0,0.0,0.0,0.0,0.0,0.0,0.0,0.0,0.0,0.0,0.0,0.0,0.0,0.0,0.0,0.0,0.0,0.0,0.0,0.0,0.0,0.0,0.0,0.0,0.0,0.0,0.0,0.0,0.0,0.0,0.0,0.0,0.0,0.0,0.0,0.0,0.0,0.0,0.0,0.0,0.0,0.0,0.0,0.0,0.0,0.0,0.0,0.0,0.0,0.0,0.0,0.0,0.0,0.0,0.0,0.0,0.0,0.0,0.0,0.0,0.0,0.0,0.0,0.0,0.0,0.0,0.0,0.0,0.0,0.0,0.0,0.0,0.0,0.0,0.0,0.0,0.0,0.0,0.0,0.0,0.0,0.0,0.0,0.0,0.0,0.0,0.0,0.0,0.0,0.0,0.0,0.0,0.0,0.0,0.0,0.0,0.0,0.0,0.0,0.0,0.0,0.0,1.8335,1.7259,1.5132,1.3583,0.0,0.0,0.0,0.0,0.0,0.0,0.0,0.0,0.0,0.0,0.0,0.0,0.0,0.0,0.0,0.0,0.0,0.0,0.0,0.0,0.0,0.0,0.0,0.0,0.0,0.0,0.0,0.0,0.0,0.0,0.0,0.0,0.0,0.0,0.0,0.0,0.0,0.0,0.0,0.0,0.0,0.0,0.0,0.0,0.0,0.0,0.0,0.0,0.0,0.0,0.0,0.0,0.0,0.0,0.0,0.0,0.0,0.0,0.0,0.0,0.0,0.0,0.0,0.0,0.0,0.0,0.0,0.0,0.0,0.0,0.0,0.0,0.0,0.0,0.0,0.0,0.0,0.0,0.0,0.0,0.0,0.0,0.0,0.0,0.0,0.0,0.0,0.0,0.0,0.0,0.0,0.0,0.0,0.0,0.0,0.0,0.0,0.0,0.0,0.0,0.0,0.0,0.0,0.0,0.0,0.0,0.0,0.0,0.0,0.0,1.9223,0.0,1.6565,1.4266,1.2896,1.2606,0.0,0.0,0.0,0.0,0.0,0.0,0.0,0.0,0.0,0.0,0.0,0.0,0.0,0.0,0.0,0.0,0.0,0.0,0.0,0.0,0.0,0.0,0.0,0.0,0.0,0.0,0.0,0.0,0.0,0.0,0.0,0.0,0.0,0.0,0.0,0.0,0.0,0.0,0.0,0.0,0.0,0.0,0.0,0.0,0.0,0.0,0.0,0.0,0.0,0.0,0.0,0.0,0.0,0.0,0.0,0.0,0.0,0.0,0.0,0.0,0.0,0.0,0.0,0.0,0.0,0.0,0.0,0.0,0.0,0.0,0.0,0.0,0.0,0.0,0.0,0.0,0.0,0.0,0.0,0.0,0.0,0.0,0.0,0.0,0.0,0.0,0.0,0.0,0.0,0.0,0.0,0.0,0.0,0.0,0.0,0.0,0.0,0.0,0.0,0.0,0.0,0.0,0.0,0.0,0.0,0.0,0.0,0.0,0.0,2.0394,1.9094,1.6997,1.6226,1.4338,0.0,0.0,0.0,0.0,0.0,0.0,0.0,0.0,0.0,0.0,0.0,0.0,0.0,0.0,0.0,0.0,0.0,0.0,0.0,0.0,0.0,0.0,0.0,0.0,0.0,0.0,0.0,0.0,0.0,0.0,0.0,0.0,0.0,0.0,0.0,0.0,0.0,0.0,0.0,0.0,0.0,0.0,0.0,0.0,0.0,0.0,0.0,0.0,0.0,0.0,0.0,0.0,0.0,0.0,0.0,0.0,0.0,0.0,0.0,0.0,0.0,0.0,0.0,0.0,0.0,0.0,0.0,0.0,0.0,0.0,0.0,0.0,0.0,0.0,0.0,0.0,0.0,0.0,0.0,0.0,0.0,0.0,0.0,0.0,0.0,0.0,0.0,0.0,0.0,0.0,0.0,0.0,0.0,0.0,0.0,0.0,0.0,0.0,0.0,0.0,0.0,0.0,0.0,0.0,0.0,0.0,0.0,0.0,0.0,2.0163,1.8504,1.6967,1.5852,1.3891,1.2576,0.0,0.0,0.0,0.0,0.0,0.0,0.0,0.0,0.0,0.0,0.0,0.0,0.0,0.0,0.0,0.0,0.0,0.0,0.0,0.0,0.0,0.0,0.0,0.0,0.0,0.0,0.0,0.0,0.0,0.0,0.0,0.0,0.0,0.0,0.0,0.0,0.0,0.0,0.0,0.0,0.0,0.0,0.0,0.0,0.0,0.0,0.0,0.0,0.0,0.0,0.0,0.0,0.0,0.0,0.0,0.0,0.0,0.0,0.0,0.0,0.0,0.0,0.0,0.0,0.0,0.0,0.0,0.0,0.0,0.0,0.0,0.0,0.0,0.0,0.0,0.0,0.0,0.0,0.0,0.0,0.0,0.0,0.0,0.0,0.0,0.0,0.0,0.0,0.0,0.0,0.0,0.0,0.0,0.0,0.0,0.0,0.0,0.0,0.0,0.0,0.0,0.0,0.0,0.0,0.0,0.0,0.0,0.0,0.0,1.9815,0.0,1.6189,0.0,1.3096,1.1823,0.0,0.0,0.0,0.0,0.0,0.0,0.0,0.0,0.0,0.0,0.0,0.0,0.0,0.0,0.0,0.0,0.0,0.0,0.0,0.0,0.0,0.0,0.0,0.0,0.0,0.0,0.0,0.0,0.0,0.0,0.0,0.0,0.0,0.0,0.0,0.0,0.0,0.0,0.0,0.0,0.0,0.0,0.0,0.0,0.0,0.0,0.0,0.0,0.0,0.0,0.0,0.0,0.0,0.0,0.0,0.0,0.0,0.0,0.0,0.0,0.0,0.0,0.0,0.0,0.0,0.0,0.0,0.0,0.0,0.0,0.0,0.0,0.0,0.0,0.0,0.0,0.0,0.0,0.0,0.0,0.0,0.0,0.0,0.0,0.0,0.0,0.0,0.0,0.0,0.0,0.0,0.0,0.0,0.0,0.0,0.0,0.0,0.0,0.0,0.0,0.0,0.0,0.0,0.0,0.0,0.0,0.0,0.0,1.96,2.0069,1.8532,1.7021,1.5909,1.4142,1.2255,0.0,0.0,0.0,0.0,0.0,0.0,0.0,0.0,0.0,0.0,0.0,0.0,0.0,0.0,0.0,0.0,0.0,0.0,0.0,0.0,0.0,0.0,0.0,0.0,0.0,0.0,0.0,0.0,0.0,0.0,0.0,0.0,0.0,0.0,0.0,0.0,0.0,0.0,0.0,0.0,0.0,0.0,0.0,0.0,0.0,0.0,0.0,0.0,0.0,0.0,0.0,0.0,0.0,0.0,0.0,0.0,0.0,0.0,0.0,0.0,0.0,0.0,0.0,0.0,0.0,0.0,0.0,0.0,0.0,0.0,0.0,0.0,0.0,0.0,0.0,0.0,0.0,0.0,0.0,0.0,0.0,0.0,0.0,0.0,0.0,0.0,0.0,0.0,0.0,0.0,0.0,0.0,0.0,0.0,0.0,0.0,0.0,0.0,0.0,0.0,0.0,0.0,0.0,0.0,0.0,0.0,0.0,0.0,0.0,1.8218,1.7658,1.6492,1.4779,1.3485,1.2426,0.0,0.0,0.0,0.0,0.0,0.0,0.0,0.0,0.0,0.0,0.0,0.0,0.0,0.0,0.0,0.0,0.0,0.0,0.0,0.0,0.0,0.0,0.0,0.0,0.0,0.0,0.0,0.0,0.0,0.0,0.0,0.0,0.0,0.0,0.0,0.0,0.0,0.0,0.0,0.0,0.0,0.0,0.0,0.0,0.0,0.0,0.0,0.0,0.0,0.0,0.0,0.0,0.0,0.0,0.0,0.0,0.0,0.0,0.0,0.0,0.0,0.0,0.0,0.0,0.0,0.0,0.0,0.0,0.0,0.0,0.0,0.0,0.0,0.0,0.0,0.0,0.0,0.0,0.0,0.0,0.0,0.0,0.0,0.0,0.0,0.0,0.0,0.0,0.0,0.0,0.0,0.0,0.0,0.0,0.0,0.0,0.0,0.0,0.0,0.0,0.0,0.0,0.0,0.0,0.0,0.0,0.0,0.0,0.0,1.7759,1.7957,1.7302,1.5699,1.4295,1.3337,1.2788,0.0,0.0,0.0,0.0,0.0,0.0,0.0,0.0,0.0,0.0,0.0,0.0,0.0,0.0,0.0,0.0,0.0,0.0,0.0,0.0,0.0,0.0,0.0,0.0,0.0,0.0,0.0,0.0,0.0,0.0,0.0,0.0,0.0,0.0,0.0,0.0,0.0,0.0,0.0,0.0,0.0,0.0,0.0,0.0,0.0,0.0,0.0,0.0,0.0,0.0,0.0,0.0,0.0,0.0,0.0,0.0,0.0,0.0,0.0,0.0,0.0,0.0,0.0,0.0,0.0,0.0,0.0,0.0,0.0,0.0,0.0,0.0,0.0,0.0,0.0,0.0,0.0,0.0,0.0,0.0,0.0,0.0,0.0,0.0,0.0,0.0,0.0,0.0,0.0,0.0,0.0,0.0,0.0,0.0,0.0,0.0,0.0,0.0,0.0,0.0,0.0,0.0,0.0,0.0,0.0,0.0,0.0,0.0,1.8313,1.9214,1.9129,1.7992,1.6294,1.4952,0.0,0.0,0.0,0.0,0.0,0.0,0.0,0.0,0.0,0.0,0.0,0.0,0.0,0.0,0.0,0.0,0.0,0.0,0.0,0.0,0.0,0.0,0.0,0.0,0.0,0.0,0.0,0.0,0.0,0.0,0.0,0.0,0.0,0.0,0.0,0.0,0.0,0.0,0.0,0.0,0.0,0.0,0.0,0.0,0.0,0.0,0.0,0.0,0.0,0.0,0.0,0.0,0.0,0.0,0.0,0.0,0.0,0.0,0.0,0.0,0.0,0.0,0.0,0.0,0.0,0.0,0.0,0.0,0.0,0.0,0.0,0.0,0.0,0.0,0.0,0.0,0.0,0.0,0.0,0.0,0.0,0.0,0.0,0.0,0.0,0.0,0.0,0.0,0.0,0.0,0.0,0.0,0.0,0.0,0.0,0.0,0.0,0.0,0.0,0.0,0.0,0.0,0.0,0.0,0.0,0.0,0.0,0.0,0.0,1.9786,2.0408,1.9504,1.7043,1.6772,1.604,0.0,0.0,0.0,0.0,0.0,0.0,0.0,0.0,0.0,0.0,0.0,0.0,0.0,0.0,0.0,0.0,0.0,0.0,0.0,0.0,0.0,0.0,0.0,0.0,0.0,0.0,0.0,0.0,0.0,0.0,0.0,0.0,0.0,0.0,0.0,0.0,0.0,0.0,0.0,0.0,0.0,0.0,0.0,0.0,0.0,0.0,0.0,0.0,0.0,0.0,0.0,0.0,0.0,0.0,0.0,0.0,0.0,0.0,0.0,0.0,0.0,0.0,0.0,0.0,0.0,0.0,0.0,0.0,0.0,0.0,0.0,0.0,0.0,0.0,0.0,0.0,0.0,0.0,0.0,0.0,0.0,0.0,0.0,0.0,0.0,0.0,0.0,0.0,0.0,0.0,0.0,0.0,0.0,0.0,0.0,0.0,0.0,0.0,0.0,0.0,0.0,0.0,0.0,0.0,0.0,0.0,0.0,0.0,2.0559,2.069,2.0978,2.0214,1.8268,1.8377,1.7807,0.0,0.0,0.0,0.0,0.0,0.0,0.0,0.0,0.0,0.0,0.0,0.0,0.0,0.0,0.0,0.0,0.0,0.0,0.0,0.0,0.0,0.0,0.0,0.0,0.0,0.0,0.0,0.0,0.0,0.0,0.0,0.0,0.0,0.0,0.0,0.0,0.0,0.0,0.0,0.0,0.0,0.0,0.0,0.0,0.0,0.0,0.0,0.0,0.0,0.0,0.0,0.0,0.0,0.0,0.0,0.0,0.0,0.0,0.0,0.0,0.0,0.0,0.0,0.0,0.0,0.0,0.0,0.0,0.0,0.0,0.0,0.0,0.0,0.0,0.0,0.0,0.0,0.0,0.0,0.0,0.0,0.0,0.0,0.0,0.0,0.0,0.0,0.0,0.0,0.0,0.0,0.0,0.0,0.0,0.0,0.0,0.0,0.0,0.0,0.0,0.0,0.0,0.0,0.0,0.0,0.0,0.0,0.0,2.0575,2.1229,2.11,2.0942,2.0681,2.0354,1.9673,0.0,0.0,0.0,0.0,0.0,0.0,0.0,0.0,0.0,0.0,0.0,0.0,0.0,0.0,0.0,0.0,0.0,0.0,0.0,0.0,0.0,0.0,0.0,0.0,0.0,0.0,0.0,0.0,0.0,0.0,0.0,0.0,0.0,0.0,0.0,0.0,0.0,0.0,0.0,0.0,0.0,0.0,0.0,0.0,0.0,0.0,0.0,0.0,0.0,0.0,0.0,0.0,0.0,0.0,0.0,0.0,0.0,0.0,0.0,0.0,0.0,0.0,0.0,0.0,0.0,0.0,0.0,0.0,0.0,0.0,0.0,0.0,0.0,0.0,0.0,0.0,0.0,0.0,0.0,0.0,0.0,0.0,0.0,0.0,0.0,0.0,0.0,0.0,0.0,0.0,0.0,0.0,0.0,0.0,0.0,0.0,0.0,0.0,0.0,0.0,0.0,0.0,0.0,0.0,0.0,0.0,0.0,0.0,2.0869,2.1462,2.1011,2.0742,2.0675,2.0167,1.9559,0.0,0.0,0.0,0.0,0.0,0.0,0.0,0.0,0.0,0.0,0.0,0.0,0.0,0.0,0.0,0.0,0.0,0.0,0.0,0.0,0.0,0.0,0.0,0.0,0.0,0.0,0.0,0.0,0.0,0.0,0.0,0.0,0.0,0.0,0.0,0.0,0.0,0.0,0.0,0.0,0.0,0.0,0.0,0.0,0.0,0.0,0.0,0.0,1.1867,0.0,0.0,0.0,0.0,0.0,0.0,0.0,0.0,0.0,0.0,0.0,0.0,0.0,0.0,0.0,0.0,0.0,0.0,0.0,0.0,0.0,0.0,0.0,0.0,0.0,0.0,0.0,0.0,0.0,0.0,0.0,0.0,0.0,0.0,0.0,0.0,0.0,0.0,0.0,0.0,0.0,0.0,0.0,0.0,0.0,0.0,0.0,0.0,0.0,0.0,0.0,0.0,0.0,0.0,0.0,0.0,0.0,0.0,0.0,2.0949,2.1357,2.0971,2.0608,2.0461,2.0034,1.9526,0.0,0.0,0.0,0.0,0.0,0.0,0.0,0.0,0.0,0.0,0.0,0.0,0.0,0.0,0.0,0.0,0.0,0.0,0.0,0.0,0.0,0.0,0.0,0.0,0.0,0.0,0.0,0.0,0.0,0.0,0.0,0.0,0.0,0.0,0.0,0.0,0.0,0.0,0.0,0.0,0.0,0.0,0.0,0.0,0.0,0.0,0.0,0.0,0.0,0.0,0.0,0.0,0.0,0.0,0.0,0.0,0.0,0.0,0.0,0.0,0.0,0.0,0.0,0.0,0.0,0.0,0.0,0.0,0.0,0.0,0.0,0.0,0.0,0.0,0.0,0.0,0.0,0.0,0.0,0.0,0.0,0.0,0.0,0.0,0.0,0.0,0.0,0.0,0.0,0.0,0.0,0.0,0.0,0.0,0.0,0.0,0.0,0.0,0.0,0.0,0.0,0.0,0.0,0.0,0.0,0.0,0.0,2.105,2.083,2.1187,2.0862,2.0482,2.0107,1.9887,1.9459,1.8871,0.0,0.0,0.0,0.0,0.0,0.0,0.0,0.0,0.0,0.0,0.0,0.0,0.0,0.0,0.0,0.0,0.0,0.0,0.0,0.0,0.0,0.0,0.0,0.0,0.0,0.0,0.0,0.0,0.0,0.0,0.0,0.0,0.0,0.0,0.0,0.0,0.0,0.0,1.9918,2.0384,0.0,0.0,0.0,0.0,0.0,0.0,0.0,0.0,1.1637,0.0,0.0,0.0,0.0,0.0,0.0,0.0,0.0,0.0,0.0,0.0,0.0,0.0,0.0,0.0,0.0,0.0,0.0,0.0,0.0,0.0,0.0,0.0,0.0,0.0,0.0,0.0,0.0,0.0,0.0,0.0,0.0,0.0,0.0,0.0,0.0,0.0,0.0,0.0,0.0,0.0,0.0,0.0,0.0,0.0,0.0,0.0,0.0,0.0,0.0,0.0,0.0,0.0,0.0,0.0,0.0,2.1672,2.1082,2.0861,2.1166,2.064,2.0211,1.9867,1.9593,1.9165,1.8577,0.0,0.0,0.0,0.0,0.0,0.0,0.0,0.0,0.0,0.0,0.0,0.0,0.0,0.0,0.0,0.0,0.0,0.0,0.0,0.0,0.0,0.0,0.0,0.0,0.0,0.0,0.0,0.0,0.0,0.0,0.0,0.0,0.0,0.0,0.0,0.0,0.0,0.0,0.0,2.0655,1.9661,0.0,0.0,0.0,0.0,0.0,0.0,0.0,0.0,1.1697,0.0,0.0,0.0,0.0,0.0,0.0,0.0,0.0,0.0,0.0,0.0,0.0,0.0,0.0,0.0,0.0,0.0,0.0,0.0,0.0,0.0,0.0,0.0,0.0,0.0,0.0,0.0,0.0,0.0,0.0,0.0,0.0,0.0,0.0,0.0,0.0,0.0,0.0,0.0,0.0,0.0,0.0,0.0,0.0,0.0,0.0,0.0,0.0,0.0,0.0,0.0,0.0,0.0,0.0,0.0,2.1335,2.0939,2.085,2.1166,2.075,2.0302,1.98,1.9368,1.8866,0.0,0.0,0.0,0.0,0.0,0.0,0.0,0.0,0.0,0.0,0.0,0.0,0.0,0.0,0.0,0.0,0.0,0.0,0.0,0.0,0.0,0.0,0.0,0.0,0.0,0.0,0.0,0.0,0.0,0.0,0.0,0.0,0.0,0.0,0.0,0.0,0.0,0.0,0.0,0.0,2.102,2.0337,1.7995,0.0,0.0,0.0,0.0,0.0,0.0,1.1628,1.1627,0.0,0.0,0.0,0.0,0.0,0.0,0.0,0.0,0.0,0.0,0.0,0.0,0.0,0.0,0.0,0.0,0.0,0.0,0.0,0.0,0.0,0.0,0.0,0.0,0.0,0.0,0.0,0.0,0.0,0.0,0.0,0.0,0.0,0.0,0.0,0.0,0.0,0.0,0.0,0.0,0.0,0.0,0.0,0.0,0.0,0.0,0.0,0.0,0.0,0.0,0.0,0.0,0.0,0.0,0.0,2.1042,2.0765,2.0737,2.1074,2.0861,2.0457,1.9924,1.9345,1.8775,0.0,0.0,0.0,0.0,0.0,0.0,0.0,0.0,0.0,0.0,0.0,0.0,0.0,0.0,0.0,0.0,0.0,0.0,0.0,0.0,0.0,0.0,0.0,0.0,0.0,0.0,0.0,0.0,0.0,0.0,0.0,0.0,0.0,0.0,0.0,0.0,0.0,0.0,0.0,0.0,0.0,2.0838,1.9072,1.7677,0.0,0.0,0.0,0.0,1.1579,1.1673,0.0,0.0,0.0,0.0,0.0,0.0,0.0,0.0,0.0,0.0,0.0,0.0,0.0,0.0,0.0,0.0,0.0,0.0,0.0,0.0,0.0,0.0,0.0,0.0,0.0,0.0,0.0,0.0,0.0,0.0,0.0,0.0,0.0,0.0,0.0,0.0,0.0,0.0,0.0,0.0,0.0,0.0,0.0,0.0,0.0,0.0,0.0,0.0,0.0,0.0,0.0,0.0,0.0,0.0,0.0,0.0,2.0706,2.0446,2.0417,2.0737,2.0716,2.0536,2.0263,1.9878,1.932,0.0,0.0,0.0,0.0,0.0,0.0,0.0,0.0,0.0,0.0,0.0,0.0,0.0,0.0,0.0,0.0,0.0,0.0,0.0,0.0,0.0,0.0,0.0,0.0,0.0,0.0,0.0,0.0,0.0,0.0,0.0,0.0,0.0,0.0,0.0,0.0,0.0,0.0,0.0,0.0,0.0,2.0344,1.8998,1.7518,1.6208,0.0,0.0,1.2373,1.2508,1.2251,0.0,0.0,0.0,0.0,0.0,0.0,0.0,0.0,0.0,0.0,0.0,0.0,0.0,0.0,0.0,0.0,0.0,0.0,0.0,0.0,0.0,0.0,0.0,0.0,0.0,0.0,0.0,0.0,0.0,0.0,0.0,0.0,0.0,0.0,0.0,0.0,0.0,0.0,0.0,0.0,0.0,0.0,0.0,0.0,0.0,0.0,0.0,0.0,0.0,0.0,0.0,0.0,0.0,0.0,0.0,1.9067,2.0135,2.0216,2.0434,2.0938,2.0967,2.0766,2.0309,1.982,1.9073,0.0,0.0,0.0,0.0,0.0,0.0,0.0,0.0,0.0,0.0,0.0,0.0,0.0,0.0,0.0,0.0,0.0,0.0,0.0,0.0,0.0,0.0,0.0,0.0,0.0,0.0,0.0,0.0,0.0,0.0,0.0,0.0,0.0,0.0,0.0,0.0,0.0,0.0,0.0,0.0,0.0,0.0,1.9942,1.8087,0.0,0.0,0.0,1.2532,1.2332,0.0,0.0,0.0,0.0,0.0,0.0,0.0,0.0,0.0,0.0,0.0,0.0,0.0,0.0,0.0,0.0,0.0,0.0,0.0,0.0,0.0,0.0,0.0,0.0,0.0,0.0,0.0,0.0,0.0,0.0,0.0,0.0,0.0,0.0,0.0,0.0,0.0,0.0,0.0,0.0,0.0,0.0,0.0,0.0,0.0,0.0,0.0,0.0,0.0,0.0,0.0,0.0,0.0,0.0,0.0,0.0,0.0,1.9978,2.0321,2.0659,2.094,2.0969,2.0739,2.0276,1.9776,0.0,0.0,0.0,0.0,0.0,0.0,0.0,0.0,0.0,0.0,0.0,0.0,0.0,0.0,0.0,0.0,0.0,0.0,0.0,0.0,0.0,0.0,0.0,0.0,0.0,0.0,0.0,1.5286,0.0,0.0,0.0,0.0,0.0,0.0,0.0,0.0,0.0,0.0,0.0,0.0,0.0,0.0,2.0881,2.0584,1.8796,1.7398,0.0,0.0,1.3205,1.2826,1.2822,1.2696,0.0,0.0,0.0,0.0,0.0,0.0,0.0,0.0,0.0,0.0,0.0,0.0,0.0,0.0,0.0,0.0,0.0,0.0,0.0,0.0,0.0,0.0,0.0,0.0,0.0,0.0,0.0,0.0,0.0,0.0,0.0,0.0,0.0,0.0,0.0,0.0,0.0,0.0,0.0,0.0,0.0,0.0,0.0,0.0,0.0,0.0,0.0,0.0,0.0,0.0,0.0,0.0,0.0,0.0,0.0,2.0652,2.111,2.1009,2.0336,2.0249,2.0234,2.0212,1.9945,1.9197,0.0,0.0,0.0,0.0,0.0,0.0,0.0,0.0,0.0,0.0,0.0,0.0,0.0,0.0,0.0,0.0,0.0,0.0,0.0,0.0,0.0,0.0,0.0,0.0,0.0,0.0,0.0,0.0,0.0,0.0,0.0,0.0,0.0,0.0,0.0,0.0,0.0,0.0,0.0,0.0,0.0,2.0241,2.0219,1.9362,1.8797,0.0,0.0,1.4901,1.4891,1.3726,1.274,1.2252,0.0,0.0,0.0,0.0,0.0,0.0,0.0,0.0,0.0,0.0,0.0,0.0,0.0,0.0,0.0,0.0,0.0,0.0,0.0,0.0,0.0,0.0,0.0,0.0,0.0,0.0,0.0,0.0,0.0,0.0,0.0,0.0,0.0,0.0,0.0,0.0,0.0,0.0,0.0,0.0,0.0,0.0,0.0,0.0,0.0,0.0,0.0,0.0,0.0,0.0,0.0,0.0,0.0,2.0724,2.1454,2.2094,2.2305,2.2239,2.2247,2.2143,2.1925,2.184,2.1119,0.0,0.0,0.0,0.0,0.0,0.0,0.0,0.0,0.0,0.0,0.0,0.0,0.0,0.0,0.0,0.0,0.0,0.0,0.0,0.0,0.0,0.0,0.0,0.0,0.0,0.0,0.0,0.0,1.8437,1.8361,1.8527,0.0,0.0,0.0,0.0,0.0,0.0,0.0,0.0,0.0,0.0,2.0183,2.019,1.9398,0.0,0.0,1.7612,1.5967,1.5203,1.4731,1.3981,1.2831,1.2624,0.0,0.0,0.0,0.0,0.0,0.0,0.0,0.0,0.0,0.0,0.0,0.0,0.0,0.0,0.0,0.0,0.0,0.0,0.0,0.0,0.0,0.0,0.0,0.0,0.0,0.0,0.0,0.0,0.0,0.0,0.0,0.0,0.0,0.0,0.0,0.0,0.0,0.0,0.0,0.0,0.0,0.0,0.0,0.0,0.0,0.0,0.0,0.0,0.0,0.0,0.0,0.0,2.1538,2.2153,2.2961,2.3271,2.3228,2.3184,2.3108,2.2852,2.2835,2.2227,0.0,0.0,0.0,0.0,0.0,0.0,0.0,0.0,0.0,0.0,0.0,0.0,0.0,0.0,0.0,0.0,0.0,0.0,0.0,0.0,0.0,0.0,0.0,0.0,0.0,0.0,0.0,0.0,1.9844,1.9575,1.932,0.0,0.0,0.0,0.0,0.0,0.0,0.0,0.0,0.0,0.0,2.0285,2.0183,1.9808,1.9608,1.9853,1.8325,1.6768,1.5755,1.5449,1.4803,1.3403,0.0,0.0,0.0,0.0,0.0,0.0,0.0,0.0,0.0,0.0,0.0,0.0,0.0,0.0,0.0,0.0,0.0,0.0,0.0,0.0,0.0,0.0,0.0,0.0,0.0,0.0,0.0,0.0,0.0,0.0,2.3908,0.0,0.0,0.0,0.0,0.0,0.0,0.0,0.0,0.0,0.0,0.0,0.0,0.0,0.0,0.0,0.0,0.0,0.0,0.0,0.0,0.0,0.0,2.2539,2.282,2.3663,2.3619,2.2627,2.2568,2.2577,2.261,2.2551,2.2019,2.0971,0.0,0.0,0.0,0.0,0.0,0.0,0.0,0.0,0.0,0.0,0.0,0.0,0.0,0.0,0.0,0.0,0.0,0.0,0.0,0.0,0.0,0.0,0.0,0.0,0.0,0.0,2.1266,2.0683,2.0218,0.0,0.0,0.0,0.0,0.0,0.0,0.0,0.0,0.0,0.0,2.0396,2.0496,2.023,2.0723,2.106,2.1074,1.9022,1.7235,1.6771,1.5924,1.4976,0.0,0.0,0.0,0.0,0.0,0.0,0.0,0.0,0.0,0.0,0.0,0.0,0.0,0.0,0.0,0.0,0.0,0.0,0.0,0.0,0.0,0.0,0.0,0.0,0.0,0.0,0.0,2.5326,2.4747,0.0,0.0,0.0,0.0,0.0,0.0,0.0,0.0,0.0,0.0,0.0,2.5678,2.5978,0.0,0.0,0.0,0.0,0.0,0.0,0.0,0.0,0.0,0.0,0.0,0.0,2.352,2.3868,2.4737,2.4971,2.4618,2.4618,2.4618,2.4618,2.4618,2.3788,2.1997,0.0,0.0,0.0,0.0,0.0,0.0,0.0,0.0,0.0,0.0,0.0,0.0,0.0,0.0,0.0,0.0,0.0,0.0,0.0,0.0,0.0,0.0,0.0,0.0,0.0,2.3402,0.0,0.0,0.0,0.0,0.0,0.0,0.0,0.0,0.0,0.0,0.0,2.0021,2.0135,2.0234,2.0337,2.0184,2.0391,2.064,0.0,0.0,0.0,0.0,0.0,0.0,0.0,0.0,0.0,0.0,0.0,0.0,0.0,0.0,1.815,1.6641,1.6298,1.6362,1.682,0.0,0.0,0.0,0.0,0.0,0.0,0.0,0.0,0.0,0.0,0.0,0.0,0.0,0.0,2.681,0.0,2.5623,0.0,0.0,0.0,0.0,0.0,0.0,0.0,0.0,2.6646,2.6687,2.6418,2.6708,2.6698,0.0,2.6351,2.5778,0.0,0.0,0.0,0.0,0.0,0.0,0.0,0.0,2.4493,2.4891,2.56,2.5927,2.5878,2.583,2.5771,2.5684,2.5586,2.4705,2.3112,2.2675,2.1878,0.0,0.0,0.0,0.0,0.0,0.0,0.0,0.0,0.0,0.0,0.0,0.0,0.0,0.0,0.0,0.0,0.0,0.0,0.0,0.0,0.0,0.0,0.0,2.4395,0.0,0.0,0.0,0.0,0.0,0.0,0.0,0.0,0.0,2.0269,2.0248,2.0279,2.0395,2.0551,2.0613,2.0506,0.0,0.0,0.0,0.0,0.0,0.0,0.0,1.766,1.7459,1.6888,1.6582,1.6859,1.7914,1.857,1.7983,0.0,0.0,1.7351,1.704,1.7045,1.7103,1.7301,1.7605,1.7999,1.8084,1.8192,0.0,0.0,0.0,0.0,0.0,0.0,0.0,0.0,2.9479,2.8971,0.0,2.8064,0.0,0.0,0.0,0.0,0.0,2.6246,0.0,0.0,2.7092,2.7309,2.7299,2.7299,2.7299,2.732,2.7289,2.705,2.6527,2.5509,0.0,0.0,0.0,0.0,0.0,0.0,2.541,2.5775,2.6207,2.64,2.6149,2.6091,2.6014,2.5732,2.536,2.4817,2.4162,2.3751,2.3046,2.1989,2.131,0.0,0.0,0.0,0.0,0.0,0.0,0.0,0.0,0.0,0.0,0.0,0.0,0.0,0.0,0.0,0.0,0.0,0.0,0.0,0.0,2.4111,0.0,0.0,0.0,0.0,0.0,0.0,0.0,0.0,0.0,0.0,2.0794,2.0589,2.0654,2.0973,0.0,0.0,0.0,0.0,2.1115,2.1052,1.9822,1.8971,1.9084,1.8928,1.8684,1.8218,0.0,0.0,1.8293,1.9203,1.9596,1.8013,1.8886,1.9801,1.9718,1.8537,1.772,1.766,1.772,1.7687,1.7726,1.8551,1.9212,3.2869,0.0,0.0,0.0,0.0,3.0215,3.0123,2.9997,2.9997,2.9673,2.9083,2.8745,0.0,0.0,0.0,0.0,0.0,0.0,2.7777,2.8054,2.7568,2.732,2.732,2.732,2.732,2.732,2.732,2.7237,2.7092,2.6796,2.593,2.4629,0.0,0.0,0.0,0.0,2.5702,2.5795,2.6265,2.6448,2.64,2.64,2.6352,2.6255,2.5827,2.5375,2.4907,2.4466,2.3764,2.2886,2.2341,0.0,0.0,0.0,0.0,0.0,0.0,0.0,0.0,0.0,0.0,0.0,0.0,0.0,0.0,0.0,0.0,0.0,0.0,0.0,2.4215,2.4382,2.4658,0.0,0.0,0.0,0.0,0.0,0.0,0.0,0.0,0.0,2.2416,2.1595,2.1268,0.0,0.0,2.1099,2.1046,2.0658,2.0491,2.0734,0.0,0.0,0.0,1.9912,1.964,2.0135,2.0344,2.0249,1.959,1.9829,1.9897,1.9182,1.9442,1.9672,1.9463,1.9136,1.8795,1.8795,1.8803,1.8795,1.8848,1.9116,1.9272,3.4425,3.2729,3.1955,3.1538,3.1347,3.1347,3.1347,3.1347,3.1347,3.1212,3.0902,3.0611,3.001,2.9174,2.8823,0.0,0.0,0.0,2.9024,2.9268,2.8713,2.8445,2.8434,2.8434,2.8211,2.7857,2.7857,2.7668,2.732,2.732,2.6708,2.5632,0.0,0.0,2.5365,2.5875,2.6205,2.6378,2.669,2.6794,2.6651,2.6544,2.6496,2.6486,2.6054,2.5678,2.5326,2.487,2.4358,2.3734,2.3193,2.2716,0.0,0.0,0.0,0.0,0.0,0.0,0.0,0.0,0.0,0.0,0.0,2.3153,2.2418,0.0,0.0,0.0,2.3557,2.425,2.4476,2.4817,0.0,0.0,0.0,0.0,0.0,0.0,0.0,2.4137,2.4492,2.4442,2.3715,2.2712,2.2035,2.2017,2.1668,2.1319,2.1186,0.0,2.051,2.0725,2.0819,2.0941,2.107,2.0533,2.0241,2.0643,2.0536,2.0338,2.0183,2.0138,2.0034,1.9872,1.9879,1.9835,1.9628,1.9628,1.9524,1.9324,1.9272,1.9272,1.9272,1.9272,1.9272,3.5638,3.5454,3.4494,3.3727,3.3144,3.3136,3.3124,3.3124,3.3081,3.3124,3.3124,3.3124,3.2339,3.1063,3.0217,0.0,2.9834,3.0188,3.0306,3.0306,3.0249,3.0215,3.0215,3.0215,2.9715,2.8817,2.8817,2.8362,2.7573,2.7584,2.727,2.677,2.6759,2.6703,2.6625,2.6646,2.6874,2.7289,2.7309,2.7167,2.6948,2.6699,2.6544,2.6534,2.6081,2.572,2.5543,2.5064,2.4702,2.4464,2.3894,2.338,2.2961,0.0,0.0,0.0,0.0,0.0,0.0,0.0,0.0,0.0,0.0,0.0,0.0,0.0,0.0,0.0,2.4302,0.0,2.46,2.5357,0.0,0.0,0.0,2.5163,2.5192,2.5555,2.5441,2.4442,0.0,0.0,2.4849,0.0,2.2978,2.229,2.2071,2.1806,2.1444,2.1131,2.0973,2.0965,2.0793,2.0742,2.1002,2.0796,2.0535,2.0304,2.0181,2.0197,2.0189,2.0189,2.0189,2.0138,2.0138,2.0138,2.0138,2.0086,1.9931,1.948,1.9376,1.9376,1.9428,1.9376,1.9376,3.6475,3.6067,3.5845,3.4946,3.3671,3.3257,3.3124,3.3124,3.3124,3.3124,3.3124,3.3124,3.2993,3.28,3.2732,3.2603,3.2444,3.1872,3.148,3.1226,3.0531,3.0215,3.0215,3.0215,3.0079,2.9852,2.9852,2.9726,2.9532,2.9532,2.9063,2.8236,2.819,2.7693,2.6646,2.6967,2.7195,2.7309,2.732,2.7251,2.7225,2.7119,2.7119,2.7119,2.6326,2.5853,2.5785,2.4988,2.4567,2.4487,2.4073,2.3732,2.3629,2.2393,0.0,0.0,0.0,0.0,0.0,0.0,0.0,0.0,0.0,2.4416,2.3287,0.0,2.458,0.0,2.4435,2.4776,2.5492,2.5461,0.0,0.0,2.6311,2.6366,2.6713,2.6846,2.6812,2.6562,2.6764,2.6627,2.5902,2.5591,2.5075,2.4106,2.2595,2.1491,2.1396,2.1099,2.0941,2.0921,2.1065,2.1168,2.095,2.09,2.0814,2.0727,2.0712,2.0712,2.0712,2.0712,2.066,2.0462,2.0411,2.0351,2.0138,2.0138,2.0086,1.9931,1.9931,1.9931,1.9931,1.9931,1.9835,3.6916,3.6621,3.6424,3.5628,3.4534,3.402,3.3596,3.3356,3.3356,3.3356,3.3356,3.3356,3.3428,3.3556,3.3628,3.3628,3.3513,3.2988,3.2673,3.2488,3.1996,3.1721,3.1645,3.1645,3.1335,3.0812,3.08,3.0576,3.0215,3.0215,2.9943,2.9406,2.9349,2.8997,2.8204,2.7589,2.732,2.732,2.732,2.732,2.7309,2.7102,2.7009,2.6978,2.6304,2.593,2.5865,2.5213,2.4807,2.4786,2.4373,2.4178,2.4157,2.367,2.3356,0.0,0.0,0.0,0.0,0.0,0.0,0.0,0.0,0.0,0.0,0.0,2.514,2.514,2.5326,2.5647,2.6179,2.6154,2.6341,2.6874,2.6926,2.7029,2.7289,2.732,2.732,2.732,2.732,2.7153,2.6739,2.6281,2.5779,2.5135,2.3622,2.2425,2.1911,2.1345,2.0925,2.0933,2.104,2.1103,2.0897,2.0925,2.0925,2.0925,2.0925,2.0925,2.0925,2.0925,2.0873,2.0719,2.0676,2.0624,2.0498,2.0447,2.0447,2.0447,2.0447,2.0344,2.0138,2.0138,2.0027,3.7214,3.7163,3.6687,3.6109,3.5436,3.4992,3.4358,3.3713,3.3713,3.3713,3.3713,3.3768,3.3755,3.3768,3.3755,3.3755,3.3755,3.3755,3.3725,3.3713,3.3713,3.3598,3.3428,3.3441,3.2902,3.1889,3.1845,3.1436,3.0609,3.0609,3.0519,3.0396,3.0396,3.0351,3.0125,2.8538,2.7678,2.7678,2.7536,2.7489,2.7489,2.7092,2.6883,2.6862,2.6515,2.6333,2.6259,2.5857,2.5627,2.5564,2.5238,2.5018,2.4955,2.5411,2.5639,0.0,2.6388,0.0,0.0,0.0,0.0,0.0,0.0,0.0,0.0,2.6858,2.6382,2.6194,2.6612,2.6837,2.6708,2.7071,2.732,2.732,2.732,2.732,2.732,2.732,2.732,2.732,2.732,2.732,2.7235,2.6476,2.5897,2.582,2.4971,2.3935,2.3079,2.1928,2.1173,2.113,2.0976,2.0956,2.0925,2.0925,2.0925,2.0925,2.0925,2.0925,2.0925,2.0925,2.0925,2.0873,2.0873,2.0873,2.0925,2.0873,2.0873,2.0873,2.0865,2.0712,2.0344,2.0241,2.0189,3.7749,3.7749,3.7645,3.6968,3.5978,3.5874,3.5007,3.3713,3.3713,3.3713,3.3713,3.3937,3.4034,3.4034,3.4189,3.4189,3.4034,3.4034,3.3894,3.3713,3.3713,3.3683,3.3641,3.3628,3.3501,3.333,3.3288,3.3116,3.276,3.2803,3.2283,3.1347,3.1359,3.0935,3.0215,0.0,0.0,0.0,2.8852,2.8456,2.8445,2.8358,2.8304,2.8293,2.8644,0.0,2.8202,2.8121,2.7906,2.7513,2.7782,0.0,0.0,0.0,0.0,0.0,0.0,0.0,0.0,0.0,0.0,0.0,2.873,2.8148,2.8514,2.9035,2.8902,2.7735,2.8034,2.8,2.7269,2.7258,2.732,2.732,2.732,2.732,2.732,2.732,2.732,2.732,2.732,2.732,2.7262,2.7119,2.6965,2.687,2.6081,2.5392,2.5099,2.342,2.2224,2.2131,2.1479,2.0917,2.0925,2.0925,2.0925,2.0925,2.0925,2.0925,2.0925,2.0925,2.0925,2.0925,2.0925,2.0925,2.0925,2.0925,2.0925,2.0925,2.0917,2.0873,2.0763,2.0755,2.066,3.79,0.0,3.79,3.7377,0.0,3.6227,3.5496,3.4464,3.4179,3.405,3.4063,3.4189,3.4243,3.423,3.4356,3.4314,3.4243,3.423,3.4202,3.405,3.405,3.3979,3.3894,3.3894,3.3852,3.3713,3.3713,3.3641,3.3556,3.3543,3.3245,3.263,3.2618,3.2389,3.194,3.1821,3.1247,3.0215,2.9726,2.9441,2.9441,2.9205,2.8959,2.8712,0.0,0.0,0.0,0.0,0.0,0.0,0.0,0.0,0.0,0.0,0.0,2.8681,2.9109,2.9475,2.9741,2.9982,3.0537,3.1478,3.129,3.0503,2.9262,2.9811,2.9886,2.9195,2.9306,2.9037,2.8128,2.7987,2.782,2.7404,2.732,2.732,2.732,2.732,2.732,2.732,2.732,2.732,2.732,2.732,2.732,2.7262,2.687,2.6466,2.6274,2.4648,2.3161,2.2577,2.1581,2.0925,2.0925,2.0925,2.0925,2.0925,2.0925,2.0925,2.0925,2.0925,2.0925,2.0925,2.0925,2.0925,2.0925,2.0925,2.0925,2.0901,2.0782,2.067,2.0662,2.0655,2.0548,3.79,3.79,3.79,3.756,3.6959,3.6358,3.5744,3.5103,0.0,0.0,0.0,3.4397,3.4397,3.4397,3.4397,3.4397,3.4397,3.4397,3.4397,3.4397,3.4397,3.4314,3.416,3.4147,3.4063,3.3852,3.3852,3.3797,3.3768,3.3755,3.3755,3.3713,3.3713,3.3713,3.367,3.3569,3.2587,3.0878,3.0576,3.0486,3.0519,3.0113,2.9604,2.9063,2.9211,2.9016,2.8331,2.8857,2.9122,2.9051,2.9152,2.9207,2.9094,2.9852,3.0252,3.0138,3.1013,3.1687,3.2093,3.2294,3.2651,3.3172,3.3356,3.2518,3.0355,3.0587,3.0756,3.0564,3.0564,3.017,2.9165,2.8888,2.8538,2.7752,2.7536,2.7452,2.7452,2.7404,2.7404,2.7404,2.7404,2.7404,2.7441,2.7441,2.7394,2.7357,2.7347,2.7394,2.7146,2.5674,2.3998,2.302,2.2021,2.1224,2.1173,2.0968,2.0917,2.0925,2.0925,2.0925,2.0925,2.0925,2.0925,2.0925,2.0925,2.0925,2.0925,2.0853,2.0829,2.0821,2.0543,2.0273,2.0226,2.021,2.0138,3.79,3.79,3.79,3.756,3.6959,3.6358,3.5508,3.4528,3.4424,3.4397,3.4397,3.4397,3.4397,3.4397,3.4397,3.4397,3.4397,3.4397,3.4397,0.0,3.4397,3.4397,3.4356,3.4356,3.4356,3.4314,3.4314,3.423,3.4076,3.4034,3.3949,3.3713,3.3713,3.3713,3.3713,3.3683,3.3501,3.3189,3.2021,3.1536,3.1757,3.1452,3.1033,3.0587,3.1265,3.1228,3.0285,3.0732,3.0794,3.0385,3.0769,3.0806,3.0397,3.0879,3.1023,3.062,3.1505,3.2009,3.1914,3.2739,3.3352,3.3586,3.3641,3.342,3.293,3.3054,3.2864,3.2127,3.1996,3.1577,3.0596,2.9806,2.9326,2.905,2.8387,2.7904,2.794,2.7715,2.7668,2.7857,2.7678,2.7678,2.7809,2.7857,2.7762,2.7631,2.7715,2.7904,2.762,2.6504,2.5138,2.3998,2.2961,2.2325,2.2274,2.1479,2.1224,2.0925,2.1019,2.1019,2.0968,2.0968,2.096,2.0909,2.0936,2.0936,2.092,2.0662,2.0512,2.0456,2.0186,1.9925,1.9702,1.9574,1.9646,3.79,3.79,3.79,3.7756,3.7416,3.6502,3.5443,3.4424,3.4397,3.4397,3.4397,3.4397,3.4397,3.4397,3.4397,3.4397,3.4397,3.4397,3.4397,3.4397,3.4397,3.4397,3.4397,3.4397,3.4397,3.4397,3.4397,3.4356,3.4285,3.4243,3.4189,3.4092,3.4063,3.4105,3.4063,3.3979,3.3979,3.405,3.3189,3.2803,3.2889,3.2803,3.2511,3.195,3.2369,3.2222,3.1434,3.1917,3.1968,3.1447,3.1902,3.1841,3.0976,3.114,3.1153,3.095,3.1369,3.1881,3.2373,3.3126,3.3598,3.3683,3.3839,3.3852,3.3768,3.3725,3.3543,3.3091,3.3061,3.2636,3.1741,3.1211,3.0754,3.0191,2.9761,2.9315,2.883,2.8656,2.8434,2.8081,2.7914,2.7857,2.7987,2.7987,2.7987,2.7857,2.7951,2.7987,2.7987,2.741,2.6542,2.5509,2.4473,2.3831,2.3723,2.3375,2.2885,2.2501,2.2156,2.181,2.1471,2.1369,2.1237,2.1083,2.1244,2.1204,2.0923,2.0629,2.0418,2.0124,1.9885,1.9598,1.9447,1.928,1.9145,3.79,3.79,3.79,3.7821,3.7599,3.6567,3.5534,3.462,3.4463,3.4397,3.4397,3.4397,3.4397,3.4397,3.4397,3.4397,3.4397,3.4397,3.4397,3.4397,3.4397,3.4397,3.4397,3.4397,3.4397,3.4397,3.4397,3.4397,3.4397,3.4397,3.4397,3.4397,3.4397,3.4397,3.4397,3.423,3.4243,3.4356,3.405,3.3839,3.381,3.3725,3.3456,3.2931,3.288,3.2664,3.2151,3.2498,3.2536,3.2164,3.238,3.2083,3.1278,3.1073,3.1073,3.1188,3.1329,3.1933,3.3052,3.3595,3.3852,3.3852,3.4076,3.416,3.416,3.3979,3.3852,3.3839,3.3839,3.353,3.292,3.2506,3.2147,3.1396,3.1098,3.0652,3.0033,2.967,2.928,2.8585,2.8269,2.8092,2.8186,2.8186,2.8186,2.8233,2.8139,2.8102,2.8139,2.8175,2.7799,2.701,2.5973,2.5188,2.513,2.4827,2.4445,2.3971,2.3624,2.3126,2.2634,2.2399,2.2146,2.1981,2.1893,2.1764,2.1145,2.0762,2.0576,2.0255,1.9955,1.9672,1.9631,1.9453,1.9128,3.79,3.79,3.79,3.7573,3.7063,3.6384,3.577,3.5168,3.4633,3.4397,3.4397,3.4397,3.4397,3.4397,3.4397,3.4397,3.4397,3.4397,3.4397,3.4397,3.4397,3.4397,3.4397,3.4397,3.4397,3.4397,3.4397,3.4397,3.4397,3.4397,3.4397,3.4397,3.4397,3.4397,3.4397,3.4356,3.4356,3.4397,3.4356,3.4243,3.4076,3.3797,3.3444,3.2905,3.2934,3.2652,3.2217,3.2126,3.2179,3.2049,3.1689,3.1342,3.1176,3.0778,3.0727,3.1201,3.1727,3.2618,3.3843,3.4204,3.4314,3.4356,3.4356,3.4356,3.4356,3.4314,3.4314,3.4314,3.4314,3.423,3.4176,3.3433,3.2938,3.2753,3.2091,3.1488,3.13,3.0418,2.9795,2.9988,2.9141,2.8477,2.8746,2.8699,2.871,2.8664,2.8477,2.8441,2.8571,2.8606,2.8617,2.8269,2.7284,2.6416,2.6224,2.5431,2.5101,2.4857,2.4671,2.4429,2.4149,2.3897,2.3771,2.3138,2.2944,2.2443,2.2026,2.1517,2.0861,2.0857,2.0542,2.0278,2.0215,2.0226,2.0093,3.79,3.79,3.79,3.756,3.6998,3.6737,3.6123,3.5299,3.5038,3.4737,3.4424,3.4397,3.4397,3.4397,3.4397,3.4397,3.4397,3.4397,3.4397,3.4397,3.4397,3.4397,3.4397,3.4397,3.4397,3.4397,3.4397,3.4397,3.4397,3.4397,3.4397,3.4397,3.4397,3.4397,3.4397,3.4397,3.4397,3.4397,3.4397,3.4356,3.4272,3.4189,3.403,3.3835,3.3809,3.3693,3.3472,3.3446,3.3303,3.2992,3.2745,3.2265,3.1591,3.1695,3.185,3.2136,3.2966,3.3708,3.4246,3.4356,3.4397,3.4397,3.4397,3.4397,3.4397,3.4397,3.4397,3.4397,3.4397,3.4397,3.4356,3.4037,3.3827,3.3784,3.3462,3.3036,3.2463,3.2016,3.1577,3.1089,3.0609,3.0079,2.9646,2.9152,2.885,2.8803,2.871,2.8721,2.8803,2.8803,2.8803,2.871,2.8175,2.7882,2.7731,2.7521,2.6829,2.6209,2.5787,2.5462,2.4648,2.4353,2.4095,2.3902,2.3673,2.3307,2.2841,2.2586,2.2113,2.1861,2.1734,2.1632,2.1908,2.1721,2.1543,3.79,3.79,3.79,3.7652,3.7246,3.7077,3.6436,3.5561,3.5365,3.4959,3.4424,3.4397,3.4397,3.4397,3.4397,3.4397,3.4397,3.4397,3.4397,3.4397,3.4397,3.4397,3.4397,3.4397,3.4397,3.4397,3.4397,3.4397,3.4397,3.4397,3.4397,3.4397,3.4397,3.4397,3.4397,3.4397,3.4397,3.4397,3.4397,3.4397,3.4397,3.4397,3.4397,3.4397,3.4397,3.4397,3.4397,3.4397,3.4228,3.3835,3.3679,3.3221,3.2372,3.2568,3.2764,3.2986,3.3849,3.4397,3.4397,3.4397,3.4397,3.4397,3.4397,3.4397,3.4397,3.4397,3.4397,3.4397,3.4397,3.4397,3.4397,3.4397,3.4397,3.4397,3.4397,3.4092,3.3475,3.3207,3.2679,3.2115,3.1633,3.1356,3.0643,2.9818,2.9244,2.9244,2.8978,2.8803,2.8803,2.8803,2.8803,2.8803,2.8803,2.8757,2.8803,2.8606,2.8261,2.7615,2.6846,2.6321,2.5224,2.5058,2.4872,2.5129,2.4785,2.4351,2.3843,2.3577,2.3246,2.2945,2.2804,2.2902,2.3008,2.2945,2.2945,3.79,3.79,3.79,3.7874,3.7821,3.7273,3.6658,3.5979,3.5534,3.4972,3.445,3.4397,3.4397,3.4397,3.4397,3.4397,3.4397,3.4397,3.4397,3.4397,3.4397,3.4397,3.4397,3.4397,3.4397,3.4397,3.4397,3.4397,3.4397,3.4397,3.4397,3.4397,3.4397,3.4397,3.4397,3.4397,3.4397,3.4397,3.4397,3.4397,3.4397,3.4397,3.4397,3.4397,3.4397,3.4397,3.4397,3.4397,3.4371,3.4358,3.3888,3.3574,3.3443,3.2999,3.2973,3.3535,3.4071,3.4397,3.4397,3.4397,3.4397,3.4397,3.4397,3.4397,3.4397,3.4397,3.4397,3.4397,3.4397,3.4397,3.4397,3.4397,3.4397,3.4397,3.4397,3.4356,3.4314,3.356,3.3079,3.2821,3.2246,3.1753,3.1533,3.0699,3.017,2.9909,2.9382,2.885,2.8803,2.8803,2.8803,2.8803,2.8803,2.8803,2.8803,2.8803,2.8549,2.7885,2.7422,2.7459,2.7203,2.6824,2.6487,2.6087,2.5422,2.4965,2.4732,2.4423,2.4069,2.3833,2.3833,2.393,2.4102,2.3887,2.393,3.79,3.79,3.79,3.79,3.7874,3.7665,3.7024,3.6109,3.59,3.5273,3.4502,3.4397,3.4397,3.4397,3.4397,3.4397,3.4397,3.4397,3.4397,3.4397,3.4397,3.4397,3.4397,3.4397,3.4397,3.4397,3.4397,3.4397,3.4397,3.4397,3.4397,3.4397,3.4397,3.4397,3.4397,3.4397,3.4397,3.4397,3.4397,3.4397,3.4397,3.4397,3.4397,3.4397,3.4397,3.4397,3.4397,3.4397,3.4397,3.4397,3.4201,3.3953,3.3613,3.3391,3.3522,3.4045,3.4293,3.4397,3.4397,3.4397,3.4397,3.4397,3.4397,3.4397,3.4397,3.4397,3.4397,3.4397,3.4397,3.4397,3.4397,3.4397,3.4397,3.4397,3.4397,3.4397,3.4356,3.4092,3.3911,3.3784,3.3079,3.2494,3.2321,3.1665,3.0878,3.0306,2.9909,2.952,2.8932,2.8803,2.885,2.8803,2.8803,2.8803,2.8803,2.8803,2.8596,2.7905,2.739,2.6954,2.6639,2.642,2.6085,2.6053,2.5582,2.5497,2.5295,2.5242,2.4893,2.4935,2.4935,2.485,2.5158,2.485,2.4935,3.79,3.79,3.79,3.79,3.79,3.79,3.7207,3.6162,3.6096,3.5456,3.4541,3.4397,3.4397,3.4397,3.4397,3.4397,3.4397,3.4397,3.4397,3.4397,3.4397,3.4397,3.4397,3.4397,3.4397,3.4397,3.4397,3.4397,3.4397,3.4397,3.4397,3.4397,3.4397,3.4397,3.4397,3.4397,3.4397,3.4397,3.4397,3.4397,3.4397,3.4397,3.4397,3.4397,3.4397,3.4397,3.4397,3.4397,3.4397,3.4397,3.4397,3.4228,3.3888,3.3862,3.4005,3.4345,3.4397,3.4397,3.4397,3.4397,3.4397,3.4397,3.4397,3.4397,3.4397,3.4397,3.4397,3.4397,3.4397,3.4397,3.4397,3.4397,3.4397,3.4397,3.4397,3.4397,3.4397,3.4397,3.4356,3.4259,3.3869,3.3505,3.3335,3.2593,3.1896,3.119,3.0866,3.0351,2.9852,2.9417,2.9244,2.9198,2.8978,2.885,2.8738,2.865,2.8265,2.7654,2.7293,2.6791,2.6267,2.6016,2.5895,2.5895,2.5895,2.5895,2.5895,2.5895,2.5895,2.5895,2.5728,2.5506,2.5686,2.5812,2.5686,3.79,3.79,3.79,3.79,3.79,3.79,3.722,3.6227,3.6109,3.5469,3.4476,3.4397,3.4397,3.4397,3.4397,3.4397,3.4397,3.4397,3.4397,3.4397,3.4397,3.4397,3.4397,3.4397,3.4397,3.4397,3.4397,3.4397,3.4397,3.4397,3.4397,3.4397,3.4397,3.4397,3.4397,3.4397,3.4397,3.4397,3.4397,3.4397,3.4397,3.4397,3.4397,3.4397,3.4397,3.4397,3.4397,3.4397,3.4397,3.4397,3.4397,3.4397,3.4332,3.4332,3.4384,3.4384,3.4397,3.4397,3.4397,3.4397,3.4397,3.4397,3.4397,3.4397,3.4397,3.4397,3.4397,3.4397,3.4397,3.4397,3.4397,3.4397,3.4397,3.4397,3.4397,3.4397,3.4397,3.4397,3.4397,3.4397,3.4259,3.4356,3.4176,3.356,3.2907,3.2593,3.2059,3.1488,3.1178,3.0609,3.026,2.9954,2.9543,2.913,2.8756,2.8364,2.7883,2.7424,2.725,2.6889,2.6267,2.5895,2.5895,2.5895,2.5895,2.5895,2.5895,2.5895,2.5895,2.5895,2.5895,2.5895,2.5895,2.5895,2.5895,3.79,3.79,3.79,3.79,3.79,3.79,3.722,3.6149,3.6109,3.5456,3.4541,3.4397,3.4397,3.4397,3.4397,3.4397,3.4397,3.4397,3.4397,3.4397,3.4397,3.4397,3.4397,3.4397,3.4397,3.4397,3.4397,3.4397,3.4397,3.4397,3.4397,3.4397,3.4397,3.4397,3.4397,3.4397,3.4397,3.4397,3.4397,3.4397,3.4397,3.4397,3.4397,3.4397,3.4397,3.4397,3.4397,3.4397,3.4397,3.4397,3.4397,3.4397,3.4397,3.4397,3.4397,3.4397,3.4397,3.4397,3.4397,3.4397,3.4397,3.4397,3.4397,3.4397,3.4397,3.4397,3.4397,3.4397,3.4397,3.4397,3.4397,3.4397,3.4397,3.4397,3.4397,3.4397,3.4397,3.4397,3.4397,3.4397,3.4397,3.4397,3.4356,3.3995,3.3687,3.3164,3.2766,3.2407,3.1753,3.1488,3.0833,3.0306,2.9841,2.9363,2.8798,2.8295,2.7832,2.7272,2.7009,2.6791,2.6212,2.5895,2.5895,2.5895,2.5895,2.5895,2.5895,2.5895,2.5895,2.5895,2.5895,2.5895,2.5895,2.5895,2.5895,3.79,3.79,3.79,3.79,3.79,3.79,3.722,3.6201,3.6109,3.5456,3.4554,3.4397,3.4397,3.4397,3.4397,3.4397,3.4397,3.4397,3.4397,3.4397,3.4397,3.4397,3.4397,3.4397,3.4397,3.4397,3.4397,3.4397,3.4397,3.4397,3.4397,3.4397,3.4397,3.4397,3.4397,3.4397,3.4397,3.4397,3.4397,3.4397,3.4397,3.4397,3.4397,3.4397,3.4397,3.4397,3.4397,3.4397,3.4397,3.4397,3.4397,3.4397,3.4397,3.4397,3.4397,3.4397,3.4397,3.4397,3.4397,3.4397,3.4397,3.4397,3.4397,3.4397,3.4397,3.4397,3.4397,3.4397,3.4397,3.4397,3.4397,3.4397,3.4397,3.4397,3.4397,3.4397,3.4397,3.4397,3.4397,3.4397,3.4397,3.4397,3.4397,3.4356,3.4176,3.3645,3.3518,3.3433,3.2722,3.2376,3.1753,3.1223,3.0956,3.0141,2.8869,2.8255,2.7778,2.7228,2.6715,2.6463,2.6048,2.5939,2.5895,2.5895,2.5895,2.5895,2.5895,2.5895,2.5895,2.5895,2.5895,2.5895,2.5895,2.5895,2.5895,3.79,3.79,3.79,3.79,3.79,3.79,3.7273,3.6292,3.6109,3.5495,3.4646,3.4437,3.4397,3.4397,3.4397,3.4397,3.4397,3.4397,3.4397,3.4397,3.4397,3.4397,3.4397,3.4397,3.4397,3.4397,3.4397,3.4397,3.4397,3.4397,3.4397,3.4397,3.4397,3.4397,3.4397,3.4397,3.4397,3.4397,3.4397,3.4397,3.4397,3.4397,3.4397,3.4397,3.4397,3.4397,3.4397,3.4397,3.4397,3.4397,3.4397,3.4397,3.4397,3.4397,3.4397,3.4397,3.4397,3.4397,3.4397,3.4397,3.4397,3.4397,3.4397,3.4397,3.4397,3.4397,3.4452,3.4439,3.4439,3.4397,3.4439,3.4397,3.4397,3.4397,3.4397,3.4397,3.4397,3.4397,3.4397,3.4397,3.4397,3.4397,3.4397,3.4397,3.4356,3.4314,3.4272,3.4134,3.4008,3.3475,3.3096,3.2519,3.1746,3.0823,2.9503,2.8769,2.8297,2.7536,2.6923,2.6466,2.6058,2.595,2.5895,2.5895,2.5895,2.5895,2.5895,2.5895,2.5895,2.5895,2.5895,2.5895,2.5895,2.5895,2.5895,3.79,3.79,3.79,3.79,3.79,3.79,3.7482,3.675,3.6279,3.5704,3.5064,3.458,3.4397,3.4397,3.4397,3.4397,3.4397,3.4397,3.4397,3.4397,3.4397,3.4397,3.4397,3.4397,3.4397,3.4397,3.4397,3.4397,3.4397,3.4397,3.4397,3.4397,3.4397,3.4397,3.4397,3.4397,3.4397,3.4397,3.4397,3.4397,3.4397,3.4397,3.4397,3.4397,3.4397,3.4397,3.4397,3.4397,3.4397,3.4397,3.4397,3.4397,3.4397,3.4397,3.4397,3.4397,3.4397,3.4397,3.4397,3.4397,3.4397,3.4397,3.4397,3.4397,3.4397,3.4397,3.4494,3.4577,3.4535,3.4481,3.4618,3.4535,3.4439,3.4397,3.4439,3.4439,3.4397,3.4397,3.4397,3.4397,3.4397,3.4397,3.4397,3.4397,3.4397,3.4397,3.4397,3.4397,3.4314,3.4217,3.3704,3.271,3.1881,3.1089,3.0236,2.9481,2.8751,2.7973,2.7322,2.6737,2.6304,2.5917,2.5895,2.5895,2.5895,2.5895,2.5895,2.5895,2.5895,2.5895,2.5895,2.5895,2.5895,2.5895,2.5895,3.79,3.79,3.79,3.79,3.79,3.79,3.7573,3.6972,3.6371,3.5796,3.526,3.4672,3.4397,3.4397,3.4397,3.4397,3.4397,3.4397,3.4397,3.4397,3.4397,3.4397,3.4397,3.4397,3.4397,3.4397,3.4397,3.4397,3.4397,3.4397,3.4397,3.4397,3.4397,3.4397,3.4397,3.4397,3.4397,3.4397,3.4397,3.4397,3.4397,3.4397,3.4397,3.4397,3.4397,3.4439,3.4535,3.4577,3.4535,3.4452,3.4397,3.4397,3.4397,3.4397,3.4397,3.4397,3.4397,3.4397,3.4397,3.4397,3.4397,3.4439,3.4494,3.4577,3.4577,3.4618,3.4784,3.488,3.4714,3.466,3.4714,3.466,3.4577,3.4577,3.466,3.4605,3.4439,3.4494,3.4535,3.4577,3.4577,3.4577,3.4535,3.4481,3.4397,3.4397,3.4397,3.4397,3.4356,3.4384,3.4197,3.3267,3.273,3.2215,3.16,3.0839,2.9779,2.8911,2.7959,2.7319,2.6652,2.6177,2.5937,2.5979,2.5937,2.5895,2.5895,2.5895,2.5895,2.5895,2.5895,2.5895,2.5895,2.5979,2.5979,3.79,3.79,3.79,3.79,3.79,3.7887,3.7625,3.7063,3.6515,3.6005,3.5495,3.4816,3.4593,3.4489,3.4463,3.4397,3.4397,3.4397,3.4397,3.4397,3.4397,3.4397,3.4397,3.4397,3.4397,3.4397,3.4397,3.4397,3.4397,3.4397,3.4397,3.4397,3.4397,3.4397,3.4397,3.4397,3.4397,3.4397,3.4397,3.4397,3.4397,3.4397,3.4397,3.4397,3.4481,3.4618,3.4743,3.4797,3.4756,3.4481,3.4494,3.4522,3.4481,3.4481,3.4481,3.4564,3.4647,3.4675,3.4564,3.4634,3.4605,3.4618,3.4701,3.4797,3.4839,3.4949,3.51,3.5386,3.5072,3.5154,3.5304,3.51,3.5018,3.5072,3.5113,3.4867,3.466,3.466,3.4839,3.4797,3.4839,3.4839,3.4756,3.4618,3.4439,3.4647,3.4605,3.4577,3.4618,3.4647,3.4459,3.4016,3.3719,3.3649,3.2979,3.2275,3.1094,2.9984,2.8867,2.8016,2.7273,2.6712,2.6249,2.6063,2.6052,2.6021,2.5895,2.5895,2.5937,2.5895,2.5895,2.5895,2.5937,2.6093,2.6135,3.79,3.79,3.79,3.79,3.79,3.79,3.7821,3.7639,3.705,3.6671,3.6397,3.5561,3.5116,3.5051,3.4646,3.4397,3.441,3.4397,3.4397,3.4397,3.4397,3.4397,3.4397,3.4397,3.4397,3.4397,3.4397,3.4397,3.4397,3.4397,3.4397,3.4397,3.4397,3.4397,3.4397,3.4397,3.4397,3.4397,3.4397,3.4397,3.4397,3.4439,3.4439,3.4494,3.4618,3.4825,3.4949,3.5044,3.5003,3.4949,3.499,3.5018,3.4908,3.4784,3.4784,3.5059,3.5399,3.544,3.5182,3.5481,3.5602,3.5141,3.5182,3.5044,3.5044,3.5195,3.5575,3.6004,3.6123,3.6229,3.657,3.6255,3.599,3.5843,3.5507,3.5154,3.5003,3.5003,3.5044,3.5044,3.5044,3.5044,3.5058,3.4839,3.4784,3.4867,3.4867,3.4825,3.4825,3.4867,3.4665,3.4383,3.4222,3.406,3.374,3.3051,3.2085,3.1063,3.0025,2.9005,2.8255,2.7735,2.7435,2.6846,2.6249,2.6177,2.6093,2.5979,2.5968,2.5937,2.5937,2.5979,2.6052,2.6218,2.6373,3.79,3.79,3.79,3.79,3.79,3.79,3.79,3.7782,3.726,3.6998,3.6815,3.6031,3.5547,3.5286,3.4959,3.4698,3.4437,3.4397,3.4397,3.4397,3.4397,3.4397,3.4397,3.4397,3.4397,3.4397,3.4397,3.4397,3.4397,3.4397,3.4397,3.4397,3.4397,3.4397,3.4397,3.4397,3.4397,3.4397,3.4397,3.4397,3.4397,3.4535,3.466,3.4701,3.4867,3.5044,3.5195,3.5236,3.5277,3.544,3.5696,3.5656,3.5195,3.5003,3.5195,3.5656,3.5924,3.6255,3.6294,3.657,3.6688,3.6269,3.6281,3.636,3.6399,3.6439,3.6713,3.7102,3.7179,3.7204,3.7434,3.7319,3.6894,3.6452,3.6149,3.5817,3.548,3.5318,3.5236,3.5236,3.5236,3.5236,3.5195,3.5044,3.5003,3.5031,3.5031,3.4949,3.4908,3.4949,3.4883,3.4681,3.448,3.4334,3.4229,3.3713,3.2988,3.2123,3.1292,3.0343,2.9524,2.9135,2.8821,2.7988,2.7028,2.6528,2.6404,2.6249,2.6124,2.6021,2.6021,2.6135,2.629,2.6569,2.6775,3.79,3.79,3.79,3.79,3.79,3.79,3.79,3.7821,3.7364,3.722,3.7024,3.6502,3.5966,3.5508,3.5299,3.4946,3.4541,3.4397,3.4397,3.4397,3.4397,3.4397,3.4397,3.4397,3.4397,3.4397,3.4397,3.4397,3.4397,3.4397,3.4397,3.4397,3.4397,3.4397,3.4397,3.4397,3.4397,3.4397,3.4397,3.4397,3.4439,3.466,3.4908,3.5386,3.5426,3.5696,3.5884,3.5884,3.5817,3.6097,3.6741,3.6452,3.5843,3.5386,3.5629,3.6334,3.6531,3.6855,3.7357,3.7625,3.7738,3.7677,3.7686,3.7748,3.7748,3.7762,3.7951,3.8175,3.8287,3.8287,3.7988,3.7988,3.7738,3.7281,3.7155,3.6741,3.6243,3.5817,3.571,3.544,3.544,3.544,3.5399,3.5277,3.5195,3.5154,3.5154,3.5154,3.5113,3.5072,3.506,3.5047,3.4858,3.4818,3.4726,3.3993,3.3315,3.2914,3.2239,3.1437,3.0646,3.0304,2.9756,2.8718,2.7844,2.7464,2.708,2.6905,2.6712,2.6332,2.6218,2.6373,2.6652,2.6969,2.7144,3.79,3.79,3.79,3.79,3.79,3.79,3.79,3.79,3.7769,3.7743,3.7639,3.7103,3.6475,3.5966,3.5456,3.4972,3.4515,3.4397,3.4397,3.4397,3.4397,3.4397,3.4397,3.4397,3.4397,3.4397,3.4481,3.4522,3.4481,3.4397,3.4439,3.4397,3.4439,3.4439,3.4481,3.4397,3.4592,3.4716,3.4634,3.4551,3.4647,3.4853,3.5372,3.6123,3.6189,3.6635,3.7165,3.7,3.6961,3.761,3.7852,3.7762,3.7343,3.6752,3.6688,3.6947,3.7357,3.7762,3.8175,3.8672,3.8561,3.8213,3.8175,3.8161,3.8161,3.8198,3.8635,3.9088,3.9585,3.992,3.9955,3.9356,3.9015,3.8708,3.8213,3.7814,3.751,3.7025,3.6427,3.6044,3.5857,3.5629,3.5521,3.548,3.544,3.5399,3.5399,3.544,3.544,3.544,3.5413,3.5386,3.5304,3.5277,3.5291,3.4338,3.3574,3.3407,3.2869,3.2209,3.1572,3.1296,3.0645,2.9769,2.9188,2.8861,2.8414,2.7855,2.7614,2.7464,2.711,2.6723,2.7133,2.7592,2.7655,3.79,3.79,3.79,3.79,3.79,3.79,3.79,3.79,3.79,3.79,3.7717,3.726,3.6658,3.6083,3.5534,3.4972,3.4528,3.4397,3.4397,3.4397,3.4397,3.4397,3.4439,3.4397,3.4397,3.4509,3.4786,3.5032,3.5032,3.4592,3.4716,3.4964,3.4812,3.4729,3.5032,3.5237,3.5386,3.5494,3.5372,3.5223,3.5264,3.5575,3.6203,3.6545,3.6844,3.7218,3.7724,3.7333,3.7295,3.7988,3.8473,3.845,3.8213,3.8101,3.804,3.8153,3.8361,3.8803,3.9233,3.9728,3.9692,3.9478,3.932,3.9356,3.9341,3.9427,3.9463,3.9849,4.0111,4.0489,4.042,4.0111,3.9763,3.9305,3.8928,3.8583,3.8175,3.7776,3.7319,3.6805,3.6229,3.5937,3.5669,3.5629,3.5588,3.5588,3.5588,3.5629,3.571,3.5629,3.5588,3.5602,3.5521,3.5521,3.5427,3.4739,3.3877,3.3693,3.3322,3.2694,3.2214,3.1803,3.1542,3.1095,3.0645,3.0037,2.9498,2.89,2.873,2.856,2.8187,2.7891,2.7983,2.8127,2.8259,3.79,3.79,3.79,3.79,3.79,3.79,3.79,3.79,3.79,3.79,3.7808,3.7273,3.6671,3.6044,3.5417,3.4829,3.4397,3.4397,3.4522,3.4758,3.4758,3.4716,3.4675,3.4634,3.4634,3.4522,3.5182,3.5709,3.5548,3.5305,3.5386,3.544,3.5195,3.5223,3.5629,3.5709,3.632,3.6621,3.6543,3.6281,3.6439,3.683,3.7179,3.7372,3.7386,3.7829,3.8598,3.8003,3.804,3.8672,3.9124,3.9269,3.8818,3.9211,3.9514,3.9514,3.9376,3.9763,4.0216,4.042,4.0351,4.0231,4.042,4.0455,4.042,4.0231,4.0385,4.0489,4.0489,4.0489,4.0489,4.0455,4.0181,3.9814,3.957,3.9341,3.8891,3.8561,3.8413,3.7738,3.6791,3.6387,3.6243,3.5669,3.5669,3.5669,3.5629,3.5629,3.571,3.5629,3.5588,3.5669,3.5669,3.5669,3.5466,3.5115,3.4331,3.3829,3.3403,3.2816,3.2463,3.2096,3.1923,3.1726,3.1431,3.0859,3.0368,2.9973,2.9794,2.955,2.9238,2.9055,2.9081,2.9055,2.9106,3.79,3.79,3.79,3.79,3.79,3.79,3.79,3.79,3.79,3.79,3.7782,3.7233,3.6606,3.59,3.4959,3.4515,3.441,3.4564,3.4868,3.5305,3.5507,3.5507,3.5494,3.5534,3.5032,3.484,3.5386,3.5629,3.5936,3.632,3.6281,3.6056,3.579,3.5749,3.6096,3.6056,3.6241,3.7011,3.7127,3.7228,3.7558,3.8213,3.8635,3.8833,3.8906,3.9175,3.9657,3.916,3.916,3.992,4.0196,4.0301,4.0231,4.0266,4.0385,4.0146,3.9849,3.9657,4.0335,4.0489,4.0489,4.0489,4.0489,4.0489,4.0489,4.0489,4.0489,4.0489,4.0489,4.0489,4.0489,4.0489,4.042,4.0335,4.0146,4.0181,3.9955,3.9341,3.9196,3.8891,3.804,3.7434,3.7063,3.6308,3.571,3.571,3.571,3.575,3.5669,3.5629,3.5588,3.5669,3.571,3.571,3.5669,3.5249,3.4775,3.4138,3.3555,3.301,3.2667,3.2381,3.2205,3.1973,3.1753,3.168,3.1371,3.1046,3.0809,3.0507,3.0165,3.0088,3.0088,3.005,2.9832,3.79,3.79,3.79,3.79,3.79,3.79,3.79,3.79,3.79,3.7704,3.7325,3.6763,3.6005,3.5224,3.4541,3.441,3.4481,3.4881,3.5264,3.5816,3.6082,3.6122,3.5749,3.5709,3.5386,3.5426,3.5963,3.6805,3.6922,3.6869,3.6777,3.666,3.6241,3.6241,3.6713,3.6635,3.7525,3.8294,3.8479,3.8167,3.8213,3.8694,3.9233,3.932,3.932,3.9763,4.0111,3.9778,3.9728,4.0335,4.0489,4.0489,4.0489,4.0489,4.0489,4.0455,4.0216,4.0181,4.0455,4.0489,4.0489,4.0489,4.0489,4.0489,4.0489,4.0489,4.0489,4.0489,4.0489,4.0489,4.0489,4.0489,4.0489,4.0489,4.0489,4.0489,4.0455,4.0301,3.992,3.9621,3.932,3.8686,3.8078,3.7625,3.6908,3.6427,3.6322,3.6203,3.5977,3.5669,3.5669,3.5669,3.571,3.571,3.5696,3.5466,3.5127,3.4572,3.4016,3.3471,3.2911,3.2599,3.249,3.2314,3.2086,3.2086,3.2146,3.1936,3.1505,3.132,3.1121,3.0972,3.0784,3.0393,3.0203,3.79,3.79,3.79,3.79,3.79,3.79,3.79,3.79,3.79,3.7573,3.7009,3.6446,3.564,3.4901,3.4784,3.4716,3.4439,3.5318,3.5776,3.6201,3.6635,3.6713,3.632,3.6042,3.5896,3.5749,3.6385,3.7179,3.7706,3.7857,3.7701,3.7548,3.7039,3.7102,3.7525,3.7677,3.8182,3.9538,3.9523,3.919,3.9015,3.932,3.9585,3.9621,3.9657,3.9869,4.0266,4.0025,4.0076,4.0335,4.0489,4.0489,4.0489,4.0489,4.0489,4.0489,4.037,4.042,4.0489,4.0489,4.0489,4.0489,4.0489,4.0489,4.0489,4.0489,4.0489,4.0489,4.0489,4.0489,4.0489,4.0489,4.0489,4.0489,4.0489,4.0489,4.0489,4.037,4.0301,4.0146,3.9884,3.9778,3.9284,3.8979,3.8339,3.7448,3.7039,3.6766,3.6427,3.6057,3.5871,3.5911,3.575,3.575,3.5696,3.5588,3.5303,3.4965,3.4423,3.3935,3.3403,3.3037,3.2874,3.2657,3.2449,3.2277,3.2291,3.2223,3.2169,3.1863,3.1629,3.1556,3.132,3.0934,3.0784,3.79,3.79,3.79,3.79,3.79,3.79,3.79,3.7887,3.7874,3.7514,3.6932,3.6569,3.6047,3.5724,3.5548,3.5223,3.4551,3.5345,3.6162,3.6947,3.7553,3.7501,3.7102,3.6752,3.6517,3.6122,3.6738,3.7501,3.8188,3.876,3.8745,3.8671,3.7947,3.8263,3.8449,3.8435,3.8804,3.991,4.0106,4.0246,4.0111,4.0231,4.0301,4.0335,4.0385,4.0455,4.0489,4.0335,4.0301,4.0489,4.0489,4.0489,4.0489,4.0489,4.0489,4.0489,4.0489,4.0489,4.0489,4.0489,4.0489,4.0489,4.0489,4.0489,4.0489,4.0489,4.0489,4.0489,4.0489,4.0489,4.0489,4.0489,4.0489,4.0489,4.0489,4.0489,4.0489,4.0489,4.0455,4.0489,4.0385,4.0196,4.0126,3.9743,3.9124,3.8227,3.7663,3.7396,3.7155,3.678,3.6362,3.6137,3.5897,3.5777,3.571,3.5574,3.5452,3.5208,3.4734,3.4355,3.3948,3.3637,3.3308,3.3118,3.2888,3.263,3.2359,3.2314,3.2246,3.2218,3.2096,3.19,3.1863,3.1629,3.1666,3.79,3.79,3.79,3.79,3.79,3.79,3.79,3.7835,3.7508,3.7131,3.6706,3.6237,3.6195,3.6362,3.6439,3.6281,3.6082,3.6858,3.7309,3.7857,3.8375,3.8375,3.7933,3.763,3.7567,3.7285,3.7591,3.8121,3.8922,3.9265,3.9373,3.9141,3.8612,3.8538,3.8686,3.9199,3.9732,3.9965,4.0366,4.0489,4.0489,4.0489,4.0489,4.0489,4.0489,4.0489,4.0489,4.0489,4.0489,4.0489,4.0489,4.0489,4.0489,4.0489,4.0489,4.0489,4.0489,4.0489,4.0489,4.0489,4.0489,4.0489,4.0489,4.0489,4.0489,4.0489,4.0489,4.0489,4.0489,4.0489,4.0489,4.0489,4.0489,4.0489,4.0489,4.0489,4.0489,4.0489,4.0489,4.0489,4.0489,4.042,4.042,4.042,3.9728,3.9037,3.8487,3.8026,3.7776,3.7563,3.7155,3.6741,3.6506,3.6203,3.6123,3.5896,3.5655,3.5397,3.5112,3.4775,3.445,3.3989,3.3664,3.3525,3.3335,3.3037,3.2775,3.2436,3.2273,3.2232,3.2218,3.2132,3.2169,3.2205,3.2205,3.79,3.79,3.79,3.79,3.79,3.79,3.79,3.7835,3.7482,3.724,3.7071,3.6619,3.6458,3.6819,3.6894,3.6621,3.6621,3.7193,3.7796,3.8352,3.8811,3.8848,3.8464,3.8165,3.8052,3.8202,3.8277,3.859,3.9265,3.9388,3.946,3.9301,3.8995,3.8907,3.9286,3.9839,4.0327,4.0347,4.0436,4.0505,4.0489,4.0489,4.0489,4.0489,4.0489,4.0489,4.0489,4.0489,4.0489,4.0489,4.0489,4.0489,4.0489,4.0489,4.0489,4.0489,4.0489,4.0489,4.0489,4.0489,4.0489,4.0489,4.0489,4.0489,4.0489,4.0489,4.0489,4.0489,4.0489,4.0489,4.0489,4.0489,4.0489,4.0489,4.0489,4.0489,4.0489,4.0489,4.0489,4.0489,4.0489,4.0489,4.0489,4.0489,4.0231,3.9763,3.9585,3.9052,3.8546,3.8339,3.8055,3.7625,3.7281,3.6947,3.6624,3.6439,3.6267,3.6041,3.5754,3.5315,3.4924,3.449,3.4219,3.4138,3.3919,3.3498,3.3142,3.2775,3.2477,3.2246,3.2232,3.2205,3.2205,3.2205,3.2205,3.79,3.79,3.79,3.79,3.79,3.79,3.79,3.7887,3.7756,3.7943,3.8158,3.7775,3.74,3.7201,3.7319,3.7049,3.6713,3.7102,3.7653,3.8464,3.9046,3.8848,3.859,3.8366,3.8464,3.824,3.8389,3.8811,3.9388,3.9388,3.9424,3.946,3.9337,3.9445,3.994,4.0172,4.0312,4.0327,4.0436,4.0505,4.0489,4.0489,4.0489,4.0489,4.0489,4.0489,4.0489,4.0489,4.0489,4.0489,4.0489,4.0489,4.0489,4.0489,4.0489,4.0489,4.0489,4.0489,4.0489,4.0489,4.0489,4.0489,4.0489,4.0489,4.0489,4.0489,4.0489,4.0489,4.0489,4.0489,4.0489,4.0489,4.0489,4.0489,4.0489,4.0489,4.0489,4.0489,4.0489,4.0489,4.0489,4.0489,4.0489,4.0489,4.0489,4.0385,4.0455,4.0076,3.9412,3.916,3.8906,3.845,3.8026,3.7724,3.7396,3.7078,3.6883,3.6688,3.6371,3.5971,3.5653,3.5369,3.5098,3.4869,3.4477,3.4095,3.3618,3.3101,3.2721,3.2354,3.2246,3.2205,3.2205,3.2205,3.2205,3.79,3.79,3.79,3.79,3.79,3.79,3.79,3.7821,3.7565,3.7571,3.7948,3.7866,3.8216,3.837,3.8397,3.8159,3.8159,3.8285,3.8885,3.8958,3.9301,3.9228,3.901,3.89,3.8958,3.901,3.9046,3.8995,3.9388,3.9388,3.9388,3.9424,3.9553,3.9732,3.9975,4.0207,4.0347,4.0436,4.0489,4.0489,4.0489,4.0489,4.0489,4.0489,4.0489,4.0489,4.0489,4.0489,4.0489,4.0489,4.0489,4.0489,4.0489,4.0489,4.0489,4.0489,4.0489,4.0489,4.0489,4.0489,4.0489,4.0489,4.0489,4.0489,4.0489,4.0489,4.0489,4.0489,4.0489,4.0489,4.0489,4.0489,4.0489,4.0489,4.0489,4.0489,4.0489,4.0489,4.0489,4.0489,4.0489,4.0489,4.0489,4.0489,4.0489,4.0489,4.0489,4.0489,3.999,3.9955,3.9814,3.9284,3.8818,3.8509,3.8213,3.7927,3.7738,3.7625,3.7179,3.666,3.6373,3.6203,3.5802,3.5474,3.507,3.4653,3.4149,3.3566,3.2884,3.2477,3.2494,3.2318,3.2205,3.2205,3.2205,3.79,3.79,3.79,3.79,3.79,3.79,3.79,3.7835,3.7501,3.7454,3.7621,3.7701,3.7893,3.8353,3.8546,3.8833,3.8907,3.8958,3.9265,3.9316,3.9388,3.9352,3.9352,3.9388,3.9316,3.9388,3.9388,3.9388,3.9388,3.9388,3.9388,3.946,3.9661,3.9854,4.0031,4.0172,4.0381,4.047,4.0489,4.0489,4.0489,4.0489,4.0489,4.0489,4.0489,4.0489,4.0489,4.0489,4.0489,4.0489,4.0489,4.0489,4.0489,4.0489,4.0489,4.0489,4.0489,4.0489,4.0489,4.0489,4.0489,4.0489,4.0489,4.0489,4.0489,4.0489,4.0489,4.0489,4.0489,4.0489,4.0489,4.0489,4.0489,4.0489,4.0489,4.0489,4.0489,4.0489,4.0489,4.0489,4.0489,4.0489,4.0489,4.0489,4.0489,4.0489,4.0489,4.0489,4.0489,4.042,4.0385,3.992,3.9621,3.9427,3.9124,3.8782,3.8635,3.8509,3.8003,3.7372,3.7256,3.7088,3.661,3.6163,3.594,3.5531,3.4743,3.4095,3.3417,3.3078,3.305,3.2766,3.2291,3.23,3.2345,3.79,3.79,3.79,3.79,3.79,3.79,3.79,3.79,3.7887,3.7718,3.7431,3.7519,3.7629,3.7219,3.7151,3.7767,3.8375,3.8478,3.8848,3.9228,3.9388,3.9388,3.9388,3.9388,3.9388,3.9388,3.9388,3.9388,3.9388,3.9388,3.9388,3.946,3.9732,3.9889,4.0031,4.0207,4.0366,4.0455,4.0489,4.0489,4.0489,4.0489,4.0489,4.0489,4.0489,4.0489,4.0489,4.0489,4.0489,4.0489,4.0489,4.0489,4.0489,4.0489,4.0489,4.0489,4.0489,4.0489,4.0489,4.0489,4.0489,4.0489,4.0489,4.0489,4.0489,4.0489,4.0489,4.0489,4.0489,4.0489,4.0489,4.0489,4.0489,4.0489,4.0489,4.0489,4.0489,4.0489,4.0489,4.0489,4.0489,4.0489,4.0489,4.0489,4.0489,4.0489,4.0489,4.0489,4.0489,4.0489,4.0455,4.042,4.0231,4.0351,4.0041,3.955,3.9463,3.9356,3.8708,3.8153,3.8101,3.7913,3.7396,3.7025,3.6897,3.637,3.5413,3.4653,3.4002,3.3758,3.3539,3.3284,3.2901,3.2698,3.2671,3.79,3.79,3.79,3.79,3.79,3.79,3.79,3.79,3.7887,3.7714,3.7445,3.7992,3.7819,3.7891,3.8449,3.8708,3.8907,3.9068,3.9192,3.9352,3.9388,3.9388,3.9388,3.9388,3.9388,3.9388,3.9388,3.9388,3.9388,3.9388,3.9388,3.946,3.9696,3.9854,4.0031,4.0207,4.0366,4.0455,4.0489,4.0489,4.0489,4.0489,4.0489,4.0489,4.0489,4.0489,4.0489,4.0489,4.0489,4.0489,4.0489,4.0489,4.0489,4.0489,4.0489,4.0489,4.0489,4.0489,4.0489,4.0489,4.0489,4.0489,4.0489,4.0489,4.0489,4.0489,4.0489,4.0489,4.0489,4.0489,4.0489,4.0489,4.0489,4.0489,4.0489,4.0489,4.0489,4.0489,4.0489,4.0489,4.0489,4.0489,4.0489,4.0489,4.0489,4.0489,4.0489,4.0489,4.0489,4.0489,4.0489,4.0489,4.0489,4.0489,4.0489,4.0111,4.0161,4.0076,3.9427,3.8928,3.8855,3.8635,3.8138,3.7762,3.7486,3.6777,3.5903,3.5304,3.5044,3.4186,3.3889,3.3702,3.3501,3.3335,3.32,3.79,3.79,3.79,3.79,3.79,3.79,3.79,3.79,3.79,3.7535,3.7,3.7333,3.763,3.7682,3.8069,3.862,3.9352,3.9316,3.9352,3.9352,3.9352,3.9388,3.9388,3.9388,3.9388,3.9388,3.9388,3.9388,3.9388,3.9388,3.9388,3.9424,3.9661,3.9854,4.0031,4.0226,4.0385,4.0455,4.0489,4.0489,4.0489,4.0489,4.0489,4.0489,4.0489,4.0489,4.0489,4.0489,4.0489,4.0489,4.0489,4.0489,4.0489,4.0489,4.0489,4.0489,4.0489,4.0489,4.0489,4.0489,4.0489,4.0489,4.0489,4.0489,4.0489,4.0489,4.0489,4.0489,4.0489,4.0489,4.0489,4.0489,4.0489,4.0489,4.0489,4.0489,4.0489,4.0489,4.0489,4.0489,4.0489,4.0489,4.0489,4.0489,4.0489,4.0489,4.0489,4.0489,4.0489,4.0489,4.0489,4.0489,4.0489,4.0489,4.0489,4.0489,4.042,4.0351,4.0146,3.9763,3.9657,3.9463,3.9124,3.8561,3.7927,3.7347,3.6812,3.6627,3.6262,3.5489,3.5041,3.5137,3.4829,3.4074,3.3941,3.79,3.79,3.79,3.79,3.79,3.79,3.79,3.79,3.79,3.722,3.6341,3.6162,3.659,3.7113,3.7434,3.8323,3.8958,3.9243,3.9228,3.9352,3.9119,3.9156,3.9388,3.9388,3.9388,3.9388,3.9388,3.9388,3.9388,3.9388,3.9388,3.9424,3.9783,3.996,4.0046,4.0331,4.0455,4.0489,4.0489,4.0489,4.0489,4.0489,4.0489,4.0489,4.0489,4.0489,4.0489,4.0489,4.0489,4.0489,4.0489,4.0489,4.0489,4.0489,4.0489,4.0489,4.0489,4.0489,4.0489,4.0489,4.0489,4.0489,4.0489,4.0489,4.0489,4.0489,4.0489,4.0489,4.0489,4.0489,4.0489,4.0489,4.0489,4.0489,4.0489,4.0489,4.0489,4.0489,4.0489,4.0489,4.0489,4.0489,4.0489,4.0489,4.0489,4.0489,4.0489,4.0489,4.0489,4.0489,4.0489,4.0489,4.0489,4.0489,4.0489,4.0489,4.0489,4.0455,4.0385,4.0335,4.0111,4.0111,4.0196,3.9478,3.876,3.8399,3.7993,3.7665,3.7395,3.7248,3.6912,3.6908,3.6347,3.5401,3.4817,3.79,3.79,3.79,3.79,3.79,3.79,3.79,3.79,3.79,3.7207,3.6306,3.6298,3.6579,3.69,3.7462,3.8337,3.9068,3.9046,3.8973,3.9046,3.8922,3.9068,3.9301,3.9388,3.9388,3.9388,3.9388,3.9388,3.9388,3.9388,3.9424,3.946,3.9783,4.0011,4.0011,4.0331,4.0489,4.0489,4.0489,4.0489,4.0489,4.0489,4.0489,4.0489,4.0489,4.0489,4.0489,4.0489,4.0489,4.0489,4.0489,4.0489,4.0489,4.0489,4.0489,4.0489,4.0489,4.0489,4.0489,4.0489,4.0489,4.0489,4.0489,4.0489,4.0489,4.0489,4.0489,4.0489,4.0489,4.0489,4.0489,4.0489,4.0489,4.0489,4.0489,4.0489,4.0489,4.0489,4.0489,4.0489,4.0489,4.0489,4.0489,4.0489,4.0489,4.0489,4.0489,4.0489,4.0489,4.0489,4.0489,4.0489,4.0489,4.0489,4.0489,4.0489,4.0489,4.0489,4.0455,4.0455,4.0489,4.042,4.0351,4.0111,3.9657,3.9269,3.8818,3.8347,3.8184,3.8361,3.8138,3.789,3.7738,3.7039,3.6255,3.79,3.79,3.79,3.79,3.79,3.79,3.79,3.7848,3.7625,3.6985,3.6206,3.6263,3.6552,3.6836,3.7462,3.8427,3.9141,3.8995,3.9119,3.9119,3.8995,3.9119,3.9265,3.9388,3.9388,3.9388,3.9388,3.9388,3.9388,3.9388,3.9424,3.946,3.9783,4.0011,4.0046,4.0296,4.0489,4.0489,4.0489,4.0489,4.0489,4.0489,4.0489,4.0489,4.0489,4.0489,4.0489,4.0489,4.0489,4.0489,4.0489,4.0489,4.0489,4.0489,4.0489,4.0489,4.0489,4.0489,4.0489,4.0489,4.0489,4.0489,4.0489,4.0489,4.0489,4.0489,4.0489,4.0489,4.0489,4.0489,4.0489,4.0489,4.0489,4.0489,4.0489,4.0489,4.0489,4.0489,4.0489,4.0489,4.0489,4.0489,4.0489,4.0489,4.0489,4.0489,4.0489,4.0489,4.0489,4.0489,4.0489,4.0524,4.0524,4.0524,4.0489,4.0489,4.0489,4.0489,4.0489,4.0489,4.0489,4.0489,4.042,4.0266,4.0146,4.0005,3.9585,3.9124,3.9233,3.9463,3.9124,3.8635,3.8546,3.8421,3.7652,3.79,3.79,3.79,3.79,3.79,3.79,3.79,3.7808,3.7273,3.6684,3.6123,3.6035,3.637,3.6744,3.6958,3.8107,3.8833,3.8848,3.9119,3.9301,3.9156,3.9192,3.9265,3.9388,3.9388,3.9388,3.9388,3.9388,3.9388,3.9388,3.9424,3.9496,3.9711,4.0011,4.0101,4.0296,4.0489,4.0489,4.0489,4.0489,4.0489,4.0489,4.0489,4.0489,4.0489,4.0489,4.0489,4.0489,4.0489,4.0489,4.0489,4.0489,4.0489,4.0489,4.0489,4.0489,4.0489,4.0489,4.0489,4.0489,4.0489,4.0489,4.0489,4.0489,4.0489,4.0489,4.0489,4.0489,4.0489,4.0489,4.0489,4.0489,4.0489,4.0489,4.0489,4.0489,4.0489,4.0489,4.0489,4.0489,4.0489,4.0489,4.0489,4.0489,4.0489,4.0489,4.0489,4.0489,4.0489,4.0524,4.0524,4.0593,4.0627,4.0593,4.0524,4.0489,4.0524,4.0489,4.0489,4.0489,4.0489,4.0489,4.0489,4.0489,4.0385,4.0301,4.0301,4.0041,4.0266,4.025,3.9955,3.9463,3.9391,3.9196,3.8708,3.79,3.79,3.79,3.79,3.79,3.79,3.79,3.7795,3.726,3.6671,3.6083,3.5703,3.5936,3.6894,3.688,3.7753,3.8907,3.89,3.9046,3.925,3.8958,3.9031,3.9348,3.9717,3.9463,3.9493,3.9553,3.9418,3.9508,3.9463,3.9388,3.9424,3.9783,4.0011,4.0081,4.0277,4.0489,4.0489,4.0489,4.0489,4.0489,4.0489,4.0489,4.0489,4.0489,4.0489,4.0489,4.0489,4.0489,4.0489,4.0489,4.0489,4.0489,4.0489,4.0489,4.0489,4.0489,4.0489,4.0489,4.0489,4.0489,4.0489,4.0489,4.0489,4.0489,4.0489,4.0489,4.0489,4.0489,4.0489,4.0489,4.0489,4.0489,4.0489,4.0489,4.0489,4.0489,4.0489,4.0489,4.0489,4.0489,4.0489,4.0489,4.0489,4.0489,4.0489,4.0489,4.0489,4.0489,4.0524,4.0558,4.0627,4.0681,4.0627,4.0539,4.0524,4.0524,4.0524,4.0489,4.0489,4.0489,4.0489,4.0489,4.0489,4.0489,4.042,4.0489,4.0489,4.0455,4.042,4.0455,4.0266,4.0181,3.9955,3.9463]}]]